[[{"header":{"parameterUnit":"m.s-1","parameterCategory":1,"la1":31.0,"la2":29.5877,"lo1":-88.7671,"lo2":-86.6584,"dy":0.0162,"dx":0.0185,"nx":115,"ny":88,"refTime":"2025-05-22T12:00:00:Z","depth":0,"parameterNumber":2,"parameterNumberName":"U-component_of_WINDS"},"data":[0.0,0.0,0.0,0.0,0.0,0.0,0.0,0.0,0.0,0.0,0.0,0.0,0.0,0.0,0.0,0.0,0.0,0.0,0.0,0.0,0.0,0.0,0.0,0.0,0.0,0.0,0.0,0.0,0.0,0.0,0.0,0.0,0.0,0.0,0.0,0.0,0.0,0.0,0.0,0.0,0.0,0.0,0.0,0.0,0.0,0.0,0.0,0.0,0.0,0.0,0.0,0.0,0.0,0.0,0.0,0.0,0.0,0.0,0.0,0.0,0.0,0.0,0.0,0.0,0.0,0.0,0.0,0.0,0.0,0.0,0.0,0.0,0.0,0.0,0.0,0.0,0.0,0.0,0.0,0.0,0.0,0.0,0.0,0.0,0.0,0.0,0.0,0.0,0.0,0.0,0.0,0.0,0.0,0.0,0.0,0.0,0.0,0.0,0.0,0.0,0.0,0.0,0.0,0.0,0.0,0.0,0.0,0.0,0.0,0.0,0.0,0.0,0.0,0.0,0.0,0.0,0.0,0.0,0.0,0.0,0.0,0.0,0.0,0.0,0.0,0.0,0.0,0.0,0.0,0.0,0.0,0.0,0.0,0.0,0.0,0.0,0.0,0.0,0.0,0.0,0.0,0.0,0.0,0.0,0.0,0.0,0.0,0.0,0.0,0.0,0.0,0.0,0.0,0.0,0.0,0.0,0.0,0.0,0.0,0.0,0.0,0.0,0.0,0.0,0.0,0.0,0.0,0.0,0.0,0.0,0.0,0.0,0.0,0.0,0.0,0.0,0.0,0.0,0.0,0.0,0.0,0.0,0.0,0.0,0.0,0.0,0.0,0.0,0.0,0.0,0.0,0.0,0.0,0.0,0.0,0.0,0.0,0.0,0.0,0.0,0.0,0.0,0.0,0.0,0.0,0.0,0.0,0.0,0.0,0.0,0.0,0.0,0.0,0.0,0.0,0.0,0.0,0.0,0.0,0.0,0.0,0.0,0.0,0.0,0.0,0.0,0.0,0.0,0.0,0.0,0.0,0.0,0.0,0.0,0.0,0.0,0.0,0.0,0.0,0.0,0.0,0.0,0.0,0.0,0.0,0.0,0.0,0.0,0.0,0.0,0.0,0.0,0.0,0.0,0.0,0.0,0.0,0.0,0.0,0.0,0.0,0.0,0.0,0.0,0.0,0.0,0.0,0.0,0.0,0.0,0.0,0.0,0.0,0.0,0.0,0.0,0.0,0.0,0.0,0.0,0.0,0.0,0.0,0.0,0.0,0.0,0.0,0.0,0.0,0.0,0.0,0.0,0.0,0.0,0.0,0.0,0.0,0.0,0.0,0.0,0.0,0.0,0.0,0.0,0.0,0.0,0.0,0.0,0.0,0.0,0.0,0.0,0.0,0.0,0.0,0.0,0.0,0.0,0.0,0.0,0.0,0.0,0.0,0.0,0.0,0.0,0.0,0.0,0.0,0.0,0.0,0.0,0.0,0.0,0.0,0.0,0.0,0.0,0.0,0.0,0.0,0.0,0.0,0.0,0.0,0.0,0.0,0.0,0.0,0.0,0.0,0.0,0.0,0.0,0.0,0.0,0.0,0.0,0.0,0.0,0.0,0.0,0.0,0.0,0.0,0.0,0.0,0.0,0.0,0.0,0.0,0.0,0.0,0.0,0.0,0.0,0.0,0.0,0.0,0.0,0.0,0.0,0.0,0.0,0.0,0.0,0.0,0.0,0.0,0.0,0.0,0.0,0.0,0.0,0.0,0.0,0.0,0.0,0.0,0.0,0.0,0.0,0.0,0.0,0.0,0.0,0.0,0.0,0.0,0.0,0.0,0.0,0.0,0.0,0.0,0.0,0.0,0.0,0.0,0.0,0.0,0.0,0.0,0.0,0.0,0.0,0.0,0.0,0.0,0.0,0.0,0.0,0.0,0.0,0.0,0.0,0.0,0.0,0.0,0.0,0.0,0.0,0.0,0.0,0.0,0.0,0.0,0.0,0.0,0.0,0.0,0.0,0.0,0.0,0.0,0.0,0.0,0.0,0.0,0.0,0.0,0.0,0.0,0.0,0.0,0.0,0.0,0.0,0.0,0.0,0.0,0.0,0.0,0.0,0.0,0.0,0.0,0.0,0.0,0.0,0.0,0.0,0.0,0.0,0.0,0.0,0.0,0.0,0.0,0.0,0.0,0.0,0.0,0.0,0.0,0.0,0.0,0.0,0.0,0.0,0.0,0.0,0.0,0.0,0.0,0.0,0.0,0.0,0.0,0.0,0.0,0.0,0.0,0.0,0.0,0.0,0.0,0.0,0.0,0.0,0.0,0.0,0.0,0.0,0.0,0.0,0.0,0.0,0.0,0.0,0.0,0.0,0.0,0.0,0.0,0.0,0.0,0.0,0.0,0.0,0.0,0.0,0.0,0.0,0.0,0.0,0.0,0.0,0.0,0.0,0.0,0.0,0.0,0.0,0.0,0.0,0.0,0.0,0.0,0.0,0.0,0.0,0.0,0.0,0.0,0.0,0.0,0.0,0.0,0.0,0.0,0.0,0.0,0.0,0.0,0.0,0.0,0.0,0.0,0.0,0.0,0.0,0.0,0.0,0.0,0.0,0.0,0.0,0.0,0.0,0.0,0.0,0.0,0.0,0.0,0.0,0.0,0.0,0.0,0.0,0.0,0.0,0.0,0.0,0.0,0.0,0.0,0.0,0.0,0.0,0.0,0.0,0.0,0.0,0.0,0.0,0.0,0.0,0.0,0.0,0.0,0.0,0.0,0.0,0.0,0.0,0.0,0.0,0.0,0.0,0.0,0.0,0.0,0.0,0.0,0.0,0.0,0.0,0.0,0.0,0.0,0.0,0.0,0.0,0.0,0.0,0.0,0.0,0.0,0.0,0.0,0.0,0.0,0.0,0.0,0.0,0.0,0.0,0.0,0.0,0.0,0.0,0.0,0.0,0.0,0.0,0.0,0.0,0.0,0.0,0.0,0.0,0.0,0.0,0.0,0.0,0.0,0.0,0.0,0.0,0.0,0.0,0.0,0.0,0.0,0.0,0.0,0.0,0.0,0.0,0.0,0.0,0.0,0.0,0.0,0.0,0.0,0.0,0.0,0.0,0.0,0.0,0.0,0.0,0.0,0.0,0.0,0.0,0.0,0.0,0.0,0.0,0.0,0.0,0.0,0.0,0.0,0.0,0.0,0.0,0.0,0.0,0.0,0.0,0.0,0.0,0.0,0.0,0.0,0.0,0.0,0.0,0.0,0.0,0.0,0.0,0.0,0.0,0.0,0.0,0.0,0.0,0.0,0.0,0.0,0.0,0.0,0.0,0.0,0.0,0.0,0.0,0.0,0.0,0.0,0.0,0.0,0.0,0.0,0.0,0.0,0.0,0.0,0.0,0.0,0.0,0.0,0.0,0.0,0.0,0.0,0.0,0.0,0.0,0.0,0.0,0.0,0.0,0.0,0.0,0.0,0.0,0.0,0.0,0.0,0.0,0.0,0.0,0.0,0.0,0.0,0.0,0.0,0.0,0.0,0.0,0.0,0.0,0.0,0.0,0.0,0.0,0.0,0.0,0.0,0.0,0.0,0.0,0.0,0.0,0.0,0.0,0.0,0.0,0.0,0.0,0.0,0.0,0.0,0.0,0.0,0.0,0.0,0.0,0.0,0.0,0.0,0.0,0.0,0.0,0.0,0.0,0.0,0.0,0.0,0.0,0.0,0.0,0.0,0.0,0.0,0.0,0.0,0.0,0.0,0.0,0.0,0.0,0.0,0.0,0.0,0.0,0.0,0.0,0.0,0.0,0.0,0.0,0.0,0.0,0.0,0.0,0.0,0.0,0.0,0.0,0.0,0.0,0.0,0.0,0.0,0.0,0.0,0.0,0.0,0.0,0.0,0.0,0.0,0.0,0.0,0.0,0.0,0.0,0.0,0.0,0.0,0.0,0.0,0.0,0.0,0.0,0.0,0.0,0.0,0.0,0.0,0.0,0.0,0.0,0.0,0.0,0.0,0.0,0.0,0.0,0.0,0.0,0.0,0.0,0.0,0.0,0.0,0.0,0.0,0.0,0.0,0.0,0.0,0.0,0.0,0.0,0.0,0.0,0.0,0.0,0.0,0.0,0.0,0.0,0.0,0.0,0.0,0.0,0.0,0.0,0.0,0.0,0.0,0.0,0.0,0.0,0.0,0.0,0.0,0.0,0.0,0.0,0.0,0.0,0.0,0.0,0.0,0.0,0.0,0.0,0.0,0.0,0.0,0.0,0.0,0.0,0.0,0.0,0.0,0.0,-1.0767,0.0,0.0,0.0,0.0,0.0,0.0,0.0,0.0,0.0,0.0,0.0,0.0,0.0,0.0,0.0,0.0,0.0,0.0,0.0,0.0,0.0,0.0,0.0,0.0,0.0,0.0,0.0,0.0,0.0,0.0,0.0,0.0,0.0,0.0,0.0,0.0,0.0,0.0,0.0,0.0,0.0,0.0,0.0,0.0,0.0,0.0,0.0,0.0,0.0,0.0,0.0,0.0,0.0,0.0,0.0,0.0,0.0,0.0,0.0,0.0,0.0,0.0,0.0,0.0,0.0,0.0,0.0,0.0,0.0,0.0,0.0,0.0,0.0,0.0,0.0,0.0,0.0,0.0,0.0,0.0,0.0,0.0,0.0,0.0,0.0,0.0,0.0,0.0,0.0,0.0,0.0,0.0,0.0,0.0,0.0,0.0,0.0,0.0,0.0,0.0,0.0,0.0,0.0,0.0,0.0,0.0,0.0,0.0,0.0,0.0,-1.0712,-1.0694,-0.9946,-0.9932,-1.0762,0.0,0.0,0.0,0.0,0.0,0.0,0.0,0.0,0.0,0.0,0.0,0.0,0.0,0.0,0.0,0.0,0.0,0.0,0.0,0.0,0.0,0.0,0.0,0.0,0.0,0.0,0.0,0.0,0.0,0.0,0.0,0.0,0.0,0.0,0.0,0.0,0.0,0.0,0.0,0.0,0.0,0.0,0.0,0.0,0.0,0.0,0.0,0.0,0.0,0.0,0.0,0.0,0.0,0.0,0.0,0.0,0.0,0.0,0.0,0.0,0.0,0.0,0.0,0.0,0.0,0.0,0.0,0.0,0.0,0.0,0.0,0.0,0.0,0.0,0.0,0.0,0.0,0.0,0.0,0.0,0.0,0.0,0.0,0.0,0.0,0.0,0.0,0.0,0.0,0.0,0.0,0.0,0.0,0.0,0.0,0.0,0.0,0.0,0.0,0.0,0.0,0.0,0.0,0.0,0.0,0.0,0.0,0.0,0.0,0.0,0.0,0.0,-1.0453,-1.0444,-1.1297,0.0,0.0,0.0,0.0,0.0,0.0,0.0,0.0,0.0,0.0,0.0,0.0,0.0,0.0,0.0,0.0,0.0,0.0,0.0,0.0,0.0,0.0,0.0,0.0,0.0,0.0,0.0,0.0,0.0,0.0,0.0,0.0,0.0,0.0,0.0,0.0,0.0,0.0,0.0,0.0,0.0,0.0,0.0,0.0,0.0,0.0,0.0,0.0,0.0,0.0,0.0,0.0,0.0,0.0,0.0,0.0,0.0,0.0,0.0,0.0,0.0,0.0,0.0,0.0,0.0,0.0,0.0,0.0,0.0,0.0,0.0,0.0,0.0,0.0,0.0,0.0,0.0,0.0,0.0,0.0,0.0,0.0,0.0,0.0,0.0,0.0,0.0,0.0,0.0,0.0,0.0,0.0,0.0,0.0,0.0,0.0,0.0,0.0,0.0,0.0,0.0,0.0,0.0,0.0,0.0,0.0,0.0,0.0,0.0,0.0,-1.1396,-1.2821,-1.2091,0.0,-1.2821,0.0,0.0,0.0,0.0,0.0,0.0,0.0,0.0,0.0,0.0,0.0,0.0,0.0,0.0,0.0,0.0,0.0,0.0,0.0,0.0,0.0,0.0,0.0,0.0,0.0,0.0,0.0,0.0,0.0,0.0,0.0,0.0,0.0,0.0,0.0,0.0,0.0,0.0,0.0,0.0,0.0,0.0,0.0,0.0,0.0,0.0,0.0,0.0,0.0,0.0,0.0,0.0,0.0,0.0,0.0,0.0,0.0,0.0,0.0,0.0,0.0,0.0,0.0,0.0,0.0,0.0,0.0,0.0,0.0,0.0,0.0,0.0,0.0,0.0,0.0,0.0,0.0,0.0,0.0,0.0,0.0,0.0,0.0,0.0,0.0,0.0,0.0,0.0,0.0,0.0,0.0,0.0,0.0,0.0,0.0,0.0,0.0,0.0,0.0,0.0,0.0,0.0,0.0,0.0,0.0,0.0,0.0,0.0,0.0,0.0,0.0,-1.3087,-1.2785,-1.2555,0.0,0.0,0.0,0.0,0.0,0.0,0.0,0.0,0.0,0.0,0.0,0.0,0.0,0.0,0.0,0.0,0.0,0.0,0.0,0.0,0.0,0.0,0.0,0.0,0.0,0.0,0.0,0.0,0.0,0.0,0.0,0.0,0.0,0.0,0.0,0.0,0.0,0.0,0.0,0.0,0.0,0.0,0.0,0.0,0.0,0.0,0.0,0.0,0.0,0.0,0.0,0.0,0.0,0.0,0.0,0.0,0.0,0.0,0.0,0.0,0.0,0.0,0.0,0.0,0.0,0.0,0.0,0.0,0.0,0.0,0.0,0.0,0.0,0.0,0.0,0.0,0.0,0.0,0.0,0.0,0.0,0.0,0.0,0.0,0.0,0.0,0.0,0.0,0.0,0.0,0.0,0.0,0.0,0.0,0.0,0.0,0.0,0.0,0.0,0.0,0.0,0.0,0.0,0.0,0.0,0.0,0.0,0.0,0.0,0.0,-1.2562,0.0,-1.3702,-1.354,-1.296,-1.1939,0.0,0.0,0.0,0.0,0.0,0.0,0.0,0.0,0.0,0.0,0.0,0.0,0.0,0.0,0.0,0.0,0.0,0.0,0.0,0.0,0.0,0.0,0.0,0.0,0.0,0.0,0.0,0.0,0.0,0.0,0.0,0.0,0.0,0.0,0.0,0.0,0.0,0.0,0.0,0.0,0.0,0.0,0.0,0.0,0.0,0.0,0.0,0.0,0.0,0.0,0.0,0.0,0.0,0.0,0.0,0.0,0.0,0.0,0.0,0.0,0.0,0.0,0.0,0.0,0.0,0.0,0.0,0.0,0.0,0.0,0.0,0.0,0.0,0.0,0.0,0.0,0.0,0.0,0.0,0.0,0.0,0.0,0.0,0.0,0.0,0.0,0.0,0.0,0.0,0.0,0.0,0.0,0.0,0.0,0.0,0.0,0.0,0.0,0.0,0.0,0.0,0.0,0.0,0.0,0.0,0.0,0.0,0.0,0.0,-1.4186,-1.3847,-1.5325,-1.4637,-1.3527,0.0,0.0,0.0,0.0,0.0,0.0,0.0,0.0,0.0,0.0,0.0,0.0,0.0,0.0,0.0,0.0,0.0,0.0,0.0,0.0,0.0,0.0,0.0,0.0,0.0,0.0,0.0,0.0,0.0,0.0,0.0,0.0,0.0,0.0,0.0,0.0,0.0,0.0,0.0,0.0,0.0,0.0,0.0,0.0,0.0,0.0,0.0,0.0,0.0,0.0,0.0,0.0,0.0,0.0,0.0,0.0,0.0,0.0,0.0,0.0,0.0,0.0,0.0,0.0,0.0,0.0,0.0,0.0,0.0,0.0,0.0,0.0,0.0,0.0,0.0,0.0,0.0,0.0,0.0,0.0,0.0,0.0,0.0,0.0,0.0,0.0,0.0,0.0,0.0,0.0,0.0,0.0,0.0,0.0,0.0,0.0,0.0,0.0,0.0,0.0,0.0,0.0,0.0,0.0,0.0,0.0,0.0,0.0,0.0,-1.2014,-1.2725,-1.436,-1.6841,-1.4777,-1.3485,0.0,0.0,0.0,0.0,0.0,0.0,0.0,0.0,0.0,0.0,0.0,0.0,0.0,0.0,0.0,0.0,0.0,0.0,0.0,0.0,0.0,0.0,0.0,0.0,0.0,0.0,0.0,0.0,0.0,0.0,0.0,0.0,0.0,0.0,0.0,0.0,0.0,0.0,0.0,0.0,0.0,0.0,0.0,0.0,0.0,0.0,0.0,0.0,0.0,0.0,0.0,0.0,0.0,0.0,0.0,0.0,0.0,0.0,0.0,0.0,0.0,0.0,0.0,0.0,0.0,0.0,0.0,0.0,0.0,0.0,0.0,0.0,0.0,0.0,0.0,0.0,0.0,0.0,0.0,0.0,0.0,0.0,0.0,0.0,0.0,0.0,0.0,0.0,0.0,0.0,0.0,0.0,0.0,0.0,0.0,0.0,0.0,0.0,0.0,0.0,0.0,0.0,0.0,0.0,0.0,0.0,0.0,0.0,0.0,-1.2231,0.0,-1.6117,0.0,-1.5157,-1.3546,0.0,0.0,0.0,0.0,0.0,0.0,0.0,0.0,0.0,0.0,0.0,0.0,0.0,0.0,0.0,0.0,0.0,0.0,0.0,0.0,0.0,0.0,0.0,0.0,0.0,0.0,0.0,0.0,0.0,0.0,0.0,0.0,0.0,0.0,0.0,0.0,0.0,0.0,0.0,0.0,0.0,0.0,0.0,0.0,0.0,0.0,0.0,0.0,0.0,0.0,0.0,0.0,0.0,0.0,0.0,0.0,0.0,0.0,0.0,0.0,0.0,0.0,0.0,0.0,0.0,0.0,0.0,0.0,0.0,0.0,0.0,0.0,0.0,0.0,0.0,0.0,0.0,0.0,0.0,0.0,0.0,0.0,0.0,0.0,0.0,0.0,0.0,0.0,0.0,0.0,0.0,0.0,0.0,0.0,0.0,0.0,0.0,0.0,0.0,0.0,0.0,0.0,0.0,0.0,0.0,0.0,0.0,0.0,-1.3799,-1.7555,-1.915,-1.8761,-1.6802,-1.5809,-1.3564,0.0,0.0,0.0,0.0,0.0,0.0,0.0,0.0,0.0,0.0,0.0,0.0,0.0,0.0,0.0,0.0,0.0,0.0,0.0,0.0,0.0,0.0,0.0,0.0,0.0,0.0,0.0,0.0,0.0,0.0,0.0,0.0,0.0,0.0,0.0,0.0,0.0,0.0,0.0,0.0,0.0,0.0,0.0,0.0,0.0,0.0,0.0,0.0,0.0,0.0,0.0,0.0,0.0,0.0,0.0,0.0,0.0,0.0,0.0,0.0,0.0,0.0,0.0,0.0,0.0,0.0,0.0,0.0,0.0,0.0,0.0,0.0,0.0,0.0,0.0,0.0,0.0,0.0,0.0,0.0,0.0,0.0,0.0,0.0,0.0,0.0,0.0,0.0,0.0,0.0,0.0,0.0,0.0,0.0,0.0,0.0,0.0,0.0,0.0,0.0,0.0,0.0,0.0,0.0,0.0,0.0,0.0,0.0,0.0,-1.4596,-1.5621,-1.6606,-1.7374,-1.4596,-1.296,0.0,0.0,0.0,0.0,0.0,0.0,0.0,0.0,0.0,0.0,0.0,0.0,0.0,0.0,0.0,0.0,0.0,0.0,0.0,0.0,0.0,0.0,0.0,0.0,0.0,0.0,0.0,0.0,0.0,0.0,0.0,0.0,0.0,0.0,0.0,0.0,0.0,0.0,0.0,0.0,0.0,0.0,0.0,0.0,0.0,0.0,0.0,0.0,0.0,0.0,0.0,0.0,0.0,0.0,0.0,0.0,0.0,0.0,0.0,0.0,0.0,0.0,0.0,0.0,0.0,0.0,0.0,0.0,0.0,0.0,0.0,0.0,0.0,0.0,0.0,0.0,0.0,0.0,0.0,0.0,0.0,0.0,0.0,0.0,0.0,0.0,0.0,0.0,0.0,0.0,0.0,0.0,0.0,0.0,0.0,0.0,0.0,0.0,0.0,0.0,0.0,0.0,0.0,0.0,0.0,0.0,0.0,0.0,0.0,-1.7167,-1.8181,-1.9159,-2.0074,-1.6813,-1.465,-1.3829,0.0,0.0,0.0,0.0,0.0,0.0,0.0,0.0,0.0,0.0,0.0,0.0,0.0,0.0,0.0,0.0,0.0,0.0,0.0,0.0,0.0,0.0,0.0,0.0,0.0,0.0,0.0,0.0,0.0,0.0,0.0,0.0,0.0,0.0,0.0,0.0,0.0,0.0,0.0,0.0,0.0,0.0,0.0,0.0,0.0,0.0,0.0,0.0,0.0,0.0,0.0,0.0,0.0,0.0,0.0,0.0,0.0,0.0,0.0,0.0,0.0,0.0,0.0,0.0,0.0,0.0,0.0,0.0,0.0,0.0,0.0,0.0,0.0,0.0,0.0,0.0,0.0,0.0,0.0,0.0,0.0,0.0,0.0,0.0,0.0,0.0,0.0,0.0,0.0,0.0,0.0,0.0,0.0,0.0,0.0,0.0,0.0,0.0,0.0,0.0,0.0,0.0,0.0,0.0,0.0,0.0,0.0,0.0,-2.4124,-2.5751,-2.5733,-2.4077,-2.1604,-1.8163,0.0,0.0,0.0,0.0,0.0,0.0,0.0,0.0,0.0,0.0,0.0,0.0,0.0,0.0,0.0,0.0,0.0,0.0,0.0,0.0,0.0,0.0,0.0,0.0,0.0,0.0,0.0,0.0,0.0,0.0,0.0,0.0,0.0,0.0,0.0,0.0,0.0,0.0,0.0,0.0,0.0,0.0,0.0,0.0,0.0,0.0,0.0,0.0,0.0,0.0,0.0,0.0,0.0,0.0,0.0,0.0,0.0,0.0,0.0,0.0,0.0,0.0,0.0,0.0,0.0,0.0,0.0,0.0,0.0,0.0,0.0,0.0,0.0,0.0,0.0,0.0,0.0,0.0,0.0,0.0,0.0,0.0,0.0,0.0,0.0,0.0,0.0,0.0,0.0,0.0,0.0,0.0,0.0,0.0,0.0,0.0,0.0,0.0,0.0,0.0,0.0,0.0,0.0,0.0,0.0,0.0,0.0,0.0,0.0,-2.7242,-3.0097,-3.0188,-2.7369,-2.335,-1.9775,0.0,0.0,0.0,0.0,0.0,0.0,0.0,0.0,0.0,0.0,0.0,0.0,0.0,0.0,0.0,0.0,0.0,0.0,0.0,0.0,0.0,0.0,0.0,0.0,0.0,0.0,0.0,0.0,0.0,0.0,0.0,0.0,0.0,0.0,0.0,0.0,0.0,0.0,0.0,0.0,0.0,0.0,0.0,0.0,0.0,0.0,0.0,0.0,0.0,0.0,0.0,0.0,0.0,0.0,0.0,0.0,0.0,0.0,0.0,0.0,0.0,0.0,0.0,0.0,0.0,0.0,0.0,0.0,0.0,0.0,0.0,0.0,0.0,0.0,0.0,0.0,0.0,0.0,0.0,0.0,0.0,0.0,0.0,0.0,0.0,0.0,0.0,0.0,0.0,0.0,0.0,0.0,0.0,0.0,0.0,0.0,0.0,0.0,0.0,0.0,0.0,0.0,0.0,0.0,0.0,0.0,0.0,0.0,-2.5295,-2.9541,-3.3411,-3.4371,-3.218,-2.6856,-2.2546,0.0,0.0,0.0,0.0,0.0,0.0,0.0,0.0,0.0,0.0,0.0,0.0,0.0,0.0,0.0,0.0,0.0,0.0,0.0,0.0,0.0,0.0,0.0,0.0,0.0,0.0,0.0,0.0,0.0,0.0,0.0,0.0,0.0,0.0,0.0,0.0,0.0,0.0,0.0,0.0,0.0,0.0,0.0,0.0,0.0,0.0,0.0,0.0,0.0,0.0,0.0,0.0,0.0,0.0,0.0,0.0,0.0,0.0,0.0,0.0,0.0,0.0,0.0,0.0,0.0,0.0,0.0,0.0,0.0,0.0,0.0,0.0,0.0,0.0,0.0,0.0,0.0,0.0,0.0,0.0,0.0,0.0,0.0,0.0,0.0,0.0,0.0,0.0,0.0,0.0,0.0,0.0,0.0,0.0,0.0,0.0,0.0,0.0,0.0,0.0,0.0,0.0,0.0,0.0,0.0,0.0,0.0,0.0,-2.7949,-3.122,-3.5799,-3.7865,-3.6977,-3.0894,-2.574,0.0,0.0,0.0,0.0,0.0,0.0,0.0,0.0,0.0,0.0,0.0,0.0,0.0,0.0,0.0,0.0,0.0,0.0,0.0,0.0,0.0,0.0,0.0,0.0,0.0,0.0,0.0,0.0,0.0,0.0,0.0,0.0,0.0,0.0,0.0,0.0,0.0,0.0,0.0,0.0,0.0,0.0,0.0,0.0,0.0,0.0,0.0,0.0,0.0,0.0,0.0,0.0,0.0,0.0,0.0,0.0,0.0,0.0,0.0,0.0,0.0,0.0,0.0,0.0,0.0,0.0,0.0,0.0,0.0,0.0,0.0,0.0,0.0,0.0,0.0,0.0,0.0,0.0,0.0,0.0,0.0,0.0,0.0,0.0,0.0,0.0,0.0,0.0,0.0,0.0,0.0,0.0,0.0,0.0,0.0,0.0,0.0,0.0,0.0,0.0,0.0,0.0,0.0,0.0,0.0,0.0,0.0,0.0,-3.0188,-3.2853,-3.6345,-3.8136,-3.7919,-3.1709,-2.7061,0.0,0.0,0.0,0.0,0.0,0.0,0.0,0.0,0.0,0.0,0.0,0.0,0.0,0.0,0.0,0.0,0.0,0.0,0.0,0.0,0.0,0.0,0.0,0.0,0.0,0.0,0.0,0.0,0.0,0.0,0.0,0.0,0.0,0.0,0.0,0.0,0.0,0.0,0.0,0.0,0.0,0.0,0.0,0.0,0.0,0.0,0.0,0.0,-1.2715,0.0,0.0,0.0,0.0,0.0,0.0,0.0,0.0,0.0,0.0,0.0,0.0,0.0,0.0,0.0,0.0,0.0,0.0,0.0,0.0,0.0,0.0,0.0,0.0,0.0,0.0,0.0,0.0,0.0,0.0,0.0,0.0,0.0,0.0,0.0,0.0,0.0,0.0,0.0,0.0,0.0,0.0,0.0,0.0,0.0,0.0,0.0,0.0,0.0,0.0,0.0,0.0,0.0,0.0,0.0,0.0,0.0,0.0,0.0,-3.0689,-3.3918,-3.6725,-3.8209,-3.8028,-3.3429,-2.936,0.0,0.0,0.0,0.0,0.0,0.0,0.0,0.0,0.0,0.0,0.0,0.0,0.0,0.0,0.0,0.0,0.0,0.0,0.0,0.0,0.0,0.0,0.0,0.0,0.0,0.0,0.0,0.0,0.0,0.0,0.0,0.0,0.0,0.0,0.0,0.0,0.0,0.0,0.0,0.0,0.0,0.0,0.0,0.0,0.0,0.0,0.0,0.0,0.0,0.0,0.0,0.0,0.0,0.0,0.0,0.0,0.0,0.0,0.0,0.0,0.0,0.0,0.0,0.0,0.0,0.0,0.0,0.0,0.0,0.0,0.0,0.0,0.0,0.0,0.0,0.0,0.0,0.0,0.0,0.0,0.0,0.0,0.0,0.0,0.0,0.0,0.0,0.0,0.0,0.0,0.0,0.0,0.0,0.0,0.0,0.0,0.0,0.0,0.0,0.0,0.0,0.0,0.0,0.0,0.0,0.0,0.0,-2.6604,-3.0866,-3.5186,-3.7341,-3.8336,-3.8172,-3.5204,-3.1709,-2.7713,0.0,0.0,0.0,0.0,0.0,0.0,0.0,0.0,0.0,0.0,0.0,0.0,0.0,0.0,0.0,0.0,0.0,0.0,0.0,0.0,0.0,0.0,0.0,0.0,0.0,0.0,0.0,0.0,0.0,0.0,0.0,0.0,0.0,0.0,0.0,0.0,0.0,0.0,-0.9412,-1.1811,0.0,0.0,0.0,0.0,0.0,0.0,0.0,0.0,-1.3709,0.0,0.0,0.0,0.0,0.0,0.0,0.0,0.0,0.0,0.0,0.0,0.0,0.0,0.0,0.0,0.0,0.0,0.0,0.0,0.0,0.0,0.0,0.0,0.0,0.0,0.0,0.0,0.0,0.0,0.0,0.0,0.0,0.0,0.0,0.0,0.0,0.0,0.0,0.0,0.0,0.0,0.0,0.0,0.0,0.0,0.0,0.0,0.0,0.0,0.0,0.0,0.0,0.0,0.0,0.0,0.0,-2.7211,-2.8827,-3.2506,-3.8427,-3.8989,-3.8897,-3.8172,-3.5729,-3.2509,-2.8473,0.0,0.0,0.0,0.0,0.0,0.0,0.0,0.0,0.0,0.0,0.0,0.0,0.0,0.0,0.0,0.0,0.0,0.0,0.0,0.0,0.0,0.0,0.0,0.0,0.0,0.0,0.0,0.0,0.0,0.0,0.0,0.0,0.0,0.0,0.0,0.0,0.0,0.0,0.0,-1.4357,-1.4677,0.0,0.0,0.0,0.0,0.0,0.0,0.0,0.0,-1.5011,0.0,0.0,0.0,0.0,0.0,0.0,0.0,0.0,0.0,0.0,0.0,0.0,0.0,0.0,0.0,0.0,0.0,0.0,0.0,0.0,0.0,0.0,0.0,0.0,0.0,0.0,0.0,0.0,0.0,0.0,0.0,0.0,0.0,0.0,0.0,0.0,0.0,0.0,0.0,0.0,0.0,0.0,0.0,0.0,0.0,0.0,0.0,0.0,0.0,0.0,0.0,0.0,0.0,0.0,0.0,-2.6995,-3.0161,-3.4172,-3.917,-3.9006,-3.8572,-3.8154,-3.5457,-3.2292,0.0,0.0,0.0,0.0,0.0,0.0,0.0,0.0,0.0,0.0,0.0,0.0,0.0,0.0,0.0,0.0,0.0,0.0,0.0,0.0,0.0,0.0,0.0,0.0,0.0,0.0,0.0,0.0,0.0,0.0,0.0,0.0,0.0,0.0,0.0,0.0,0.0,0.0,0.0,0.0,-1.6528,-1.7235,-1.9436,0.0,0.0,0.0,0.0,0.0,0.0,-1.6974,-1.5753,0.0,0.0,0.0,0.0,0.0,0.0,0.0,0.0,0.0,0.0,0.0,0.0,0.0,0.0,0.0,0.0,0.0,0.0,0.0,0.0,0.0,0.0,0.0,0.0,0.0,0.0,0.0,0.0,0.0,0.0,0.0,0.0,0.0,0.0,0.0,0.0,0.0,0.0,0.0,0.0,0.0,0.0,0.0,0.0,0.0,0.0,0.0,0.0,0.0,0.0,0.0,0.0,0.0,0.0,0.0,-2.6742,-3.116,-3.5439,-3.9351,-3.8861,-3.8372,-3.8154,-3.4751,-3.1492,0.0,0.0,0.0,0.0,0.0,0.0,0.0,0.0,0.0,0.0,0.0,0.0,0.0,0.0,0.0,0.0,0.0,0.0,0.0,0.0,0.0,0.0,0.0,0.0,0.0,0.0,0.0,0.0,0.0,0.0,0.0,0.0,0.0,0.0,0.0,0.0,0.0,0.0,0.0,0.0,0.0,-1.9736,-2.1967,-1.9578,0.0,0.0,0.0,0.0,-1.8449,-1.7983,0.0,0.0,0.0,0.0,0.0,0.0,0.0,0.0,0.0,0.0,0.0,0.0,0.0,0.0,0.0,0.0,0.0,0.0,0.0,0.0,0.0,0.0,0.0,0.0,0.0,0.0,0.0,0.0,0.0,0.0,0.0,0.0,0.0,0.0,0.0,0.0,0.0,0.0,0.0,0.0,0.0,0.0,0.0,0.0,0.0,0.0,0.0,0.0,0.0,0.0,0.0,0.0,0.0,0.0,0.0,0.0,-2.9065,-3.1992,-3.5675,-4.0039,-3.9623,-3.8898,-3.8172,-3.3716,-3.0097,0.0,0.0,0.0,0.0,0.0,0.0,0.0,0.0,0.0,0.0,0.0,0.0,0.0,0.0,0.0,0.0,0.0,0.0,0.0,0.0,0.0,0.0,0.0,0.0,0.0,0.0,0.0,0.0,0.0,0.0,0.0,0.0,0.0,0.0,0.0,0.0,0.0,0.0,0.0,0.0,0.0,-2.0777,-2.2191,-1.994,-1.8053,0.0,0.0,-2.0969,-2.1201,-2.2061,0.0,0.0,0.0,0.0,0.0,0.0,0.0,0.0,0.0,0.0,0.0,0.0,0.0,0.0,0.0,0.0,0.0,0.0,0.0,0.0,0.0,0.0,0.0,0.0,0.0,0.0,0.0,0.0,0.0,0.0,0.0,0.0,0.0,0.0,0.0,0.0,0.0,0.0,0.0,0.0,0.0,0.0,0.0,0.0,0.0,0.0,0.0,0.0,0.0,0.0,0.0,0.0,0.0,0.0,0.0,-2.3815,-2.8974,-3.3707,-3.7359,-3.9749,-3.9115,-3.8571,-3.8209,-3.31,-2.9409,0.0,0.0,0.0,0.0,0.0,0.0,0.0,0.0,0.0,0.0,0.0,0.0,0.0,0.0,0.0,0.0,0.0,0.0,0.0,0.0,0.0,0.0,0.0,0.0,0.0,0.0,0.0,0.0,0.0,0.0,0.0,0.0,0.0,0.0,0.0,0.0,0.0,0.0,0.0,0.0,0.0,0.0,-2.2643,-2.1294,0.0,0.0,0.0,-2.2056,-2.077,0.0,0.0,0.0,0.0,0.0,0.0,0.0,0.0,0.0,0.0,0.0,0.0,0.0,0.0,0.0,0.0,0.0,0.0,0.0,0.0,0.0,0.0,0.0,0.0,0.0,0.0,0.0,0.0,0.0,0.0,0.0,0.0,0.0,0.0,0.0,0.0,0.0,0.0,0.0,0.0,0.0,0.0,0.0,0.0,0.0,0.0,0.0,0.0,0.0,0.0,0.0,0.0,0.0,0.0,0.0,0.0,0.0,-2.8843,-3.5007,-3.8607,-3.9368,-3.8608,-3.8209,-3.8136,-3.3516,0.0,0.0,0.0,0.0,0.0,0.0,0.0,0.0,0.0,0.0,0.0,0.0,0.0,0.0,0.0,0.0,0.0,0.0,0.0,0.0,0.0,0.0,0.0,0.0,0.0,0.0,0.0,-0.9396,0.0,0.0,0.0,0.0,0.0,0.0,0.0,0.0,0.0,0.0,0.0,0.0,0.0,0.0,-2.2359,-2.292,-2.2531,-2.2517,0.0,0.0,-2.2755,-2.1398,-2.3861,-2.3905,0.0,0.0,0.0,0.0,0.0,0.0,0.0,0.0,0.0,0.0,0.0,0.0,0.0,0.0,0.0,0.0,0.0,0.0,0.0,0.0,0.0,0.0,0.0,0.0,0.0,0.0,0.0,0.0,0.0,0.0,0.0,0.0,0.0,0.0,0.0,0.0,0.0,0.0,0.0,0.0,0.0,0.0,0.0,0.0,0.0,0.0,0.0,0.0,0.0,0.0,0.0,0.0,0.0,0.0,0.0,-2.973,-3.5328,-3.8572,-3.9351,-3.8608,-3.8209,-3.8156,-3.5657,-3.1763,0.0,0.0,0.0,0.0,0.0,0.0,0.0,0.0,0.0,0.0,0.0,0.0,0.0,0.0,0.0,0.0,0.0,0.0,0.0,0.0,0.0,0.0,0.0,0.0,0.0,0.0,0.0,0.0,0.0,0.0,0.0,0.0,0.0,0.0,0.0,0.0,0.0,0.0,0.0,0.0,0.0,-2.3287,-2.2798,-2.3152,-2.4148,0.0,0.0,-2.3314,-2.4941,-2.6456,-2.585,-2.1111,0.0,0.0,0.0,0.0,0.0,0.0,0.0,0.0,0.0,0.0,0.0,0.0,0.0,0.0,0.0,0.0,0.0,0.0,0.0,0.0,0.0,0.0,0.0,0.0,0.0,0.0,0.0,0.0,0.0,0.0,0.0,0.0,0.0,0.0,0.0,0.0,0.0,0.0,0.0,0.0,0.0,0.0,0.0,0.0,0.0,0.0,0.0,0.0,0.0,0.0,0.0,0.0,0.0,-2.5817,-2.9784,-3.5346,-3.8589,-3.9333,-3.9079,-3.8952,-3.8952,-3.6598,-3.2926,0.0,0.0,0.0,0.0,0.0,0.0,0.0,0.0,0.0,0.0,0.0,0.0,0.0,0.0,0.0,0.0,0.0,0.0,0.0,0.0,0.0,0.0,0.0,0.0,0.0,0.0,0.0,0.0,-1.7058,-1.6685,-1.4443,0.0,0.0,0.0,0.0,0.0,0.0,0.0,0.0,0.0,0.0,-2.3954,-2.4979,-2.5285,0.0,0.0,-2.6357,-2.5548,-2.5038,-2.6452,-2.5893,-2.0887,-1.966,0.0,0.0,0.0,0.0,0.0,0.0,0.0,0.0,0.0,0.0,0.0,0.0,0.0,0.0,0.0,0.0,0.0,0.0,0.0,0.0,0.0,0.0,0.0,0.0,0.0,0.0,0.0,0.0,0.0,0.0,0.0,0.0,0.0,0.0,0.0,0.0,0.0,0.0,0.0,0.0,0.0,0.0,0.0,0.0,0.0,0.0,0.0,0.0,0.0,0.0,0.0,0.0,-2.6016,-2.9784,-3.5582,-3.8952,-3.9713,-3.9731,-3.9731,-3.9677,-3.7866,-3.4733,0.0,0.0,0.0,0.0,0.0,0.0,0.0,0.0,0.0,0.0,0.0,0.0,0.0,0.0,0.0,0.0,0.0,0.0,0.0,0.0,0.0,0.0,0.0,0.0,0.0,0.0,0.0,0.0,-1.8044,-1.7425,-1.5089,0.0,0.0,0.0,0.0,0.0,0.0,0.0,0.0,0.0,0.0,-2.4777,-2.5585,-2.6198,-2.6761,-2.724,-2.6626,-2.5863,-2.5023,-2.5749,-2.5084,-2.122,0.0,0.0,0.0,0.0,0.0,0.0,0.0,0.0,0.0,0.0,0.0,0.0,0.0,0.0,0.0,0.0,0.0,0.0,0.0,0.0,0.0,0.0,0.0,0.0,0.0,0.0,0.0,0.0,0.0,0.0,-1.4776,0.0,0.0,0.0,0.0,0.0,0.0,0.0,0.0,0.0,0.0,0.0,0.0,0.0,0.0,0.0,0.0,0.0,0.0,0.0,0.0,0.0,0.0,-2.6566,-2.9839,-3.6125,-3.9731,-4.0456,-4.0474,-4.0474,-4.0456,-3.9713,-3.7395,-3.3321,0.0,0.0,0.0,0.0,0.0,0.0,0.0,0.0,0.0,0.0,0.0,0.0,0.0,0.0,0.0,0.0,0.0,0.0,0.0,0.0,0.0,0.0,0.0,0.0,0.0,0.0,-1.0887,-1.3349,-1.5689,0.0,0.0,0.0,0.0,0.0,0.0,0.0,0.0,0.0,0.0,-2.2796,-2.5824,-2.4014,-2.5345,-2.6617,-2.6677,-2.456,-2.3511,-2.53,-2.4537,-2.3452,0.0,0.0,0.0,0.0,0.0,0.0,0.0,0.0,0.0,0.0,0.0,0.0,0.0,0.0,0.0,0.0,0.0,0.0,0.0,0.0,0.0,0.0,0.0,0.0,0.0,0.0,0.0,-1.9936,-1.9469,0.0,0.0,0.0,0.0,0.0,0.0,0.0,0.0,0.0,0.0,0.0,-2.9007,-2.9023,0.0,0.0,0.0,0.0,0.0,0.0,0.0,0.0,0.0,0.0,0.0,0.0,-2.7109,-3.1401,-3.6671,-4.0021,-4.1252,-4.1288,-4.1288,-4.1288,-4.0528,-3.7757,-3.2741,0.0,0.0,0.0,0.0,0.0,0.0,0.0,0.0,0.0,0.0,0.0,0.0,0.0,0.0,0.0,0.0,0.0,0.0,0.0,0.0,0.0,0.0,0.0,0.0,0.0,-1.5637,0.0,0.0,0.0,0.0,0.0,0.0,0.0,0.0,0.0,0.0,0.0,-1.9271,-2.0812,-2.3468,-2.5196,-2.4956,-2.5884,-2.7051,0.0,0.0,0.0,0.0,0.0,0.0,0.0,0.0,0.0,0.0,0.0,0.0,0.0,0.0,-2.1798,-1.7389,-1.6746,-1.713,-1.7892,0.0,0.0,0.0,0.0,0.0,0.0,0.0,0.0,0.0,0.0,0.0,0.0,0.0,0.0,-2.562,0.0,-2.3828,0.0,0.0,0.0,0.0,0.0,0.0,0.0,0.0,-3.0749,-3.2958,-3.4679,-3.4697,-3.4697,0.0,-3.2238,-2.8141,0.0,0.0,0.0,0.0,0.0,0.0,0.0,0.0,-2.8498,-3.2234,-3.7486,-4.0818,-4.2049,-4.2122,-4.2122,-4.2103,-4.1053,-3.8427,-3.4024,-3.0043,-2.6711,0.0,0.0,0.0,0.0,0.0,0.0,0.0,0.0,0.0,0.0,0.0,0.0,0.0,0.0,0.0,0.0,0.0,0.0,0.0,0.0,0.0,0.0,0.0,-1.7021,0.0,0.0,0.0,0.0,0.0,0.0,0.0,0.0,0.0,-1.8978,-2.0197,-2.164,-2.3167,-2.4881,-2.5576,-2.4418,0.0,0.0,0.0,0.0,0.0,0.0,0.0,-2.3071,-2.2239,-2.2688,-2.3684,-2.539,-2.7045,-2.769,-2.6222,0.0,0.0,-2.0328,-1.9464,-1.9809,-2.0612,-2.0535,-2.0556,-2.1342,-2.1565,-2.1607,0.0,0.0,0.0,0.0,0.0,0.0,0.0,0.0,-3.305,-3.2902,0.0,-2.9464,0.0,0.0,0.0,0.0,0.0,-2.9223,0.0,0.0,-3.9695,-4.1633,-3.9658,-3.9568,-3.955,-3.9441,-3.7178,-3.5222,-3.3429,-2.8232,0.0,0.0,0.0,0.0,0.0,0.0,-3.0654,-3.2596,-3.8554,-4.2067,-4.2865,-4.2901,-4.2864,-4.2792,-4.1325,-3.9405,-3.7122,-3.4697,-3.1999,-2.8835,-2.4292,0.0,0.0,0.0,0.0,0.0,0.0,0.0,0.0,0.0,0.0,0.0,0.0,0.0,0.0,0.0,0.0,0.0,0.0,0.0,0.0,-1.5957,0.0,0.0,0.0,0.0,0.0,0.0,0.0,0.0,0.0,0.0,-2.0298,-2.2139,-2.3834,-2.4425,0.0,0.0,0.0,0.0,-2.5435,-2.2547,-2.1949,-2.2218,-2.2972,-2.3999,-2.5128,-2.6348,0.0,0.0,-2.9594,-2.9699,-2.9199,-2.7315,-2.842,-2.8708,-2.6133,-2.4313,-2.3649,-2.4462,-2.3259,-2.2234,-2.2964,-2.3228,-2.29,-4.2943,0.0,0.0,0.0,0.0,-3.5333,-3.6892,-3.9663,-3.8376,-3.7478,-3.6776,-3.527,0.0,0.0,0.0,0.0,0.0,0.0,-3.5315,-3.8483,-4.0347,-4.2031,-4.3607,-4.3607,-4.3607,-4.3552,-4.2321,-4.147,-4.0944,-3.8826,-3.3103,-2.4139,0.0,0.0,0.0,0.0,-3.1995,-3.6397,-3.9948,-4.2103,-4.2901,-4.2919,-4.2611,-4.2049,-4.1035,-3.9948,-3.8752,-3.6959,-3.4751,-3.2107,-2.9083,0.0,0.0,0.0,0.0,0.0,0.0,0.0,0.0,0.0,0.0,0.0,0.0,0.0,0.0,0.0,0.0,0.0,0.0,0.0,-1.7507,-1.9799,-2.0388,0.0,0.0,0.0,0.0,0.0,0.0,0.0,0.0,0.0,-2.45,-2.4043,-2.3505,0.0,0.0,-2.3385,-2.2538,-2.3999,-2.5525,-2.6467,-2.6213,0.0,0.0,-2.742,-2.6856,-2.7255,-2.9355,-3.0943,-3.0943,-3.2062,-3.2657,-3.1656,-3.1539,-3.0974,-2.9407,-2.8235,-2.7643,-2.7822,-2.7413,-2.7125,-2.7413,-2.74,-2.7295,-5.0941,-4.5231,-4.2267,-4.1152,-4.1317,-4.0937,-4.2466,-4.5145,-4.4066,-4.3465,-4.3137,-4.135,-3.9369,-3.7246,-3.5266,0.0,0.0,0.0,-3.908,-4.2863,-4.2882,-4.4077,-4.6178,-4.625,-4.625,-4.6214,-4.5436,-4.5055,-4.5019,-4.3281,-3.8645,-3.131,0.0,0.0,-2.9119,-3.1763,-3.4785,-3.8136,-4.0818,-4.2411,-4.2864,-4.2919,-4.2375,-4.1252,-4.0745,-3.9985,-3.897,-3.7991,-3.6651,-3.4893,-3.2538,-2.8871,0.0,0.0,0.0,0.0,0.0,0.0,0.0,0.0,0.0,0.0,0.0,-1.3565,0.0,0.0,0.0,0.0,-1.7912,-1.9599,-2.18,-2.2421,0.0,0.0,0.0,0.0,0.0,0.0,0.0,-2.1812,-2.3797,-2.5638,-2.6821,-2.5929,-2.5249,-2.5413,-2.5525,-2.5375,-2.4724,0.0,-2.7325,-2.8457,-2.8248,-2.8498,-2.9894,-2.9804,-2.9789,-3.0597,-3.2003,-3.3066,-3.314,-3.4061,-3.4515,-3.391,-3.3225,-3.2381,-3.128,-3.049,-2.982,-2.9415,-2.947,-2.9614,-2.9614,-2.9797,-2.9954,-5.7292,-5.567,-4.8936,-4.5901,-4.5553,-4.6232,-4.7736,-4.9633,-4.9616,-4.996,-5.0279,-4.7257,-4.5069,-4.3414,-3.8968,0.0,-4.1252,-4.1252,-4.3262,-4.6776,-4.6721,-4.7083,-4.7769,-4.7717,-4.7699,-4.7699,-4.6957,-4.6613,-4.645,-4.3642,-4.1669,-4.0673,-3.926,-3.6959,-3.4027,-3.658,-3.8245,-3.8517,-4.127,-4.2774,-4.2882,-4.2919,-4.2158,-4.0655,-4.0528,-3.9822,-3.8373,-3.8227,-3.7865,-3.7067,-3.4842,-3.2129,-2.8871,0.0,0.0,0.0,0.0,0.0,0.0,0.0,0.0,0.0,0.0,0.0,0.0,0.0,0.0,0.0,-2.2415,0.0,-2.6776,-2.4417,0.0,0.0,0.0,-2.267,-2.5068,-2.6149,-2.6724,-2.6774,0.0,0.0,-2.7925,-2.7985,-2.8509,-2.9831,-3.0702,-3.0372,-2.8079,-2.928,-3.0178,-2.9205,-2.9131,-2.943,-3.0475,-3.1674,-3.3155,-3.4711,-3.5489,-3.5355,-3.534,-3.5415,-3.5166,-3.4533,-3.3837,-3.315,-3.242,-3.1692,-3.0832,-2.9819,-2.9886,-3.0166,-3.0179,-3.0568,-3.0906,-5.8078,-5.7346,-5.5028,-5.3632,-5.2929,-5.2215,-5.2661,-5.3665,-5.1991,-5.1442,-5.1643,-4.9978,-4.8987,-4.852,-4.7272,-4.7083,-4.7829,-4.7808,-4.8315,-4.9166,-4.8623,-4.842,-4.8583,-4.7986,-4.7699,-4.7699,-4.7518,-4.7428,-4.7391,-4.6667,-4.4928,-4.2429,-4.194,-3.9876,-3.6325,-3.6922,-3.848,-4.0836,-4.1017,-4.1669,-4.2865,-4.2919,-4.2411,-4.1433,-4.0818,-4.0058,-3.9134,-3.8535,-3.8118,-3.7883,-3.62,-3.3755,-3.055,-2.5028,0.0,0.0,0.0,0.0,0.0,0.0,0.0,0.0,0.0,-1.8164,-1.3981,0.0,-2.0145,0.0,-2.5426,-2.8631,-2.921,-2.8491,0.0,0.0,-2.6991,-2.7057,-2.8775,-2.9717,-2.9998,-2.9258,-3.0083,-3.0749,-3.0784,-3.1257,-3.2013,-3.3096,-3.055,-2.8637,-2.9037,-3.0342,-3.1346,-3.1644,-3.2766,-3.3903,-3.3948,-3.4457,-3.4906,-3.5415,-3.5489,-3.5489,-3.5489,-3.5489,-3.5439,-3.5246,-3.5082,-3.4639,-3.3871,-3.3178,-3.2401,-3.1604,-3.1103,-3.079,-3.079,-3.0895,-3.1024,-5.9288,-5.9019,-5.8581,-5.7501,-5.6011,-5.5369,-5.5227,-5.5279,-5.4,-5.3329,-5.307,-5.1835,-5.1138,-5.086,-5.0431,-5.0203,-5.0177,-5.0196,-5.0156,-5.0093,-4.9637,-4.9438,-4.9401,-4.8623,-4.8221,-4.8203,-4.788,-4.7699,-4.7699,-4.7699,-4.6812,-4.5073,-4.5037,-4.3389,-4.022,-3.8426,-3.8391,-4.0111,-4.0383,-4.1452,-4.3317,-4.3081,-4.1832,-3.9695,-3.9188,-3.7902,-3.5729,-3.5222,-3.5002,-3.4984,-3.4117,-3.2705,-3.0527,-2.608,-2.262,0.0,0.0,0.0,0.0,0.0,0.0,0.0,0.0,0.0,0.0,0.0,-2.3412,-2.4105,-2.8295,-3.0861,-3.0596,-3.0465,-3.0606,-3.116,-3.0788,-3.1292,-3.3316,-3.408,-3.4062,-3.3101,-3.361,-3.3965,-3.3726,-3.3743,-3.4106,-3.5024,-3.2974,-3.1545,-3.2122,-3.2871,-3.3409,-3.3844,-3.4786,-3.5489,-3.5489,-3.5489,-3.5489,-3.5489,-3.5489,-3.5489,-3.5489,-3.5489,-3.5489,-3.5472,-3.5198,-3.4839,-3.4361,-3.3699,-3.3038,-3.2648,-3.1978,-3.1431,-3.1099,-3.1024,-3.1024,-6.0403,-6.0403,-6.0403,-5.9095,-5.7009,-5.7149,-5.6351,-5.4992,-5.4745,-5.4376,-5.3838,-5.2903,-5.2232,-5.1715,-5.104,-5.0666,-5.0573,-5.0591,-5.0508,-5.0401,-5.0311,-5.0257,-5.0216,-4.9438,-4.8999,-4.8855,-4.8185,-4.7787,-4.7717,-4.7699,-4.7533,-4.7265,-4.7226,-4.6033,-4.3588,-4.0202,-3.8462,-3.839,-3.9967,-4.1723,-4.3552,-4.2684,-4.0401,-3.6904,-3.6596,-3.4857,-3.1361,-3.1039,-3.1003,-3.0998,-3.0908,-3.0672,-3.0219,-2.7049,-2.4596,0.0,-2.0156,0.0,0.0,0.0,0.0,0.0,0.0,0.0,0.0,-2.5728,-2.6894,-2.8514,-3.1055,-3.2429,-3.2087,-3.1992,-3.2816,-3.4901,-3.4708,-3.544,-3.7901,-3.8371,-3.8121,-3.7255,-3.7226,-3.6995,-3.6276,-3.5676,-3.5522,-3.598,-3.5793,-3.5393,-3.5531,-3.5407,-3.5407,-3.5569,-3.5522,-3.5522,-3.5489,-3.5489,-3.5489,-3.5489,-3.5489,-3.5489,-3.5489,-3.5489,-3.5489,-3.5424,-3.4971,-3.4543,-3.4461,-3.3871,-3.3388,-3.3353,-3.2755,-3.2015,-3.1357,-3.1086,-3.1024,-6.0403,-6.0403,-6.0403,-5.9921,-5.9207,-5.9228,-5.6596,-5.2226,-5.0721,-5.0689,-5.1825,-5.2565,-5.2846,-5.2721,-5.2466,-5.2265,-5.2154,-5.2154,-5.2105,-5.2027,-5.1375,-5.1067,-5.1013,-5.0234,-4.9528,-4.8927,-4.8749,-4.833,-4.7699,-4.7699,-4.6703,-4.482,-4.4784,-4.357,-4.127,0.0,0.0,0.0,-4.1325,-4.2031,-4.1144,-3.917,-3.7158,-3.5113,-3.4407,0.0,-3.2035,-3.1347,-3.1003,-3.098,-3.0382,0.0,0.0,0.0,0.0,0.0,0.0,0.0,0.0,0.0,0.0,0.0,-2.8113,-2.7943,-2.7283,-2.8973,-3.1004,-3.3034,-3.3761,-3.4793,-3.6468,-3.6614,-3.7209,-3.8671,-3.8749,-3.9404,-4.1019,-4.0668,-4.0115,-3.966,-3.9045,-3.8362,-3.7658,-3.7093,-3.6719,-3.6692,-3.6336,-3.602,-3.5925,-3.5893,-3.5878,-3.5893,-3.575,-3.5621,-3.5522,-3.5489,-3.5489,-3.5489,-3.5489,-3.5489,-3.5489,-3.5489,-3.5489,-3.5504,-3.5374,-3.5246,-3.5231,-3.4658,-3.4095,-3.4124,-3.3492,-3.2755,-3.2051,-3.1431,-3.1024,-6.0403,0.0,-6.0403,-5.956,0.0,-5.808,-5.5812,-5.224,-5.2986,-5.3218,-5.305,-5.3261,-5.3258,-5.303,-5.1794,-5.1143,-5.0961,-4.9716,-4.974,-5.0736,-5.0395,-5.083,-5.1919,-5.1157,-5.0359,-4.9597,-4.9115,-4.8493,-4.7735,-4.7699,-4.7063,-4.5888,-4.5888,-4.5273,-4.4094,-4.4059,-4.3299,-4.1723,-4.2502,-4.3081,-4.3371,-4.1524,-3.9369,-3.7069,0.0,0.0,0.0,0.0,0.0,0.0,0.0,0.0,0.0,0.0,0.0,-3.0975,-2.9376,-2.8988,-3.0349,-3.0536,-3.1396,-3.3237,-3.4083,-3.3541,-3.1289,-3.3203,-3.5131,-3.6552,-3.7043,-3.7889,-3.9343,-3.9868,-4.0333,-4.0991,-4.0762,-4.088,-4.1488,-4.1283,-4.0685,-3.99,-3.9698,-3.927,-3.8282,-3.7892,-3.7531,-3.7207,-3.6891,-3.6538,-3.6289,-3.61,-3.5973,-3.5863,-3.5784,-3.5638,-3.5537,-3.5489,-3.5504,-3.5489,-3.5489,-3.5489,-3.5489,-3.5489,-3.5489,-3.5489,-3.5489,-3.5489,-3.5472,-3.5133,-3.4905,-3.4824,-3.4259,-3.3699,-3.3199,-3.234,-3.1529,-6.0403,-6.0403,-6.0403,-5.9158,-5.7142,-5.6943,-5.5731,-5.4099,0.0,0.0,0.0,-5.4069,-5.3665,-5.328,-5.1169,-5.0155,-4.9887,-4.7889,-4.7897,-4.9646,-4.9743,-5.078,-5.2581,-5.2013,-5.1326,-5.0504,-4.9618,-4.8756,-4.7938,-4.7793,-4.7717,-4.7699,-4.7699,-4.7699,-4.7699,-4.7699,-4.6739,-4.4784,-4.3661,-4.3987,-4.5743,-4.4168,-4.1886,-3.9025,-3.8174,-3.6453,-3.3737,-3.2832,-3.2397,-3.2379,-3.1781,-3.1632,-3.2049,-3.2611,-3.3015,-3.3228,-3.3335,-3.4115,-3.5679,-3.5505,-3.6146,-3.8159,-3.8836,-3.8075,-3.547,-3.7144,-3.8599,-3.9326,-3.9927,-4.0569,-4.1339,-4.1931,-4.2337,-4.2455,-4.1847,-4.1457,-4.1559,-4.1322,-4.0785,-3.9811,-3.9974,-3.9879,-3.8821,-3.8546,-3.8294,-3.7841,-3.7519,-3.7178,-3.6631,-3.6273,-3.6068,-3.5894,-3.5847,-3.5767,-3.5651,-3.5619,-3.5602,-3.5539,-3.5539,-3.5522,-3.5489,-3.5489,-3.5489,-3.5489,-3.5489,-3.5489,-3.5489,-3.5457,-3.5489,-3.5489,-3.4971,-3.4495,-3.4394,-3.3443,-3.247,-6.0403,-6.0403,-6.0403,-5.9998,-5.9343,-5.9311,-5.8921,-5.8119,-5.5778,-5.437,-5.3808,-5.4154,-5.428,-5.4179,-5.317,-5.2611,-5.2468,-5.2099,-5.2072,-5.2251,-5.2269,-5.2455,-5.2765,-5.267,-5.22,-5.1398,-5.0593,-4.9747,-4.892,-4.8208,-4.7819,-4.7717,-4.7699,-4.7699,-4.7699,-4.7699,-4.7536,-4.7156,-4.5037,-4.3751,-4.3371,-4.1198,-3.9205,-3.743,-3.6671,-3.5639,-3.448,-3.3737,-3.323,-3.323,-3.3121,-3.3991,-3.5983,-3.5887,-3.6631,-3.8504,-3.8099,-3.7858,-3.8087,-3.828,-3.8776,-3.9665,-3.9893,-3.9486,-3.8514,-3.9225,-4.007,-4.0798,-4.1018,-4.1339,-4.2033,-4.2269,-4.2625,-4.3098,-4.2591,-4.2388,-4.2861,-4.1948,-4.1118,-4.0845,-4.0425,-4.0163,-3.9915,-3.9465,-3.916,-3.8849,-3.8223,-3.7241,-3.6786,-3.646,-3.6352,-3.6179,-3.6133,-3.61,-3.6093,-3.5925,-3.5906,-3.5703,-3.5686,-3.5606,-3.5522,-3.5489,-3.5519,-3.5519,-3.5564,-3.5549,-3.5534,-3.5489,-3.5534,-3.5534,-3.5311,-3.5231,-3.5198,-3.4505,-3.3575,-6.0403,-6.0403,-6.0403,-6.0299,-6.0129,-6.0129,-5.9909,-5.9424,-5.7916,-5.6768,-5.5959,-5.5571,-5.5129,-5.4574,-5.2723,-5.1626,-5.1108,-4.9728,-4.9777,-5.0921,-5.0939,-5.1651,-5.2839,-5.2893,-5.2513,-5.1709,-5.1259,-5.0396,-4.9224,-4.8766,-4.8364,-4.7884,-4.7822,-4.7801,-4.7801,-4.7738,-4.7699,-4.7681,-4.6613,-4.587,-4.549,-4.4023,-4.2882,-4.2176,-4.1379,-4.0582,-3.9786,-3.8971,-3.8355,-3.7938,-3.7504,-3.7775,-3.8826,-3.9103,-3.9623,-4.0414,-4.0303,-4.0068,-3.983,-4.0029,-4.0324,-4.0663,-4.1052,-4.1179,-4.084,-4.0713,-4.1001,-4.1728,-4.2134,-4.254,-4.2895,-4.3284,-4.3504,-4.3403,-4.3071,-4.2709,-4.2286,-4.2066,-4.166,-4.1305,-4.1271,-4.1297,-4.1314,-4.1045,-4.0725,-4.0382,-3.9328,-3.8292,-3.7681,-3.7554,-3.7367,-3.6869,-3.6761,-3.6865,-3.6995,-3.6749,-3.655,-3.6408,-3.5978,-3.5718,-3.5621,-3.5554,-3.5654,-3.5953,-3.6028,-3.6043,-3.6028,-3.6043,-3.5908,-3.5534,-3.5489,-3.5489,-3.5407,-3.5122,-3.4309,-6.0403,-6.0403,-6.0403,-6.0403,-6.0403,-6.0403,-6.0203,-5.9937,-5.9918,-5.9414,-5.843,-5.7192,-5.6143,-5.5174,-5.2819,-5.1311,-5.0316,-4.8396,-4.8519,-5.0131,-5.0259,-5.1247,-5.2895,-5.3042,-5.2712,-5.2126,-5.184,-5.0936,-4.9638,-4.9325,-4.8814,-4.8083,-4.7925,-4.792,-4.7902,-4.7759,-4.7699,-4.7699,-4.7699,-4.7699,-4.7681,-4.7083,-4.6703,-4.6468,-4.587,-4.52,-4.4403,-4.3751,-4.3063,-4.2266,-4.1632,-4.1252,-4.1089,-4.1614,-4.1809,-4.1499,-4.1626,-4.1562,-4.1216,-4.1316,-4.1457,-4.1457,-4.1965,-4.2354,-4.2472,-4.2033,-4.1931,-4.2506,-4.3031,-4.3409,-4.369,-4.4181,-4.4333,-4.3758,-4.3477,-4.2953,-4.1982,-4.2066,-4.21,-4.1627,-4.1965,-4.2252,-4.2303,-4.2303,-4.1977,-4.1304,-4.0415,-3.9487,-3.8867,-3.8639,-3.8227,-3.7899,-3.7606,-3.7634,-3.8022,-3.7702,-3.7364,-3.7301,-3.6743,-3.6401,-3.626,-3.6067,-3.6136,-3.6678,-3.6783,-3.6802,-3.682,-3.6854,-3.6688,-3.6328,-3.622,-3.6049,-3.5833,-3.5692,-3.5157,-6.0403,-6.0403,-6.0403,-6.0403,-6.0403,-6.0403,-6.0375,-6.0347,-6.0328,-6.0309,-5.9945,-5.8538,-5.7376,-5.6442,-5.5137,-5.4072,-5.3234,-5.2747,-5.2525,-5.2708,-5.2855,-5.2965,-5.3146,-5.3164,-5.3148,-5.2947,-5.232,-5.149,-5.0474,-4.9704,-4.8932,-4.8083,-4.7945,-4.792,-4.7881,-4.7759,-4.7699,-4.7699,-4.7699,-4.7699,-4.7699,-4.7645,-4.7265,-4.6522,-4.6432,-4.6015,-4.5218,-4.5128,-4.4693,-4.3951,-4.3769,-4.3407,-4.2792,-4.2755,-4.2773,-4.2733,-4.2573,-4.2408,-4.2175,-4.2194,-4.2202,-4.2185,-4.2286,-4.2658,-4.3234,-4.3223,-4.3189,-4.3308,-4.3358,-4.3758,-4.435,-4.4564,-4.453,-4.4282,-4.3826,-4.3325,-4.3054,-4.2658,-4.2279,-4.2245,-4.2371,-4.2303,-4.2472,-4.2472,-4.2189,-4.1704,-4.106,-4.0373,-3.9724,-3.915,-3.8976,-3.9095,-3.8813,-3.849,-3.8517,-3.8427,-3.8284,-3.8167,-3.794,-3.7625,-3.7367,-3.7229,-3.7304,-3.7492,-3.7598,-3.7666,-3.7785,-3.7837,-3.7822,-3.7482,-3.7322,-3.7248,-3.6648,-3.6455,-3.6074,-6.0403,-6.0403,-6.0403,-6.0403,-6.0403,-6.0403,-6.0403,-6.0403,-6.0403,-6.0403,-6.0318,-5.9684,-5.8824,-5.7779,-5.6551,-5.5546,-5.4725,-5.3866,-5.3484,-5.3482,-5.3274,-5.3185,-5.3185,-5.3185,-5.3185,-5.3167,-5.2876,-5.2268,-5.1346,-5.0155,-4.931,-4.8922,-4.8382,-4.8046,-4.7968,-4.7863,-4.778,-4.7699,-4.7699,-4.7699,-4.7699,-4.7699,-4.7533,-4.7246,-4.7228,-4.6848,-4.6106,-4.6015,-4.5635,-4.4874,-4.4802,-4.4675,-4.4331,-4.4313,-4.4177,-4.3914,-4.3281,-4.2864,-4.2783,-4.2889,-4.2963,-4.2946,-4.3386,-4.3792,-4.4062,-4.4096,-4.4096,-4.4096,-4.4113,-4.4265,-4.4547,-4.4598,-4.4429,-4.4028,-4.3978,-4.3775,-4.2828,-4.3301,-4.3504,-4.3098,-4.3369,-4.365,-4.3667,-4.3667,-4.3356,-4.2795,-4.2338,-4.1885,-4.1321,-4.0704,-4.0423,-4.0526,-4.0101,-3.9724,-3.9598,-3.929,-3.9136,-3.8946,-3.8537,-3.8141,-3.812,-3.7876,-3.7884,-3.8376,-3.8451,-3.8501,-3.8569,-3.8557,-3.8512,-3.8299,-3.7977,-3.7752,-3.7293,-3.753,-3.7385,-6.0403,-6.0403,-6.0403,-6.0403,-6.0403,-6.0403,-6.0403,-6.0403,-6.0403,-6.0403,-6.0403,-6.0403,-5.9946,-5.9003,-5.7779,-5.6649,-5.5618,-5.4631,-5.4075,-5.387,-5.3621,-5.3459,-5.3357,-5.3336,-5.3293,-5.3206,-5.3185,-5.2674,-5.1628,-5.0288,-4.95,-4.9187,-4.8539,-4.8168,-4.8052,-4.7968,-4.7884,-4.7804,-4.778,-4.7759,-4.7759,-4.7717,-4.7699,-4.7699,-4.7699,-4.7428,-4.6884,-4.683,-4.6468,-4.5671,-4.5617,-4.5526,-4.5309,-4.5291,-4.5181,-4.4896,-4.4231,-4.3837,-4.3922,-4.407,-4.408,-4.3987,-4.4497,-4.4748,-4.4626,-4.4598,-4.4598,-4.4581,-4.4598,-4.4581,-4.4598,-4.4598,-4.4344,-4.3842,-4.4282,-4.409,-4.3244,-4.3995,-4.4316,-4.3893,-4.4147,-4.4598,-4.4581,-4.4502,-4.4266,-4.3843,-4.358,-4.3376,-4.2831,-4.2157,-4.1707,-4.1558,-4.1042,-4.0718,-4.0512,-4.009,-3.9782,-3.9656,-3.9232,-3.8947,-3.8809,-3.8674,-3.8671,-3.9291,-3.934,-3.9409,-3.9478,-3.9398,-3.9268,-3.8823,-3.861,-3.8466,-3.816,-3.8499,-3.8241,-6.0403,-6.0403,-6.0403,-6.0403,-6.0403,-6.0403,-6.0403,-6.0403,-6.0403,-6.0403,-6.0403,-6.0403,-6.0351,-6.0175,-5.9022,-5.763,-5.6182,-5.5593,-5.4936,-5.4318,-5.4229,-5.4034,-5.3663,-5.3662,-5.3524,-5.3272,-5.3251,-5.2493,-5.1041,-5.0088,-4.9188,-4.8452,-4.8319,-4.8187,-4.8168,-4.805,-4.801,-4.797,-4.7907,-4.7881,-4.7881,-4.7759,-4.7699,-4.7717,-4.7699,-4.766,-4.7609,-4.7627,-4.7265,-4.6486,-4.645,-4.6124,-4.5454,-4.5363,-4.5485,-4.5654,-4.5593,-4.5645,-4.5824,-4.5817,-4.5662,-4.5269,-4.5198,-4.5089,-4.4737,-4.4665,-4.4637,-4.4598,-4.4598,-4.4598,-4.4682,-4.4649,-4.4581,-4.4513,-4.4581,-4.4564,-4.4496,-4.4519,-4.4598,-4.4598,-4.4733,-4.4818,-4.4682,-4.4598,-4.4621,-4.44,-4.3943,-4.3512,-4.3423,-4.2892,-4.23,-4.1804,-4.1492,-4.1243,-4.0681,-4.0351,-4.0351,-4.0274,-4.0052,-4.0036,-4.0104,-4.0095,-4.01,-4.0104,-4.0078,-4.0132,-4.0343,-4.0378,-4.0197,-3.9979,-3.9883,-3.9657,-3.9028,-3.881,-3.8536,-6.0403,-6.0403,-6.0403,-6.0403,-6.0403,-6.0403,-6.0403,-6.0403,-6.0403,-6.0403,-6.0403,-6.0403,-6.0403,-6.0389,-5.9946,-5.8854,-5.7249,-5.6304,-5.5432,-5.4664,-5.4397,-5.421,-5.4105,-5.4088,-5.3888,-5.3583,-5.3504,-5.3125,-5.2291,-5.1041,-5.0215,-4.9756,-4.8781,-4.8247,-4.8207,-4.813,-4.809,-4.8012,-4.797,-4.7949,-4.7968,-4.7884,-4.784,-4.784,-4.7738,-4.7699,-4.7699,-4.7699,-4.7572,-4.7283,-4.7283,-4.7138,-4.6884,-4.6848,-4.6876,-4.6938,-4.6655,-4.6514,-4.656,-4.6286,-4.6042,-4.5825,-4.58,-4.5588,-4.5178,-4.5035,-4.4917,-4.4692,-4.4598,-4.4767,-4.5111,-4.4891,-4.4598,-4.4649,-4.501,-4.5297,-4.5297,-4.5314,-4.5466,-4.5855,-4.5991,-4.5838,-4.5399,-4.5297,-4.5094,-4.4671,-4.4384,-4.4224,-4.4076,-4.3588,-4.3015,-4.2707,-4.2046,-4.1426,-4.1227,-4.0734,-4.0474,-4.0489,-4.0409,-4.0343,-4.0351,-4.0351,-4.0305,-4.0305,-4.0385,-4.0401,-4.0474,-4.0474,-4.0436,-4.0436,-4.0401,-4.0239,-3.9921,-3.9564,-3.9137,-6.0403,-6.0403,-6.0403,-6.0403,-6.0403,-6.0403,-6.0403,-6.0403,-6.0403,-6.0403,-6.0403,-6.0403,-6.0403,-6.0403,-6.0403,-5.9663,-5.8274,-5.7163,-5.6221,-5.5375,-5.4882,-5.4594,-5.4479,-5.4463,-5.4262,-5.3907,-5.3758,-5.3453,-5.288,-5.1763,-5.1059,-5.0692,-4.9389,-4.8689,-4.8632,-4.8393,-4.8189,-4.8111,-4.8072,-4.8088,-4.805,-4.7986,-4.7925,-4.7925,-4.7845,-4.7762,-4.7699,-4.7738,-4.7738,-4.7699,-4.7699,-4.7699,-4.7699,-4.7699,-4.7699,-4.7657,-4.7345,-4.7169,-4.7129,-4.6799,-4.6566,-4.6358,-4.6358,-4.614,-4.5622,-4.5545,-4.5423,-4.5234,-4.5205,-4.5484,-4.5811,-4.5602,-4.5326,-4.5376,-4.5754,-4.6041,-4.6041,-4.6058,-4.6278,-4.6583,-4.6684,-4.6498,-4.6194,-4.6075,-4.5703,-4.5043,-4.4942,-4.4919,-4.4581,-4.4207,-4.3706,-4.3482,-4.2769,-4.2205,-4.182,-4.1327,-4.0749,-4.0627,-4.0489,-4.0489,-4.0489,-4.0489,-4.0489,-4.0489,-4.0489,-4.0489,-4.0489,-4.0489,-4.0489,-4.0489,-4.0505,-4.0374,-4.0274,-4.0266,-3.9791,-6.0403,-6.0403,-6.0403,-6.0403,-6.0403,-6.0403,-6.0403,-6.0403,-6.0403,-6.0403,-6.0403,-6.0403,-6.0403,-6.0403,-6.0403,-5.9911,-5.9076,-5.8132,-5.7254,-5.6414,-5.5656,-5.5113,-5.4825,-5.481,-5.4623,-5.4279,-5.3907,-5.3348,-5.2717,-5.2186,-5.1579,-5.0842,-5.0069,-4.9591,-4.9572,-4.8837,-4.836,-4.8378,-4.8355,-4.8279,-4.8206,-4.8253,-4.8211,-4.8101,-4.8101,-4.7982,-4.7738,-4.784,-4.784,-4.7738,-4.7699,-4.7699,-4.7699,-4.7699,-4.7699,-4.7699,-4.7696,-4.7678,-4.7657,-4.7597,-4.7302,-4.7035,-4.6944,-4.6772,-4.6213,-4.6256,-4.6364,-4.6358,-4.6446,-4.6563,-4.6775,-4.6747,-4.665,-4.6752,-4.6701,-4.6786,-4.6802,-4.6819,-4.6802,-4.6904,-4.6972,-4.6853,-4.6819,-4.6802,-4.6498,-4.5923,-4.5618,-4.5382,-4.4857,-4.457,-4.4236,-4.3781,-4.3303,-4.2876,-4.241,-4.1949,-4.1276,-4.0765,-4.0593,-4.0489,-4.0489,-4.0489,-4.0489,-4.0489,-4.0489,-4.0489,-4.0489,-4.0489,-4.0489,-4.0489,-4.0489,-4.0489,-4.047,-4.0401,-4.0331,-6.0403,-6.0403,-6.0403,-6.0403,-6.0403,-6.0403,-6.0403,-6.0403,-6.0403,-6.0403,-6.0403,-6.0403,-6.0403,-6.0403,-6.0403,-6.025,-5.9873,-5.8574,-5.7428,-5.6606,-5.5785,-5.5332,-5.5214,-5.52,-5.5009,-5.4639,-5.4296,-5.3992,-5.3603,-5.281,-5.2176,-5.1823,-5.0943,-5.0473,-5.04,-4.9627,-4.9187,-4.9187,-4.9167,-4.9166,-4.9221,-4.958,-4.9537,-4.9023,-4.895,-4.8652,-4.7966,-4.7904,-4.7899,-4.784,-4.7759,-4.7699,-4.7699,-4.7699,-4.7699,-4.7699,-4.7699,-4.7699,-4.7699,-4.7699,-4.7636,-4.758,-4.7915,-4.7676,-4.7002,-4.766,-4.7851,-4.7281,-4.7193,-4.7479,-4.7969,-4.7784,-4.7407,-4.6853,-4.7242,-4.753,-4.7564,-4.7953,-4.8037,-4.7733,-4.8003,-4.8088,-4.7699,-4.7564,-4.7276,-4.6566,-4.6092,-4.5635,-4.5348,-4.4891,-4.4587,-4.4265,-4.3898,-4.3542,-4.3166,-4.2676,-4.2013,-4.1376,-4.1024,-4.0593,-4.0524,-4.0489,-4.0489,-4.0489,-4.0489,-4.0489,-4.0489,-4.0489,-4.0489,-4.0489,-4.0489,-4.0489,-4.0489,-4.047,-4.0401,-6.0403,-6.0403,-6.0403,-6.0403,-6.0403,-6.0403,-6.0403,-6.0403,-6.0403,-6.0403,-6.0403,-6.0403,-6.0403,-6.0403,-6.0403,-6.0403,-6.0212,-5.8651,-5.76,-5.6931,-5.5861,-5.5422,-5.539,-5.539,-5.5286,-5.5009,-5.4639,-5.4495,-5.4425,-5.3616,-5.3178,-5.2975,-5.2009,-5.1446,-5.1334,-5.0515,-5.0031,-5.0051,-5.005,-5.0031,-5.0141,-5.0466,-5.0279,-4.962,-4.9473,-4.8994,-4.8184,-4.8048,-4.7986,-4.7945,-4.7845,-4.7804,-4.778,-4.778,-4.7759,-4.7699,-4.7699,-4.7699,-4.7699,-4.7699,-4.7841,-4.8149,-4.8619,-4.8728,-4.834,-4.9175,-4.9108,-4.8671,-4.8607,-4.8798,-4.905,-4.89,-4.8354,-4.7712,-4.775,-4.7906,-4.799,-4.8578,-4.8798,-4.8511,-4.8697,-4.8697,-4.846,-4.8291,-4.802,-4.731,-4.6819,-4.6114,-4.5872,-4.5314,-4.501,-4.4694,-4.4293,-4.403,-4.3914,-4.3393,-4.2769,-4.2141,-4.1591,-4.099,-4.0612,-4.0524,-4.0489,-4.0489,-4.0489,-4.0489,-4.0489,-4.0489,-4.0489,-4.0489,-4.0489,-4.0489,-4.0489,-4.0489,-4.0436,-6.0403,-6.0403,-6.0403,-6.0403,-6.0403,-6.0403,-6.0403,-6.0403,-6.0403,-6.0403,-6.0403,-6.0403,-6.0403,-6.0403,-6.0403,-6.0403,-6.0116,-5.8822,-5.7982,-5.7428,-5.6339,-5.5536,-5.5409,-5.539,-5.5358,-5.5286,-5.5009,-5.4836,-5.4825,-5.4401,-5.4313,-5.4091,-5.3159,-5.2605,-5.2401,-5.1465,-5.0939,-5.0939,-5.0897,-5.0875,-5.0894,-5.1022,-5.0674,-4.9921,-4.9884,-4.9517,-4.8799,-4.8629,-4.8349,-4.8048,-4.8063,-4.8095,-4.7941,-4.792,-4.7985,-4.7774,-4.7699,-4.779,-4.779,-4.7898,-4.8206,-4.8894,-4.9162,-4.9293,-4.9792,-5.0127,-5.0371,-5.0217,-5.0254,-5.0265,-5.0084,-4.9884,-4.9561,-4.8982,-4.8386,-4.8122,-4.8041,-4.8629,-4.8883,-4.8951,-4.9001,-4.8984,-4.89,-4.89,-4.8595,-4.8125,-4.7787,-4.7077,-4.6447,-4.5923,-4.5432,-4.5054,-4.4744,-4.4468,-4.4342,-4.4047,-4.3439,-4.2862,-4.23,-4.1771,-4.1057,-4.087,-4.0558,-4.0558,-4.0489,-4.0489,-4.0489,-4.0489,-4.0489,-4.0489,-4.0489,-4.0489,-4.0489,-4.0489,-4.0505,-6.0403,-6.0403,-6.0403,-6.0403,-6.0403,-6.0403,-6.0403,-6.0403,-6.0403,-6.0403,-6.0403,-6.0403,-6.0403,-6.0403,-6.0403,-6.0403,-6.0102,-5.9262,-5.8421,-5.7791,-5.6836,-5.5938,-5.5498,-5.539,-5.539,-5.5377,-5.5292,-5.5246,-5.5214,-5.484,-5.4685,-5.4654,-5.4086,-5.3802,-5.3656,-5.2624,-5.2084,-5.2027,-5.1788,-5.1703,-5.1775,-5.2252,-5.2179,-5.1465,-5.1336,-5.0894,-5.0233,-5.014,-4.9398,-4.8158,-4.8593,-4.8573,-4.8188,-4.8527,-4.8574,-4.8058,-4.7868,-4.8004,-4.8456,-4.8583,-4.8967,-4.9709,-5.0234,-5.0488,-5.0148,-5.1194,-5.147,-5.1303,-5.1167,-5.1251,-5.1069,-5.0715,-5.0011,-4.9074,-4.8835,-4.8721,-4.8646,-4.8849,-4.9018,-4.9018,-4.9018,-4.9018,-4.9018,-4.8984,-4.8917,-4.8646,-4.8274,-4.7817,-4.7158,-4.6684,-4.6244,-4.572,-4.5353,-4.5043,-4.4778,-4.4496,-4.4076,-4.3512,-4.3106,-4.28,-4.2078,-4.1558,-4.1057,-4.0696,-4.0524,-4.0489,-4.0489,-4.0489,-4.0489,-4.0489,-4.0489,-4.0489,-4.0489,-4.0489,-4.0489,-6.0403,-6.0403,-6.0403,-6.0403,-6.0403,-6.0403,-6.0403,-6.0403,-6.0403,-6.0403,-6.0403,-6.0403,-6.0403,-6.0403,-6.0403,-6.0403,-6.0274,-5.951,-5.8861,-5.8307,-5.7141,-5.6167,-5.5556,-5.539,-5.539,-5.539,-5.539,-5.539,-5.5358,-5.514,-5.5066,-5.4976,-5.4689,-5.453,-5.4439,-5.3745,-5.3162,-5.3014,-5.2801,-5.2659,-5.2585,-5.2949,-5.2692,-5.216,-5.1997,-5.161,-5.093,-5.0802,-5.0246,-4.9486,-4.9612,-4.9628,-4.9204,-4.9409,-4.9419,-4.8901,-4.8796,-4.8967,-4.9275,-4.942,-4.9782,-5.0452,-5.1104,-5.1212,-5.1267,-5.2027,-5.2208,-5.1927,-5.1904,-5.1831,-5.1551,-5.1061,-5.0424,-4.9841,-4.9671,-4.9372,-4.8687,-4.8815,-4.8984,-4.9018,-4.9018,-4.9018,-4.9018,-4.9018,-4.9018,-4.8934,-4.868,-4.8274,-4.7821,-4.7462,-4.6904,-4.6194,-4.572,-4.5382,-4.4953,-4.4615,-4.4519,-4.4006,-4.3781,-4.3558,-4.2862,-4.2189,-4.1558,-4.1057,-4.0749,-4.0558,-4.0646,-4.0662,-4.0489,-4.0489,-4.0489,-4.0489,-4.0489,-4.0489,-4.0489,-6.0403,-6.0403,-6.0403,-6.0403,-6.0403,-6.0403,-6.0403,-6.0403,-6.0403,-6.0403,-6.0403,-6.0403,-6.0403,-6.0403,-6.0403,-6.0403,-6.0365,-5.9701,-5.9267,-5.8574,-5.7447,-5.6224,-5.5728,-5.546,-5.539,-5.539,-5.539,-5.539,-5.539,-5.5377,-5.539,-5.5273,-5.5009,-5.4884,-5.481,-5.4471,-5.4174,-5.385,-5.3684,-5.3513,-5.3313,-5.3304,-5.3005,-5.2524,-5.2291,-5.1958,-5.1444,-5.1206,-5.1075,-5.1077,-5.0986,-5.0741,-5.0604,-5.048,-5.0396,-5.0201,-5.0003,-4.9989,-5.0224,-5.0279,-5.0605,-5.1316,-5.1497,-5.1729,-5.2241,-5.2518,-5.2513,-5.2381,-5.2503,-5.2215,-5.1793,-5.1191,-5.085,-5.0673,-5.0707,-4.9816,-4.8812,-4.8748,-4.9094,-4.9018,-4.9018,-4.9018,-4.9018,-4.9018,-4.9018,-4.9018,-4.8832,-4.8646,-4.8362,-4.8139,-4.7276,-4.6227,-4.5889,-4.5652,-4.5179,-4.4722,-4.4671,-4.4479,-4.4384,-4.4076,-4.3333,-4.2676,-4.2062,-4.1624,-4.1426,-4.1243,-4.1091,-4.0972,-4.0836,-4.0715,-4.087,-4.0715,-4.0524,-4.0489,-4.0489,-6.0403,-6.0403,-6.0403,-6.0403,-6.0403,-6.0403,-6.0403,-6.0403,-6.0403,-6.0403,-6.0403,-6.0403,-6.0403,-6.0403,-6.0403,-6.0403,-6.0403,-6.0102,-5.9778,-5.888,-5.7371,-5.6606,-5.6205,-5.5804,-5.5422,-5.539,-5.539,-5.539,-5.539,-5.539,-5.539,-5.5358,-5.5305,-5.526,-5.5187,-5.4889,-5.467,-5.4544,-5.4294,-5.4123,-5.3962,-5.3719,-5.3491,-5.323,-5.3025,-5.2879,-5.2747,-5.2692,-5.2671,-5.2525,-5.2068,-5.1497,-5.1126,-5.1282,-5.1216,-5.0787,-5.0514,-5.061,-5.1071,-5.1201,-5.1447,-5.2217,-5.2281,-5.2445,-5.2644,-5.2735,-5.2672,-5.2627,-5.2563,-5.249,-5.2233,-5.1743,-5.1457,-5.1355,-5.1061,-5.0627,-5.0122,-4.9838,-4.9538,-4.9168,-4.9063,-4.9001,-4.9001,-4.9018,-4.9018,-4.9018,-4.8968,-4.8917,-4.8798,-4.868,-4.7817,-4.6718,-4.6684,-4.643,-4.5297,-4.4857,-4.475,-4.4682,-4.4615,-4.457,-4.3827,-4.341,-4.2878,-4.2489,-4.2221,-4.1981,-4.1656,-4.1804,-4.1771,-4.1558,-4.1243,-4.1057,-4.087,-4.0715,-4.0489,-6.0403,-6.0403,-6.0403,-6.0403,-6.0403,-6.0403,-6.0403,-6.0403,-6.0403,-6.0403,-6.0403,-6.0403,-6.0403,-6.0403,-6.0403,-6.0403,-6.0403,-6.0384,-5.9931,-5.909,-5.8096,-5.7619,-5.7046,-5.6377,-5.5823,-5.5498,-5.539,-5.539,-5.539,-5.539,-5.539,-5.539,-5.539,-5.5358,-5.539,-5.5187,-5.4976,-5.4795,-5.4639,-5.4463,-5.4262,-5.4105,-5.3851,-5.3739,-5.3524,-5.338,-5.3172,-5.3148,-5.3167,-5.3115,-5.2784,-5.238,-5.2048,-5.2166,-5.2087,-5.1825,-5.1587,-5.1646,-5.2029,-5.2094,-5.2235,-5.2747,-5.2721,-5.2739,-5.2783,-5.2806,-5.2765,-5.2698,-5.2676,-5.2649,-5.2554,-5.228,-5.2048,-5.1975,-5.1743,-5.1457,-5.1113,-5.0607,-5.0056,-4.9598,-4.9466,-4.9243,-4.9138,-4.9094,-4.9018,-4.9018,-4.9018,-4.8968,-4.8968,-4.8781,-4.8359,-4.7699,-4.7716,-4.7158,-4.572,-4.5026,-4.4773,-4.4699,-4.4615,-4.4598,-4.431,-4.4018,-4.3768,-4.3333,-4.2862,-4.2473,-4.2237,-4.2458,-4.2552,-4.2205,-4.1868,-4.1558,-4.1309,-4.1158,-4.0836,-6.0403,-6.0403,-6.0403,-6.0403,-6.0403,-6.0403,-6.0403,-6.0403,-6.0403,-6.0403,-6.0403,-6.0403,-6.0403,-6.0403,-6.0403,-6.0403,-6.0403,-6.0365,-5.9969,-5.9453,-5.9014,-5.8555,-5.7925,-5.7046,-5.6224,-5.5594,-5.5441,-5.5409,-5.539,-5.539,-5.539,-5.539,-5.539,-5.539,-5.539,-5.5371,-5.5227,-5.4995,-5.4933,-5.481,-5.4562,-5.443,-5.421,-5.3907,-5.3814,-5.37,-5.3502,-5.3398,-5.3314,-5.3254,-5.3209,-5.3185,-5.3164,-5.3121,-5.302,-5.2965,-5.2711,-5.2671,-5.2689,-5.2755,-5.2747,-5.2846,-5.2846,-5.2868,-5.285,-5.289,-5.2872,-5.2828,-5.2806,-5.2721,-5.2608,-5.2472,-5.248,-5.2457,-5.2457,-5.2251,-5.1793,-5.126,-5.0813,-5.0142,-4.9815,-4.9555,-4.9303,-4.9155,-4.9063,-4.9001,-4.9001,-4.9018,-4.9018,-4.89,-4.8494,-4.8274,-4.8189,-4.7665,-4.6312,-4.5652,-4.5348,-4.4818,-4.4699,-4.4682,-4.4666,-4.4412,-4.4121,-4.381,-4.3393,-4.3122,-4.3031,-4.3229,-4.3169,-4.28,-4.2552,-4.2332,-4.1997,-4.1624,-4.1209,-6.0403,-6.0403,-6.0403,-6.0403,-6.0403,-6.0403,-6.0403,-6.0403,-6.0403,-6.0403,-6.0403,-6.0403,-6.0403,-6.0403,-6.0403,-6.0403,-6.0403,-6.0384,-6.0307,-5.9969,-5.9548,-5.9033,-5.8727,-5.7581,-5.6696,-5.6243,-5.5842,-5.5498,-5.539,-5.539,-5.539,-5.539,-5.539,-5.539,-5.539,-5.539,-5.5358,-5.5246,-5.5214,-5.5173,-5.5071,-5.4859,-5.456,-5.4226,-5.4174,-5.4123,-5.4016,-5.3795,-5.3623,-5.3602,-5.3357,-5.323,-5.3227,-5.3206,-5.3164,-5.3124,-5.3042,-5.2999,-5.3042,-5.2934,-5.2952,-5.3057,-5.3039,-5.302,-5.3082,-5.3121,-5.306,-5.2955,-5.285,-5.2761,-5.2631,-5.2608,-5.2559,-5.2526,-5.2503,-5.2457,-5.2322,-5.2096,-5.1683,-5.0911,-5.0404,-4.9902,-4.9715,-4.9436,-4.929,-4.9168,-4.9063,-4.9032,-4.9018,-4.89,-4.8663,-4.8545,-4.8494,-4.78,-4.6887,-4.6481,-4.6058,-4.5162,-4.4902,-4.4869,-4.4818,-4.4649,-4.4412,-4.4289,-4.4222,-4.4047,-4.4047,-4.4035,-4.3827,-4.3469,-4.3273,-4.3106,-4.2645,-4.2173,-4.1689,-6.0403,-6.0403,-6.0403,-6.0403,-6.0403,-6.0403,-6.0403,-6.0403,-6.0403,-6.0403,-6.0403,-6.0403,-6.0403,-6.0403,-6.0403,-6.0403,-6.0403,-6.0403,-6.0403,-6.0269,-5.9969,-5.9778,-5.9625,-5.8402,-5.7734,-5.7179,-5.6473,-5.5728,-5.546,-5.539,-5.539,-5.539,-5.539,-5.539,-5.539,-5.539,-5.539,-5.539,-5.539,-5.539,-5.539,-5.5154,-5.4918,-5.4654,-5.4544,-5.4463,-5.4281,-5.4158,-5.4016,-5.3944,-5.368,-5.3502,-5.342,-5.3314,-5.3206,-5.3203,-5.3143,-5.3124,-5.3185,-5.3078,-5.31,-5.3164,-5.3143,-5.3143,-5.3185,-5.3185,-5.3164,-5.3082,-5.2977,-5.285,-5.2739,-5.2698,-5.2631,-5.2581,-5.2599,-5.2645,-5.2645,-5.2663,-5.2226,-5.1672,-5.1268,-5.0786,-5.0265,-4.9971,-4.9615,-4.9364,-4.9199,-4.9107,-4.9094,-4.8917,-4.8781,-4.8714,-4.8612,-4.8071,-4.7378,-4.7022,-4.6447,-4.5585,-4.519,-4.5128,-4.4891,-4.4733,-4.4925,-4.511,-4.5026,-4.4767,-4.4559,-4.4344,-4.4253,-4.4133,-4.4001,-4.3752,-4.3243,-4.2722,-4.2237,-6.0403,-6.0403,-6.0403,-6.0403,-6.0403,-6.0403,-6.0403,-6.0403,-6.0403,-6.0403,-6.0403,-6.0403,-6.0403,-6.0403,-6.0403,-6.0403,-6.0403,-6.0403,-6.0403,-6.0384,-6.0346,-6.0365,-6.0122,-5.9357,-5.8364,-5.7638,-5.6606,-5.6052,-5.5517,-5.539,-5.539,-5.539,-5.539,-5.539,-5.539,-5.539,-5.539,-5.539,-5.539,-5.539,-5.539,-5.5377,-5.526,-5.4962,-5.4914,-5.4795,-5.4645,-5.4465,-5.4397,-5.4296,-5.407,-5.3795,-5.3662,-5.3442,-5.3272,-5.3225,-5.3185,-5.3185,-5.3185,-5.3203,-5.3164,-5.3185,-5.3185,-5.3185,-5.3185,-5.3185,-5.3185,-5.3185,-5.3103,-5.2955,-5.2824,-5.2806,-5.2743,-5.2654,-5.2717,-5.2783,-5.2761,-5.2761,-5.2739,-5.2343,-5.2084,-5.1658,-5.1113,-5.0525,-5.0181,-4.9913,-4.9739,-4.9453,-4.9364,-4.9063,-4.8917,-4.8832,-4.8646,-4.8274,-4.78,-4.7428,-4.6701,-4.5771,-4.5534,-4.55,-4.5145,-4.4773,-4.5128,-4.55,-4.5314,-4.5043,-4.4869,-4.4682,-4.4485,-4.4395,-4.4525,-4.4367,-4.3856,-4.3393,-4.2923,-6.0403,-6.0403,-6.0403,-6.0403,-6.0403,-6.0403,-6.0403,-6.0403,-6.0403,-6.0403,-6.0403,-6.0403,-6.0403,-6.0403,-6.0403,-6.0403,-6.0403,-6.0403,-6.0403,-6.0403,-6.0403,-6.0403,-6.0174,-5.8727,-5.8421,-5.7944,-5.6568,-5.5613,-5.5498,-5.5479,-5.539,-5.539,-5.539,-5.539,-5.539,-5.539,-5.539,-5.539,-5.539,-5.539,-5.539,-5.539,-5.5345,-5.5319,-5.5292,-5.5246,-5.5118,-5.4903,-5.4746,-5.47,-5.4413,-5.407,-5.3777,-5.3682,-5.3462,-5.3314,-5.3185,-5.3185,-5.3185,-5.3185,-5.3185,-5.3185,-5.3185,-5.3185,-5.3185,-5.3185,-5.3185,-5.3185,-5.3164,-5.3078,-5.2912,-5.2934,-5.2809,-5.2765,-5.2783,-5.2846,-5.2846,-5.2912,-5.289,-5.2868,-5.254,-5.2297,-5.1904,-5.132,-5.0751,-5.0552,-5.0276,-4.9971,-4.9703,-4.9424,-4.9032,-4.8917,-4.8866,-4.8528,-4.8206,-4.7834,-4.7208,-4.616,-4.5821,-4.5788,-4.5348,-4.506,-4.5399,-4.5635,-4.5483,-4.5618,-4.5754,-4.5466,-4.4886,-4.4649,-4.4733,-4.4682,-4.4525,-4.403,-4.3542,-6.0474,-6.0403,-6.0403,-6.0403,-6.0403,-6.0403,-6.0403,-6.0403,-6.0403,-6.0403,-6.0403,-6.0403,-6.0403,-6.0403,-6.0403,-6.0403,-6.0403,-6.0403,-6.0403,-6.0403,-6.0403,-6.0403,-6.0269,-5.9663,-5.9185,-5.8383,-5.781,-5.7027,-5.6377,-5.5613,-5.539,-5.539,-5.539,-5.539,-5.539,-5.539,-5.539,-5.539,-5.539,-5.539,-5.539,-5.539,-5.539,-5.539,-5.539,-5.539,-5.5345,-5.5273,-5.514,-5.5066,-5.478,-5.4411,-5.4069,-5.3833,-5.3563,-5.3248,-5.3185,-5.3185,-5.3185,-5.3185,-5.3185,-5.3185,-5.3185,-5.3185,-5.3185,-5.3185,-5.3185,-5.3185,-5.3185,-5.3082,-5.2995,-5.306,-5.2977,-5.2915,-5.2912,-5.2955,-5.2995,-5.3017,-5.306,-5.3039,-5.2995,-5.2739,-5.2454,-5.1952,-5.1472,-5.1294,-5.0911,-5.0452,-5.0153,-4.9902,-4.9466,-4.8984,-4.8951,-4.8849,-4.8562,-4.824,-4.7868,-4.6972,-4.5962,-4.5855,-4.5483,-4.5382,-4.572,-4.5872,-4.5821,-4.6092,-4.6549,-4.5889,-4.4936,-4.4852,-4.4902,-4.475,-4.4598,-4.4525,-4.4001,-6.0596,-6.0514,-6.0444,-6.0403,-6.0403,-6.0403,-6.0403,-6.0403,-6.0403,-6.0403,-6.0403,-6.0403,-6.0403,-6.0403,-6.0403,-6.0403,-6.0403,-6.0403,-6.0403,-6.0403,-6.0403,-6.0403,-6.025,-6.0083,-5.9606,-5.9095,-5.8517,-5.7714,-5.6721,-5.6052,-5.5689,-5.5409,-5.539,-5.539,-5.539,-5.539,-5.539,-5.539,-5.539,-5.539,-5.539,-5.539,-5.539,-5.539,-5.539,-5.539,-5.539,-5.539,-5.5358,-5.53,-5.5127,-5.4795,-5.4446,-5.4209,-5.3833,-5.3522,-5.338,-5.3295,-5.323,-5.3185,-5.3185,-5.3185,-5.3185,-5.3185,-5.3185,-5.3185,-5.3185,-5.3185,-5.3185,-5.3124,-5.3063,-5.3121,-5.3082,-5.3042,-5.3063,-5.3146,-5.3185,-5.3164,-5.3143,-5.3121,-5.3121,-5.3143,-5.2828,-5.2435,-5.2161,-5.2,-5.1572,-5.0999,-5.0616,-5.0321,-4.9902,-4.9376,-4.9077,-4.906,-4.8863,-4.8575,-4.8206,-4.7767,-4.6786,-4.6041,-4.5737,-4.5737,-4.6007,-4.6092,-4.6177,-4.6802,-4.7411,-4.6143,-4.4993,-4.5077,-4.5077,-4.4767,-4.4598,-4.4615,-4.453,-6.086,-6.0828,-6.052,-6.0398,-6.0403,-6.0403,-6.0403,-6.0403,-6.0403,-6.0403,-6.0403,-6.0403,-6.0403,-6.0403,-6.0403,-6.0403,-6.0403,-6.0403,-6.0403,-6.0403,-6.0403,-6.0403,-6.025,-5.9835,-5.9357,-5.9128,-5.8842,-5.7925,-5.6868,-5.6702,-5.6091,-5.5498,-5.539,-5.539,-5.539,-5.539,-5.539,-5.539,-5.539,-5.539,-5.539,-5.539,-5.539,-5.539,-5.539,-5.539,-5.539,-5.539,-5.539,-5.539,-5.5319,-5.5099,-5.4716,-5.4588,-5.4243,-5.3833,-5.3681,-5.3583,-5.344,-5.3269,-5.3185,-5.3185,-5.3185,-5.3185,-5.3185,-5.3185,-5.3185,-5.3185,-5.3185,-5.3143,-5.3103,-5.3121,-5.3124,-5.3103,-5.3124,-5.3164,-5.3185,-5.3185,-5.3185,-5.3185,-5.3185,-5.3185,-5.3185,-5.2765,-5.2635,-5.2481,-5.2161,-5.1597,-5.1017,-5.0661,-5.0293,-4.9844,-4.9364,-4.9168,-4.9077,-4.8856,-4.8636,-4.8301,-4.7606,-4.6764,-4.6138,-4.6256,-4.6329,-4.6566,-4.6786,-4.753,-4.7902,-4.6667,-4.5754,-4.5517,-4.5246,-4.4801,-4.4699,-4.4801,-4.4784,-6.1147,-6.1131,-6.0867,-6.0673,-6.0501,-6.0439,-6.0403,-6.0403,-6.0403,-6.0403,-6.0403,-6.0403,-6.0403,-6.0403,-6.0403,-6.0403,-6.0403,-6.0403,-6.0403,-6.0403,-6.0403,-6.0403,-6.0198,-6.0116,-5.9892,-5.9778,-5.9434,-5.8631,-5.7542,-5.7409,-5.6473,-5.5842,-5.5498,-5.539,-5.539,-5.5441,-5.546,-5.5441,-5.5422,-5.5409,-5.539,-5.539,-5.539,-5.539,-5.539,-5.539,-5.539,-5.539,-5.539,-5.539,-5.539,-5.5173,-5.4933,-5.4855,-5.4576,-5.4158,-5.4069,-5.3962,-5.3776,-5.3481,-5.3206,-5.3185,-5.3185,-5.3206,-5.323,-5.3206,-5.3185,-5.3185,-5.3185,-5.3164,-5.3164,-5.3164,-5.3185,-5.3164,-5.3164,-5.3185,-5.3185,-5.3185,-5.3185,-5.3185,-5.3185,-5.3185,-5.3185,-5.3124,-5.302,-5.2937,-5.259,-5.2203,-5.164,-5.1165,-5.0849,-5.0515,-5.0056,-4.9815,-4.9727,-4.9428,-4.911,-4.8774,-4.8388,-4.7662,-4.6932,-4.6578,-4.6684,-4.6972,-4.7242,-4.7699,-4.7682,-4.7022,-4.6447,-4.6007,-4.5348,-4.4699,-4.475,-4.5021,-4.519,-6.1361,-6.133,-6.1172,-6.0951,-6.0729,-6.063,-6.057,-6.0577,-6.0553,-6.0487,-6.0458,-6.0458,-6.0458,-6.0458,-6.0458,-6.0472,-6.0458,-6.0444,-6.0458,-6.0458,-6.0444,-6.0431,-6.0431,-6.0392,-6.0316,-6.0403,-6.0288,-5.9529,-5.8307,-5.8288,-5.7294,-5.6301,-5.5747,-5.5708,-5.546,-5.567,-5.5747,-5.5747,-5.5747,-5.5766,-5.5785,-5.5517,-5.539,-5.539,-5.539,-5.539,-5.539,-5.539,-5.539,-5.539,-5.5358,-5.526,-5.5099,-5.4933,-5.478,-5.4576,-5.443,-5.4413,-5.4176,-5.3907,-5.3541,-5.3621,-5.3601,-5.3502,-5.338,-5.3336,-5.3359,-5.3185,-5.3185,-5.3206,-5.3206,-5.3185,-5.3185,-5.3164,-5.3164,-5.3185,-5.3185,-5.3185,-5.3185,-5.3185,-5.3185,-5.3185,-5.3185,-5.3164,-5.3103,-5.3042,-5.2872,-5.2586,-5.2273,-5.1879,-5.159,-5.1243,-5.0832,-5.0643,-5.0507,-5.0223,-4.997,-4.9578,-4.9147,-4.8545,-4.7911,-4.7458,-4.717,-4.7394,-4.7631,-4.7787,-4.7534,-4.7073,-4.6701,-4.6346,-4.5618,-4.4874,-4.5229,-4.5551,-4.5889,-6.151,-6.1481,-6.1361,-6.1179,-6.1007,-6.099,-6.0965,-6.0914,-6.0817,-6.0712,-6.0629,-6.0623,-6.0597,-6.0585,-6.0585,-6.0565,-6.0552,-6.0525,-6.0525,-6.0552,-6.0512,-6.0499,-6.0485,-6.0485,-6.0444,-6.0417,-6.0307,-5.9892,-5.8981,-5.8899,-5.7944,-5.6816,-5.6186,-5.6014,-5.5536,-5.6167,-5.6511,-5.6568,-5.6581,-5.6568,-5.6301,-5.5823,-5.5632,-5.539,-5.539,-5.539,-5.539,-5.539,-5.539,-5.539,-5.539,-5.5345,-5.5319,-5.5286,-5.5127,-5.4855,-5.481,-5.4654,-5.4364,-5.4296,-5.4228,-5.4105,-5.3998,-5.3962,-5.3758,-5.3662,-5.3545,-5.3398,-5.3355,-5.3293,-5.323,-5.3227,-5.3251,-5.3251,-5.3272,-5.3185,-5.3185,-5.3185,-5.3185,-5.3185,-5.3185,-5.3185,-5.3185,-5.3185,-5.3124,-5.3082,-5.302,-5.289,-5.2676,-5.2522,-5.2255,-5.2,-5.1622,-5.1396,-5.1225,-5.1078,-5.0796,-5.0407,-4.9883,-4.9229,-4.8689,-4.8197,-4.7975,-4.7966,-4.7922,-4.8041,-4.7682,-4.7225,-4.6599,-4.5974,-4.5754,-4.5382,-4.5737,-4.6092,-4.6413,-6.1631,-6.1628,-6.1572,-6.1534,-6.1432,-6.1133,-6.1007,-6.0998,-6.0958,-6.0915,-6.0848,-6.0773,-6.0723,-6.0708,-6.0647,-6.0623,-6.061,-6.0591,-6.0591,-6.0617,-6.0585,-6.0539,-6.0525,-6.0493,-6.0472,-6.0417,-6.0346,-5.9969,-5.9076,-5.9205,-5.8173,-5.695,-5.6377,-5.6014,-5.6167,-5.6587,-5.6778,-5.7332,-5.7409,-5.7199,-5.6645,-5.6282,-5.588,-5.5428,-5.539,-5.539,-5.539,-5.539,-5.539,-5.539,-5.539,-5.539,-5.539,-5.539,-5.5332,-5.5187,-5.5187,-5.5173,-5.5042,-5.5,-5.4769,-5.453,-5.433,-5.4296,-5.4105,-5.4105,-5.3907,-5.3719,-5.3738,-5.3699,-5.3603,-5.3563,-5.3543,-5.3502,-5.3422,-5.3251,-5.3185,-5.3185,-5.3185,-5.3185,-5.3185,-5.3185,-5.3185,-5.3185,-5.3164,-5.3124,-5.3103,-5.3103,-5.2955,-5.2995,-5.285,-5.2717,-5.2431,-5.2161,-5.191,-5.1728,-5.153,-5.1173,-5.0562,-4.9872,-4.9354,-4.8865,-4.8633,-4.8524,-4.8376,-4.824,-4.7784,-4.7208,-4.616,-4.55,-4.5365,-4.5534,-4.5872,-4.6346,-4.687,-6.1698,-6.1698,-6.1698,-6.1698,-6.1646,-6.1363,-6.1221,-6.1181,-6.1167,-6.1145,-6.105,-6.096,-6.0934,-6.0916,-6.0865,-6.08,-6.079,-6.0798,-6.0809,-6.0787,-6.0735,-6.0681,-6.0628,-6.0572,-6.0485,-6.0431,-6.0346,-6.0045,-5.9663,-5.9587,-5.8651,-5.739,-5.653,-5.6759,-5.6969,-5.7179,-5.7504,-5.7982,-5.8039,-5.76,-5.7027,-5.6492,-5.588,-5.5536,-5.539,-5.539,-5.539,-5.539,-5.539,-5.539,-5.539,-5.539,-5.539,-5.539,-5.539,-5.539,-5.539,-5.539,-5.5364,-5.5332,-5.5071,-5.4814,-5.4692,-5.461,-5.453,-5.4479,-5.4262,-5.4141,-5.4228,-5.4123,-5.3961,-5.3907,-5.3851,-5.3777,-5.3603,-5.342,-5.3227,-5.3227,-5.3206,-5.3206,-5.3185,-5.3185,-5.3185,-5.3185,-5.3185,-5.3185,-5.3185,-5.3185,-5.3185,-5.3185,-5.3185,-5.306,-5.2974,-5.2698,-5.2522,-5.2412,-5.2161,-5.1915,-5.1268,-5.0589,-5.0004,-4.955,-4.9291,-4.9015,-4.8748,-4.8426,-4.7902,-4.7192,-4.6363,-4.5618,-4.5156,-4.5432,-4.594,-4.643,-4.6921,-6.1698,-6.1698,-6.1698,-6.1698,-6.1698,-6.1646,-6.1579,-6.1514,-6.151,-6.1401,-6.1233,-6.1226,-6.1179,-6.1206,-6.1192,-6.1135,-6.1112,-6.1089,-6.1097,-6.11,-6.0973,-6.0896,-6.0792,-6.0716,-6.0645,-6.0507,-6.0428,-6.0411,-6.0368,-5.9939,-5.9079,-5.8225,-5.7626,-5.7703,-5.7817,-5.7995,-5.8307,-5.8574,-5.844,-5.7905,-5.7275,-5.6358,-5.5804,-5.5466,-5.539,-5.539,-5.539,-5.539,-5.539,-5.539,-5.539,-5.539,-5.539,-5.539,-5.539,-5.539,-5.539,-5.539,-5.539,-5.539,-5.539,-5.5187,-5.526,-5.5146,-5.4981,-5.4825,-5.4639,-5.4479,-5.4482,-5.4397,-5.4313,-5.4245,-5.4174,-5.4015,-5.3814,-5.3584,-5.3336,-5.3272,-5.3248,-5.3227,-5.3206,-5.3185,-5.3185,-5.3185,-5.3185,-5.3185,-5.3185,-5.3185,-5.3185,-5.3185,-5.3185,-5.3185,-5.3121,-5.3164,-5.2999,-5.2828,-5.2721,-5.2431,-5.1988,-5.1337,-5.076,-5.0056,-4.9555,-4.9182,-4.8995,-4.8545,-4.7699,-4.7208,-4.6819,-4.6075,-4.5275,-4.5732,-4.6329,-4.6278,-4.6684,-6.1698,-6.1698,-6.1698,-6.1698,-6.1698,-6.1698,-6.1671,-6.1637,-6.1654,-6.1602,-6.1545,-6.1456,-6.1406,-6.1401,-6.1279,-6.1226,-6.1193,-6.1179,-6.1172,-6.1158,-6.1162,-6.1089,-6.1023,-6.0962,-6.0877,-6.0787,-6.0688,-6.058,-6.0409,-6.0073,-5.9593,-5.8846,-5.8445,-5.8477,-5.8648,-5.8767,-5.8907,-5.8893,-5.8658,-5.8001,-5.7275,-5.6377,-5.5842,-5.5536,-5.539,-5.539,-5.539,-5.539,-5.539,-5.539,-5.539,-5.539,-5.539,-5.539,-5.539,-5.539,-5.539,-5.539,-5.539,-5.539,-5.539,-5.539,-5.539,-5.5358,-5.526,-5.5159,-5.5009,-5.4859,-5.4829,-5.4814,-5.4719,-5.4642,-5.4544,-5.4378,-5.4173,-5.3925,-5.3681,-5.3563,-5.3522,-5.3314,-5.3272,-5.3185,-5.3185,-5.3185,-5.3185,-5.3185,-5.3185,-5.3185,-5.3185,-5.3185,-5.3185,-5.3185,-5.3185,-5.3185,-5.3185,-5.3039,-5.302,-5.2934,-5.2454,-5.1922,-5.1191,-5.047,-4.9756,-4.9197,-4.8782,-4.8064,-4.7192,-4.6853,-4.6701,-4.6143,-4.5495,-4.6138,-4.6595,-4.6312,-4.6278,-6.1698,-6.1698,-6.1698,-6.1698,-6.1698,-6.1698,-6.1698,-6.1698,-6.1698,-6.1698,-6.1676,-6.1602,-6.158,-6.1557,-6.1456,-6.1413,-6.1413,-6.1417,-6.1417,-6.1413,-6.1348,-6.1272,-6.122,-6.1158,-6.1015,-6.0956,-6.0914,-6.0828,-6.0623,-6.031,-5.9837,-5.9338,-5.9008,-5.9219,-5.93,-5.9202,-5.8961,-5.8783,-5.8432,-5.776,-5.7027,-5.6301,-5.5804,-5.5536,-5.539,-5.539,-5.539,-5.539,-5.539,-5.539,-5.539,-5.539,-5.539,-5.539,-5.539,-5.539,-5.539,-5.539,-5.539,-5.539,-5.539,-5.539,-5.539,-5.539,-5.539,-5.5319,-5.5214,-5.5113,-5.5246,-5.5305,-5.5159,-5.5023,-5.4899,-5.4791,-5.4557,-5.4328,-5.4139,-5.3961,-5.3738,-5.3481,-5.3336,-5.3227,-5.3185,-5.3185,-5.3185,-5.3185,-5.3185,-5.3185,-5.3185,-5.3185,-5.3185,-5.3185,-5.3185,-5.3185,-5.3185,-5.3185,-5.3164,-5.3082,-5.285,-5.2278,-5.1579,-5.1025,-5.043,-4.9453,-4.8413,-4.7725,-4.7131,-4.6747,-4.6481,-4.5991,-4.5652,-4.5901,-4.6024,-4.5737,-4.5821,-6.1698,-6.1698,-6.1698,-6.1698,-6.1698,-6.1698,-6.1698,-6.1698,-6.1698,-6.1698,-6.1698,-6.1698,-6.1693,-6.1666,-6.1634,-6.1637,-6.1612,-6.1612,-6.1609,-6.1674,-6.1553,-6.1471,-6.1392,-6.1272,-6.1253,-6.1126,-6.1031,-6.1026,-6.099,-6.0717,-6.0306,-5.9736,-6.0208,-6.0102,-5.934,-5.9241,-5.8811,-5.8107,-5.7822,-5.7334,-5.6537,-5.5842,-5.539,-5.539,-5.539,-5.539,-5.539,-5.539,-5.539,-5.539,-5.539,-5.539,-5.539,-5.539,-5.539,-5.539,-5.539,-5.539,-5.539,-5.539,-5.539,-5.539,-5.539,-5.539,-5.539,-5.539,-5.5319,-5.5286,-5.5358,-5.5377,-5.526,-5.5214,-5.514,-5.5052,-5.4903,-5.4639,-5.4428,-5.4209,-5.3944,-5.368,-5.3482,-5.3378,-5.3185,-5.3185,-5.3185,-5.3185,-5.3185,-5.3185,-5.3185,-5.3185,-5.3185,-5.3185,-5.3185,-5.3185,-5.3185,-5.3185,-5.3185,-5.3103,-5.2977,-5.2617,-5.1922,-5.1497,-5.1172,-5.0091,-4.8953,-4.7928,-4.7254,-4.6856,-4.6515,-4.6244,-4.5923,-4.5669,-4.55,-4.5297,-4.5297,-6.1698,-6.1698,-6.1698,-6.1698,-6.1698,-6.1698,-6.1698,-6.1698,-6.1698,-6.1698,-6.1698,-6.1698,-6.1698,-6.1698,-6.1698,-6.1698,-6.1698,-6.1698,-6.1698,-6.1698,-6.1657,-6.1625,-6.1612,-6.1534,-6.1506,-6.1498,-6.1383,-6.1208,-6.1107,-6.0992,-6.0724,-5.9971,-6.0262,-5.989,-5.9141,-5.8955,-5.8294,-5.7554,-5.7203,-5.6756,-5.593,-5.567,-5.539,-5.5403,-5.5403,-5.5403,-5.5403,-5.539,-5.539,-5.539,-5.539,-5.539,-5.539,-5.539,-5.539,-5.539,-5.539,-5.539,-5.539,-5.539,-5.539,-5.539,-5.539,-5.539,-5.539,-5.539,-5.539,-5.539,-5.539,-5.539,-5.539,-5.5371,-5.5358,-5.5286,-5.5214,-5.4947,-5.47,-5.4428,-5.4158,-5.3925,-5.37,-5.3502,-5.3316,-5.3227,-5.3185,-5.3185,-5.3185,-5.3185,-5.3185,-5.3185,-5.3185,-5.3185,-5.3185,-5.3185,-5.3185,-5.3185,-5.3185,-5.3164,-5.3042,-5.2662,-5.2224,-5.176,-5.1308,-5.0596,-4.9609,-4.8437,-4.7431,-4.6873,-4.658,-4.6329,-4.6072,-4.5773,-4.5439,-4.5196,-4.5043,-6.1698,-6.1698,-6.1698,-6.1698,-6.1698,-6.1698,-6.1698,-6.1698,-6.1698,-6.1698,-6.1698,-6.1698,-6.1698,-6.1698,-6.1698,-6.1698,-6.1698,-6.1698,-6.1698,-6.1698,-6.1698,-6.1696,-6.1698,-6.1698,-6.1671,-6.1663,-6.1602,-6.1456,-6.1301,-6.1298,-6.1061,-6.0532,-6.0305,-5.9816,-5.9147,-5.8597,-5.7862,-5.7273,-5.6878,-5.6281,-5.5632,-5.5551,-5.5434,-5.5396,-5.5403,-5.5403,-5.5403,-5.539,-5.539,-5.539,-5.539,-5.539,-5.539,-5.539,-5.539,-5.539,-5.539,-5.539,-5.539,-5.539,-5.539,-5.539,-5.539,-5.539,-5.539,-5.539,-5.539,-5.539,-5.539,-5.539,-5.539,-5.5371,-5.5371,-5.5332,-5.5332,-5.5187,-5.4976,-5.4746,-5.4557,-5.4411,-5.4174,-5.3962,-5.3776,-5.3543,-5.3522,-5.3402,-5.338,-5.3248,-5.3227,-5.3185,-5.3185,-5.3185,-5.3185,-5.3185,-5.3185,-5.3185,-5.3185,-5.3146,-5.3124,-5.2959,-5.264,-5.2,-5.1401,-5.0887,-5.003,-4.8596,-4.7717,-4.7178,-4.6644,-4.6316,-4.6065,-4.58,-4.5473,-4.519,-4.501,-6.1386,-6.1544,-6.1659,-6.1698,-6.1698,-6.1698,-6.1698,-6.1698,-6.1698,-6.1698,-6.1698,-6.1698,-6.1698,-6.1698,-6.1698,-6.1698,-6.1698,-6.1698,-6.1698,-6.1698,-6.1698,-6.1698,-6.1698,-6.1698,-6.1698,-6.1698,-6.1668,-6.1668,-6.1615,-6.1592,-6.1455,-6.128,-6.0808,-6.0249,-5.9631,-5.8739,-5.7756,-5.7387,-5.6945,-5.634,-5.5971,-5.5721,-5.5583,-5.5489,-5.5437,-5.5439,-5.5428,-5.5409,-5.5409,-5.5384,-5.5384,-5.539,-5.539,-5.539,-5.539,-5.539,-5.539,-5.539,-5.539,-5.539,-5.539,-5.539,-5.539,-5.539,-5.539,-5.5409,-5.5409,-5.5428,-5.5428,-5.5517,-5.5517,-5.5613,-5.5613,-5.5517,-5.5517,-5.5409,-5.5214,-5.5052,-5.4928,-5.4791,-5.4591,-5.4382,-5.4177,-5.3944,-5.3814,-5.3701,-5.3563,-5.338,-5.3272,-5.3227,-5.3185,-5.3185,-5.3185,-5.3185,-5.3185,-5.3185,-5.3185,-5.3185,-5.3146,-5.3185,-5.306,-5.2554,-5.2025,-5.1501,-5.0471,-4.9383,-4.8311,-4.7628,-4.7058,-4.6438,-4.6427,-4.6268,-4.5822,-4.5497,-4.5097,-6.0002,-6.0705,-6.1388,-6.1698,-6.1698,-6.1698,-6.1698,-6.1698,-6.1698,-6.1698,-6.1698,-6.1698,-6.1698,-6.1698,-6.1698,-6.1698,-6.1698,-6.1698,-6.1698,-6.1698,-6.1698,-6.1698,-6.1698,-6.1698,-6.1698,-6.1698,-6.1698,-6.1698,-6.1698,-6.1679,-6.1344,-6.0765,-6.0631,-6.0073,-5.9366,-5.8643,-5.8311,-5.7864,-5.7517,-5.7072,-5.633,-5.6071,-5.5842,-5.5721,-5.5662,-5.5575,-5.552,-5.5488,-5.5432,-5.5402,-5.539,-5.5384,-5.539,-5.539,-5.539,-5.539,-5.539,-5.539,-5.539,-5.539,-5.539,-5.539,-5.539,-5.539,-5.5428,-5.5517,-5.5536,-5.5575,-5.5651,-5.588,-5.5995,-5.6301,-5.6377,-5.6091,-5.5976,-5.5632,-5.5357,-5.5246,-5.5173,-5.499,-5.4791,-5.4591,-5.4416,-5.4262,-5.421,-5.407,-5.3851,-5.3681,-5.3583,-5.342,-5.3248,-5.3248,-5.323,-5.3185,-5.3185,-5.3185,-5.3185,-5.3185,-5.3185,-5.3185,-5.3185,-5.3164,-5.2703,-5.2182,-5.1628,-5.074,-4.9645,-4.8312,-4.7376,-4.6896,-4.6971,-4.6828,-4.6308,-4.5866,-4.5516]},{"header":{"parameterUnit":"m.s-1","parameterCategory":1,"la1":31.0,"la2":29.5877,"lo1":-88.7671,"lo2":-86.6584,"dy":0.0162,"dx":0.0185,"nx":115,"ny":88,"refTime":"2025-05-22T12:00:00:Z","depth":0,"parameterNumber":3,"parameterNumberName":"V-component_of_WINDS"},"data":[0.0,0.0,0.0,0.0,0.0,0.0,0.0,0.0,0.0,0.0,0.0,0.0,0.0,0.0,0.0,0.0,0.0,0.0,0.0,0.0,0.0,0.0,0.0,0.0,0.0,0.0,0.0,0.0,0.0,0.0,0.0,0.0,0.0,0.0,0.0,0.0,0.0,0.0,0.0,0.0,0.0,0.0,0.0,0.0,0.0,0.0,0.0,0.0,0.0,0.0,0.0,0.0,0.0,0.0,0.0,0.0,0.0,0.0,0.0,0.0,0.0,0.0,0.0,0.0,0.0,0.0,0.0,0.0,0.0,0.0,0.0,0.0,0.0,0.0,0.0,0.0,0.0,0.0,0.0,0.0,0.0,0.0,0.0,0.0,0.0,0.0,0.0,0.0,0.0,0.0,0.0,0.0,0.0,0.0,0.0,0.0,0.0,0.0,0.0,0.0,0.0,0.0,0.0,0.0,0.0,0.0,0.0,0.0,0.0,0.0,0.0,0.0,0.0,0.0,0.0,0.0,0.0,0.0,0.0,0.0,0.0,0.0,0.0,0.0,0.0,0.0,0.0,0.0,0.0,0.0,0.0,0.0,0.0,0.0,0.0,0.0,0.0,0.0,0.0,0.0,0.0,0.0,0.0,0.0,0.0,0.0,0.0,0.0,0.0,0.0,0.0,0.0,0.0,0.0,0.0,0.0,0.0,0.0,0.0,0.0,0.0,0.0,0.0,0.0,0.0,0.0,0.0,0.0,0.0,0.0,0.0,0.0,0.0,0.0,0.0,0.0,0.0,0.0,0.0,0.0,0.0,0.0,0.0,0.0,0.0,0.0,0.0,0.0,0.0,0.0,0.0,0.0,0.0,0.0,0.0,0.0,0.0,0.0,0.0,0.0,0.0,0.0,0.0,0.0,0.0,0.0,0.0,0.0,0.0,0.0,0.0,0.0,0.0,0.0,0.0,0.0,0.0,0.0,0.0,0.0,0.0,0.0,0.0,0.0,0.0,0.0,0.0,0.0,0.0,0.0,0.0,0.0,0.0,0.0,0.0,0.0,0.0,0.0,0.0,0.0,0.0,0.0,0.0,0.0,0.0,0.0,0.0,0.0,0.0,0.0,0.0,0.0,0.0,0.0,0.0,0.0,0.0,0.0,0.0,0.0,0.0,0.0,0.0,0.0,0.0,0.0,0.0,0.0,0.0,0.0,0.0,0.0,0.0,0.0,0.0,0.0,0.0,0.0,0.0,0.0,0.0,0.0,0.0,0.0,0.0,0.0,0.0,0.0,0.0,0.0,0.0,0.0,0.0,0.0,0.0,0.0,0.0,0.0,0.0,0.0,0.0,0.0,0.0,0.0,0.0,0.0,0.0,0.0,0.0,0.0,0.0,0.0,0.0,0.0,0.0,0.0,0.0,0.0,0.0,0.0,0.0,0.0,0.0,0.0,0.0,0.0,0.0,0.0,0.0,0.0,0.0,0.0,0.0,0.0,0.0,0.0,0.0,0.0,0.0,0.0,0.0,0.0,0.0,0.0,0.0,0.0,0.0,0.0,0.0,0.0,0.0,0.0,0.0,0.0,0.0,0.0,0.0,0.0,0.0,0.0,0.0,0.0,0.0,0.0,0.0,0.0,0.0,0.0,0.0,0.0,0.0,0.0,0.0,0.0,0.0,0.0,0.0,0.0,0.0,0.0,0.0,0.0,0.0,0.0,0.0,0.0,0.0,0.0,0.0,0.0,0.0,0.0,0.0,0.0,0.0,0.0,0.0,0.0,0.0,0.0,0.0,0.0,0.0,0.0,0.0,0.0,0.0,0.0,0.0,0.0,0.0,0.0,0.0,0.0,0.0,0.0,0.0,0.0,0.0,0.0,0.0,0.0,0.0,0.0,0.0,0.0,0.0,0.0,0.0,0.0,0.0,0.0,0.0,0.0,0.0,0.0,0.0,0.0,0.0,0.0,0.0,0.0,0.0,0.0,0.0,0.0,0.0,0.0,0.0,0.0,0.0,0.0,0.0,0.0,0.0,0.0,0.0,0.0,0.0,0.0,0.0,0.0,0.0,0.0,0.0,0.0,0.0,0.0,0.0,0.0,0.0,0.0,0.0,0.0,0.0,0.0,0.0,0.0,0.0,0.0,0.0,0.0,0.0,0.0,0.0,0.0,0.0,0.0,0.0,0.0,0.0,0.0,0.0,0.0,0.0,0.0,0.0,0.0,0.0,0.0,0.0,0.0,0.0,0.0,0.0,0.0,0.0,0.0,0.0,0.0,0.0,0.0,0.0,0.0,0.0,0.0,0.0,0.0,0.0,0.0,0.0,0.0,0.0,0.0,0.0,0.0,0.0,0.0,0.0,0.0,0.0,0.0,0.0,0.0,0.0,0.0,0.0,0.0,0.0,0.0,0.0,0.0,0.0,0.0,0.0,0.0,0.0,0.0,0.0,0.0,0.0,0.0,0.0,0.0,0.0,0.0,0.0,0.0,0.0,0.0,0.0,0.0,0.0,0.0,0.0,0.0,0.0,0.0,0.0,0.0,0.0,0.0,0.0,0.0,0.0,0.0,0.0,0.0,0.0,0.0,0.0,0.0,0.0,0.0,0.0,0.0,0.0,0.0,0.0,0.0,0.0,0.0,0.0,0.0,0.0,0.0,0.0,0.0,0.0,0.0,0.0,0.0,0.0,0.0,0.0,0.0,0.0,0.0,0.0,0.0,0.0,0.0,0.0,0.0,0.0,0.0,0.0,0.0,0.0,0.0,0.0,0.0,0.0,0.0,0.0,0.0,0.0,0.0,0.0,0.0,0.0,0.0,0.0,0.0,0.0,0.0,0.0,0.0,0.0,0.0,0.0,0.0,0.0,0.0,0.0,0.0,0.0,0.0,0.0,0.0,0.0,0.0,0.0,0.0,0.0,0.0,0.0,0.0,0.0,0.0,0.0,0.0,0.0,0.0,0.0,0.0,0.0,0.0,0.0,0.0,0.0,0.0,0.0,0.0,0.0,0.0,0.0,0.0,0.0,0.0,0.0,0.0,0.0,0.0,0.0,0.0,0.0,0.0,0.0,0.0,0.0,0.0,0.0,0.0,0.0,0.0,0.0,0.0,0.0,0.0,0.0,0.0,0.0,0.0,0.0,0.0,0.0,0.0,0.0,0.0,0.0,0.0,0.0,0.0,0.0,0.0,0.0,0.0,0.0,0.0,0.0,0.0,0.0,0.0,0.0,0.0,0.0,0.0,0.0,0.0,0.0,0.0,0.0,0.0,0.0,0.0,0.0,0.0,0.0,0.0,0.0,0.0,0.0,0.0,0.0,0.0,0.0,0.0,0.0,0.0,0.0,0.0,0.0,0.0,0.0,0.0,0.0,0.0,0.0,0.0,0.0,0.0,0.0,0.0,0.0,0.0,0.0,0.0,0.0,0.0,0.0,0.0,0.0,0.0,0.0,0.0,0.0,0.0,0.0,0.0,0.0,0.0,0.0,0.0,0.0,0.0,0.0,0.0,0.0,0.0,0.0,0.0,0.0,0.0,0.0,0.0,0.0,0.0,0.0,0.0,0.0,0.0,0.0,0.0,0.0,0.0,0.0,0.0,0.0,0.0,0.0,0.0,0.0,0.0,0.0,0.0,0.0,0.0,0.0,0.0,0.0,0.0,0.0,0.0,0.0,0.0,0.0,0.0,0.0,0.0,0.0,0.0,0.0,0.0,0.0,0.0,0.0,0.0,0.0,0.0,0.0,0.0,0.0,0.0,0.0,0.0,0.0,0.0,0.0,0.0,0.0,0.0,0.0,0.0,0.0,0.0,0.0,0.0,0.0,0.0,0.0,0.0,0.0,0.0,0.0,0.0,0.0,0.0,0.0,0.0,0.0,0.0,0.0,0.0,0.0,0.0,0.0,0.0,0.0,0.0,0.0,0.0,0.0,0.0,0.0,0.0,0.0,0.0,0.0,0.0,0.0,0.0,0.0,0.0,0.0,0.0,0.0,0.0,0.0,0.0,0.0,0.0,0.0,0.0,0.0,0.0,0.0,0.0,0.0,0.0,0.0,0.0,0.0,0.0,0.0,0.0,0.0,0.0,0.0,0.0,0.0,0.0,0.0,0.0,0.0,0.0,0.0,0.0,0.0,0.0,0.0,0.0,0.0,0.0,0.0,0.0,0.0,0.0,0.0,0.0,0.0,0.0,0.0,0.0,0.0,0.0,0.0,0.0,0.0,0.0,0.0,0.0,0.0,0.0,0.0,0.0,0.0,0.0,0.0,0.0,0.0,0.0,0.0,0.0,0.0,0.0,-0.4268,0.0,0.0,0.0,0.0,0.0,0.0,0.0,0.0,0.0,0.0,0.0,0.0,0.0,0.0,0.0,0.0,0.0,0.0,0.0,0.0,0.0,0.0,0.0,0.0,0.0,0.0,0.0,0.0,0.0,0.0,0.0,0.0,0.0,0.0,0.0,0.0,0.0,0.0,0.0,0.0,0.0,0.0,0.0,0.0,0.0,0.0,0.0,0.0,0.0,0.0,0.0,0.0,0.0,0.0,0.0,0.0,0.0,0.0,0.0,0.0,0.0,0.0,0.0,0.0,0.0,0.0,0.0,0.0,0.0,0.0,0.0,0.0,0.0,0.0,0.0,0.0,0.0,0.0,0.0,0.0,0.0,0.0,0.0,0.0,0.0,0.0,0.0,0.0,0.0,0.0,0.0,0.0,0.0,0.0,0.0,0.0,0.0,0.0,0.0,0.0,0.0,0.0,0.0,0.0,0.0,0.0,0.0,0.0,0.0,0.0,-0.4301,-0.4293,-0.4006,-0.3988,-0.428,0.0,0.0,0.0,0.0,0.0,0.0,0.0,0.0,0.0,0.0,0.0,0.0,0.0,0.0,0.0,0.0,0.0,0.0,0.0,0.0,0.0,0.0,0.0,0.0,0.0,0.0,0.0,0.0,0.0,0.0,0.0,0.0,0.0,0.0,0.0,0.0,0.0,0.0,0.0,0.0,0.0,0.0,0.0,0.0,0.0,0.0,0.0,0.0,0.0,0.0,0.0,0.0,0.0,0.0,0.0,0.0,0.0,0.0,0.0,0.0,0.0,0.0,0.0,0.0,0.0,0.0,0.0,0.0,0.0,0.0,0.0,0.0,0.0,0.0,0.0,0.0,0.0,0.0,0.0,0.0,0.0,0.0,0.0,0.0,0.0,0.0,0.0,0.0,0.0,0.0,0.0,0.0,0.0,0.0,0.0,0.0,0.0,0.0,0.0,0.0,0.0,0.0,0.0,0.0,0.0,0.0,0.0,0.0,0.0,0.0,0.0,0.0,-0.4263,-0.4233,-0.4521,0.0,0.0,0.0,0.0,0.0,0.0,0.0,0.0,0.0,0.0,0.0,0.0,0.0,0.0,0.0,0.0,0.0,0.0,0.0,0.0,0.0,0.0,0.0,0.0,0.0,0.0,0.0,0.0,0.0,0.0,0.0,0.0,0.0,0.0,0.0,0.0,0.0,0.0,0.0,0.0,0.0,0.0,0.0,0.0,0.0,0.0,0.0,0.0,0.0,0.0,0.0,0.0,0.0,0.0,0.0,0.0,0.0,0.0,0.0,0.0,0.0,0.0,0.0,0.0,0.0,0.0,0.0,0.0,0.0,0.0,0.0,0.0,0.0,0.0,0.0,0.0,0.0,0.0,0.0,0.0,0.0,0.0,0.0,0.0,0.0,0.0,0.0,0.0,0.0,0.0,0.0,0.0,0.0,0.0,0.0,0.0,0.0,0.0,0.0,0.0,0.0,0.0,0.0,0.0,0.0,0.0,0.0,0.0,0.0,0.0,-0.459,-0.518,-0.4901,0.0,-0.518,0.0,0.0,0.0,0.0,0.0,0.0,0.0,0.0,0.0,0.0,0.0,0.0,0.0,0.0,0.0,0.0,0.0,0.0,0.0,0.0,0.0,0.0,0.0,0.0,0.0,0.0,0.0,0.0,0.0,0.0,0.0,0.0,0.0,0.0,0.0,0.0,0.0,0.0,0.0,0.0,0.0,0.0,0.0,0.0,0.0,0.0,0.0,0.0,0.0,0.0,0.0,0.0,0.0,0.0,0.0,0.0,0.0,0.0,0.0,0.0,0.0,0.0,0.0,0.0,0.0,0.0,0.0,0.0,0.0,0.0,0.0,0.0,0.0,0.0,0.0,0.0,0.0,0.0,0.0,0.0,0.0,0.0,0.0,0.0,0.0,0.0,0.0,0.0,0.0,0.0,0.0,0.0,0.0,0.0,0.0,0.0,0.0,0.0,0.0,0.0,0.0,0.0,0.0,0.0,0.0,0.0,0.0,0.0,0.0,0.0,0.0,-0.5304,-0.5165,-0.5057,0.0,0.0,0.0,0.0,0.0,0.0,0.0,0.0,0.0,0.0,0.0,0.0,0.0,0.0,0.0,0.0,0.0,0.0,0.0,0.0,0.0,0.0,0.0,0.0,0.0,0.0,0.0,0.0,0.0,0.0,0.0,0.0,0.0,0.0,0.0,0.0,0.0,0.0,0.0,0.0,0.0,0.0,0.0,0.0,0.0,0.0,0.0,0.0,0.0,0.0,0.0,0.0,0.0,0.0,0.0,0.0,0.0,0.0,0.0,0.0,0.0,0.0,0.0,0.0,0.0,0.0,0.0,0.0,0.0,0.0,0.0,0.0,0.0,0.0,0.0,0.0,0.0,0.0,0.0,0.0,0.0,0.0,0.0,0.0,0.0,0.0,0.0,0.0,0.0,0.0,0.0,0.0,0.0,0.0,0.0,0.0,0.0,0.0,0.0,0.0,0.0,0.0,0.0,0.0,0.0,0.0,0.0,0.0,0.0,0.0,-0.5091,0.0,-0.5554,-0.5488,-0.5253,-0.4809,0.0,0.0,0.0,0.0,0.0,0.0,0.0,0.0,0.0,0.0,0.0,0.0,0.0,0.0,0.0,0.0,0.0,0.0,0.0,0.0,0.0,0.0,0.0,0.0,0.0,0.0,0.0,0.0,0.0,0.0,0.0,0.0,0.0,0.0,0.0,0.0,0.0,0.0,0.0,0.0,0.0,0.0,0.0,0.0,0.0,0.0,0.0,0.0,0.0,0.0,0.0,0.0,0.0,0.0,0.0,0.0,0.0,0.0,0.0,0.0,0.0,0.0,0.0,0.0,0.0,0.0,0.0,0.0,0.0,0.0,0.0,0.0,0.0,0.0,0.0,0.0,0.0,0.0,0.0,0.0,0.0,0.0,0.0,0.0,0.0,0.0,0.0,0.0,0.0,0.0,0.0,0.0,0.0,0.0,0.0,0.0,0.0,0.0,0.0,0.0,0.0,0.0,0.0,0.0,0.0,0.0,0.0,0.0,0.0,-0.5713,-0.5612,-0.6231,-0.5951,-0.5465,0.0,0.0,0.0,0.0,0.0,0.0,0.0,0.0,0.0,0.0,0.0,0.0,0.0,0.0,0.0,0.0,0.0,0.0,0.0,0.0,0.0,0.0,0.0,0.0,0.0,0.0,0.0,0.0,0.0,0.0,0.0,0.0,0.0,0.0,0.0,0.0,0.0,0.0,0.0,0.0,0.0,0.0,0.0,0.0,0.0,0.0,0.0,0.0,0.0,0.0,0.0,0.0,0.0,0.0,0.0,0.0,0.0,0.0,0.0,0.0,0.0,0.0,0.0,0.0,0.0,0.0,0.0,0.0,0.0,0.0,0.0,0.0,0.0,0.0,0.0,0.0,0.0,0.0,0.0,0.0,0.0,0.0,0.0,0.0,0.0,0.0,0.0,0.0,0.0,0.0,0.0,0.0,0.0,0.0,0.0,0.0,0.0,0.0,0.0,0.0,0.0,0.0,0.0,0.0,0.0,0.0,0.0,0.0,0.0,-0.4884,-0.5157,-0.5802,-0.6804,-0.597,-0.5466,0.0,0.0,0.0,0.0,0.0,0.0,0.0,0.0,0.0,0.0,0.0,0.0,0.0,0.0,0.0,0.0,0.0,0.0,0.0,0.0,0.0,0.0,0.0,0.0,0.0,0.0,0.0,0.0,0.0,0.0,0.0,0.0,0.0,0.0,0.0,0.0,0.0,0.0,0.0,0.0,0.0,0.0,0.0,0.0,0.0,0.0,0.0,0.0,0.0,0.0,0.0,0.0,0.0,0.0,0.0,0.0,0.0,0.0,0.0,0.0,0.0,0.0,0.0,0.0,0.0,0.0,0.0,0.0,0.0,0.0,0.0,0.0,0.0,0.0,0.0,0.0,0.0,0.0,0.0,0.0,0.0,0.0,0.0,0.0,0.0,0.0,0.0,0.0,0.0,0.0,0.0,0.0,0.0,0.0,0.0,0.0,0.0,0.0,0.0,0.0,0.0,0.0,0.0,0.0,0.0,0.0,0.0,0.0,0.0,-0.4973,0.0,-0.6512,0.0,-0.6124,-0.5473,0.0,0.0,0.0,0.0,0.0,0.0,0.0,0.0,0.0,0.0,0.0,0.0,0.0,0.0,0.0,0.0,0.0,0.0,0.0,0.0,0.0,0.0,0.0,0.0,0.0,0.0,0.0,0.0,0.0,0.0,0.0,0.0,0.0,0.0,0.0,0.0,0.0,0.0,0.0,0.0,0.0,0.0,0.0,0.0,0.0,0.0,0.0,0.0,0.0,0.0,0.0,0.0,0.0,0.0,0.0,0.0,0.0,0.0,0.0,0.0,0.0,0.0,0.0,0.0,0.0,0.0,0.0,0.0,0.0,0.0,0.0,0.0,0.0,0.0,0.0,0.0,0.0,0.0,0.0,0.0,0.0,0.0,0.0,0.0,0.0,0.0,0.0,0.0,0.0,0.0,0.0,0.0,0.0,0.0,0.0,0.0,0.0,0.0,0.0,0.0,0.0,0.0,0.0,0.0,0.0,0.0,0.0,0.0,-0.5575,-0.7071,-0.7713,-0.758,-0.6746,-0.6387,-0.5532,0.0,0.0,0.0,0.0,0.0,0.0,0.0,0.0,0.0,0.0,0.0,0.0,0.0,0.0,0.0,0.0,0.0,0.0,0.0,0.0,0.0,0.0,0.0,0.0,0.0,0.0,0.0,0.0,0.0,0.0,0.0,0.0,0.0,0.0,0.0,0.0,0.0,0.0,0.0,0.0,0.0,0.0,0.0,0.0,0.0,0.0,0.0,0.0,0.0,0.0,0.0,0.0,0.0,0.0,0.0,0.0,0.0,0.0,0.0,0.0,0.0,0.0,0.0,0.0,0.0,0.0,0.0,0.0,0.0,0.0,0.0,0.0,0.0,0.0,0.0,0.0,0.0,0.0,0.0,0.0,0.0,0.0,0.0,0.0,0.0,0.0,0.0,0.0,0.0,0.0,0.0,0.0,0.0,0.0,0.0,0.0,0.0,0.0,0.0,0.0,0.0,0.0,0.0,0.0,0.0,0.0,0.0,0.0,0.0,-0.5897,-0.6331,-0.6709,-0.6998,-0.5897,-0.5253,0.0,0.0,0.0,0.0,0.0,0.0,0.0,0.0,0.0,0.0,0.0,0.0,0.0,0.0,0.0,0.0,0.0,0.0,0.0,0.0,0.0,0.0,0.0,0.0,0.0,0.0,0.0,0.0,0.0,0.0,0.0,0.0,0.0,0.0,0.0,0.0,0.0,0.0,0.0,0.0,0.0,0.0,0.0,0.0,0.0,0.0,0.0,0.0,0.0,0.0,0.0,0.0,0.0,0.0,0.0,0.0,0.0,0.0,0.0,0.0,0.0,0.0,0.0,0.0,0.0,0.0,0.0,0.0,0.0,0.0,0.0,0.0,0.0,0.0,0.0,0.0,0.0,0.0,0.0,0.0,0.0,0.0,0.0,0.0,0.0,0.0,0.0,0.0,0.0,0.0,0.0,0.0,0.0,0.0,0.0,0.0,0.0,0.0,0.0,0.0,0.0,0.0,0.0,0.0,0.0,0.0,0.0,0.0,0.0,-0.6936,-0.7346,-0.7741,-0.8085,-0.6771,-0.5919,-0.5605,0.0,0.0,0.0,0.0,0.0,0.0,0.0,0.0,0.0,0.0,0.0,0.0,0.0,0.0,0.0,0.0,0.0,0.0,0.0,0.0,0.0,0.0,0.0,0.0,0.0,0.0,0.0,0.0,0.0,0.0,0.0,0.0,0.0,0.0,0.0,0.0,0.0,0.0,0.0,0.0,0.0,0.0,0.0,0.0,0.0,0.0,0.0,0.0,0.0,0.0,0.0,0.0,0.0,0.0,0.0,0.0,0.0,0.0,0.0,0.0,0.0,0.0,0.0,0.0,0.0,0.0,0.0,0.0,0.0,0.0,0.0,0.0,0.0,0.0,0.0,0.0,0.0,0.0,0.0,0.0,0.0,0.0,0.0,0.0,0.0,0.0,0.0,0.0,0.0,0.0,0.0,0.0,0.0,0.0,0.0,0.0,0.0,0.0,0.0,0.0,0.0,0.0,0.0,0.0,0.0,0.0,0.0,0.0,-0.9686,-1.0404,-1.0397,-0.9697,-0.8729,-0.7338,0.0,0.0,0.0,0.0,0.0,0.0,0.0,0.0,0.0,0.0,0.0,0.0,0.0,0.0,0.0,0.0,0.0,0.0,0.0,0.0,0.0,0.0,0.0,0.0,0.0,0.0,0.0,0.0,0.0,0.0,0.0,0.0,0.0,0.0,0.0,0.0,0.0,0.0,0.0,0.0,0.0,0.0,0.0,0.0,0.0,0.0,0.0,0.0,0.0,0.0,0.0,0.0,0.0,0.0,0.0,0.0,0.0,0.0,0.0,0.0,0.0,0.0,0.0,0.0,0.0,0.0,0.0,0.0,0.0,0.0,0.0,0.0,0.0,0.0,0.0,0.0,0.0,0.0,0.0,0.0,0.0,0.0,0.0,0.0,0.0,0.0,0.0,0.0,0.0,0.0,0.0,0.0,0.0,0.0,0.0,0.0,0.0,0.0,0.0,0.0,0.0,0.0,0.0,0.0,0.0,0.0,0.0,0.0,0.0,-1.1041,-1.216,-1.2197,-1.1092,-0.9464,-0.799,0.0,0.0,0.0,0.0,0.0,0.0,0.0,0.0,0.0,0.0,0.0,0.0,0.0,0.0,0.0,0.0,0.0,0.0,0.0,0.0,0.0,0.0,0.0,0.0,0.0,0.0,0.0,0.0,0.0,0.0,0.0,0.0,0.0,0.0,0.0,0.0,0.0,0.0,0.0,0.0,0.0,0.0,0.0,0.0,0.0,0.0,0.0,0.0,0.0,0.0,0.0,0.0,0.0,0.0,0.0,0.0,0.0,0.0,0.0,0.0,0.0,0.0,0.0,0.0,0.0,0.0,0.0,0.0,0.0,0.0,0.0,0.0,0.0,0.0,0.0,0.0,0.0,0.0,0.0,0.0,0.0,0.0,0.0,0.0,0.0,0.0,0.0,0.0,0.0,0.0,0.0,0.0,0.0,0.0,0.0,0.0,0.0,0.0,0.0,0.0,0.0,0.0,0.0,0.0,0.0,0.0,0.0,0.0,-1.0639,-1.1973,-1.3499,-1.3887,-1.3001,-1.085,-0.9109,0.0,0.0,0.0,0.0,0.0,0.0,0.0,0.0,0.0,0.0,0.0,0.0,0.0,0.0,0.0,0.0,0.0,0.0,0.0,0.0,0.0,0.0,0.0,0.0,0.0,0.0,0.0,0.0,0.0,0.0,0.0,0.0,0.0,0.0,0.0,0.0,0.0,0.0,0.0,0.0,0.0,0.0,0.0,0.0,0.0,0.0,0.0,0.0,0.0,0.0,0.0,0.0,0.0,0.0,0.0,0.0,0.0,0.0,0.0,0.0,0.0,0.0,0.0,0.0,0.0,0.0,0.0,0.0,0.0,0.0,0.0,0.0,0.0,0.0,0.0,0.0,0.0,0.0,0.0,0.0,0.0,0.0,0.0,0.0,0.0,0.0,0.0,0.0,0.0,0.0,0.0,0.0,0.0,0.0,0.0,0.0,0.0,0.0,0.0,0.0,0.0,0.0,0.0,0.0,0.0,0.0,0.0,0.0,-1.1684,-1.2614,-1.4418,-1.525,-1.4893,-1.2482,-1.0432,0.0,0.0,0.0,0.0,0.0,0.0,0.0,0.0,0.0,0.0,0.0,0.0,0.0,0.0,0.0,0.0,0.0,0.0,0.0,0.0,0.0,0.0,0.0,0.0,0.0,0.0,0.0,0.0,0.0,0.0,0.0,0.0,0.0,0.0,0.0,0.0,0.0,0.0,0.0,0.0,0.0,0.0,0.0,0.0,0.0,0.0,0.0,0.0,0.0,0.0,0.0,0.0,0.0,0.0,0.0,0.0,0.0,0.0,0.0,0.0,0.0,0.0,0.0,0.0,0.0,0.0,0.0,0.0,0.0,0.0,0.0,0.0,0.0,0.0,0.0,0.0,0.0,0.0,0.0,0.0,0.0,0.0,0.0,0.0,0.0,0.0,0.0,0.0,0.0,0.0,0.0,0.0,0.0,0.0,0.0,0.0,0.0,0.0,0.0,0.0,0.0,0.0,0.0,0.0,0.0,0.0,0.0,0.0,-1.2504,-1.3315,-1.4684,-1.536,-1.5272,-1.2811,-1.0968,0.0,0.0,0.0,0.0,0.0,0.0,0.0,0.0,0.0,0.0,0.0,0.0,0.0,0.0,0.0,0.0,0.0,0.0,0.0,0.0,0.0,0.0,0.0,0.0,0.0,0.0,0.0,0.0,0.0,0.0,0.0,0.0,0.0,0.0,0.0,0.0,0.0,0.0,0.0,0.0,0.0,0.0,0.0,0.0,0.0,0.0,0.0,0.0,-0.7621,0.0,0.0,0.0,0.0,0.0,0.0,0.0,0.0,0.0,0.0,0.0,0.0,0.0,0.0,0.0,0.0,0.0,0.0,0.0,0.0,0.0,0.0,0.0,0.0,0.0,0.0,0.0,0.0,0.0,0.0,0.0,0.0,0.0,0.0,0.0,0.0,0.0,0.0,0.0,0.0,0.0,0.0,0.0,0.0,0.0,0.0,0.0,0.0,0.0,0.0,0.0,0.0,0.0,0.0,0.0,0.0,0.0,0.0,0.0,-1.2673,-1.3704,-1.4838,-1.5389,-1.5316,-1.3506,-1.1899,0.0,0.0,0.0,0.0,0.0,0.0,0.0,0.0,0.0,0.0,0.0,0.0,0.0,0.0,0.0,0.0,0.0,0.0,0.0,0.0,0.0,0.0,0.0,0.0,0.0,0.0,0.0,0.0,0.0,0.0,0.0,0.0,0.0,0.0,0.0,0.0,0.0,0.0,0.0,0.0,0.0,0.0,0.0,0.0,0.0,0.0,0.0,0.0,0.0,0.0,0.0,0.0,0.0,0.0,0.0,0.0,0.0,0.0,0.0,0.0,0.0,0.0,0.0,0.0,0.0,0.0,0.0,0.0,0.0,0.0,0.0,0.0,0.0,0.0,0.0,0.0,0.0,0.0,0.0,0.0,0.0,0.0,0.0,0.0,0.0,0.0,0.0,0.0,0.0,0.0,0.0,0.0,0.0,0.0,0.0,0.0,0.0,0.0,0.0,0.0,0.0,0.0,0.0,0.0,0.0,0.0,0.0,-1.1054,-1.2706,-1.4216,-1.5087,-1.544,-1.5374,-1.4223,-1.2811,-1.1232,0.0,0.0,0.0,0.0,0.0,0.0,0.0,0.0,0.0,0.0,0.0,0.0,0.0,0.0,0.0,0.0,0.0,0.0,0.0,0.0,0.0,0.0,0.0,0.0,0.0,0.0,0.0,0.0,0.0,0.0,0.0,0.0,0.0,0.0,0.0,0.0,0.0,0.0,-0.6304,-0.7488,0.0,0.0,0.0,0.0,0.0,0.0,0.0,0.0,-0.8319,0.0,0.0,0.0,0.0,0.0,0.0,0.0,0.0,0.0,0.0,0.0,0.0,0.0,0.0,0.0,0.0,0.0,0.0,0.0,0.0,0.0,0.0,0.0,0.0,0.0,0.0,0.0,0.0,0.0,0.0,0.0,0.0,0.0,0.0,0.0,0.0,0.0,0.0,0.0,0.0,0.0,0.0,0.0,0.0,0.0,0.0,0.0,0.0,0.0,0.0,0.0,0.0,0.0,0.0,0.0,0.0,-1.1271,-1.1757,-1.3133,-1.5526,-1.5752,-1.5666,-1.5374,-1.4435,-1.3176,-1.154,0.0,0.0,0.0,0.0,0.0,0.0,0.0,0.0,0.0,0.0,0.0,0.0,0.0,0.0,0.0,0.0,0.0,0.0,0.0,0.0,0.0,0.0,0.0,0.0,0.0,0.0,0.0,0.0,0.0,0.0,0.0,0.0,0.0,0.0,0.0,0.0,0.0,0.0,0.0,-0.9235,-0.935,0.0,0.0,0.0,0.0,0.0,0.0,0.0,0.0,-0.9221,0.0,0.0,0.0,0.0,0.0,0.0,0.0,0.0,0.0,0.0,0.0,0.0,0.0,0.0,0.0,0.0,0.0,0.0,0.0,0.0,0.0,0.0,0.0,0.0,0.0,0.0,0.0,0.0,0.0,0.0,0.0,0.0,0.0,0.0,0.0,0.0,0.0,0.0,0.0,0.0,0.0,0.0,0.0,0.0,0.0,0.0,0.0,0.0,0.0,0.0,0.0,0.0,0.0,0.0,0.0,-1.1182,-1.2262,-1.3806,-1.5826,-1.571,-1.5584,-1.5367,-1.4326,-1.3088,0.0,0.0,0.0,0.0,0.0,0.0,0.0,0.0,0.0,0.0,0.0,0.0,0.0,0.0,0.0,0.0,0.0,0.0,0.0,0.0,0.0,0.0,0.0,0.0,0.0,0.0,0.0,0.0,0.0,0.0,0.0,0.0,0.0,0.0,0.0,0.0,0.0,0.0,0.0,0.0,-1.1227,-1.1957,-1.3202,0.0,0.0,0.0,0.0,0.0,0.0,-1.105,-1.0133,0.0,0.0,0.0,0.0,0.0,0.0,0.0,0.0,0.0,0.0,0.0,0.0,0.0,0.0,0.0,0.0,0.0,0.0,0.0,0.0,0.0,0.0,0.0,0.0,0.0,0.0,0.0,0.0,0.0,0.0,0.0,0.0,0.0,0.0,0.0,0.0,0.0,0.0,0.0,0.0,0.0,0.0,0.0,0.0,0.0,0.0,0.0,0.0,0.0,0.0,0.0,0.0,0.0,0.0,0.0,-1.1077,-1.2708,-1.4318,-1.5899,-1.5652,-1.5455,-1.5367,-1.404,-1.2723,0.0,0.0,0.0,0.0,0.0,0.0,0.0,0.0,0.0,0.0,0.0,0.0,0.0,0.0,0.0,0.0,0.0,0.0,0.0,0.0,0.0,0.0,0.0,0.0,0.0,0.0,0.0,0.0,0.0,0.0,0.0,0.0,0.0,0.0,0.0,0.0,0.0,0.0,0.0,0.0,0.0,-1.4504,-1.5381,-1.4322,0.0,0.0,0.0,0.0,-1.3251,-1.2592,0.0,0.0,0.0,0.0,0.0,0.0,0.0,0.0,0.0,0.0,0.0,0.0,0.0,0.0,0.0,0.0,0.0,0.0,0.0,0.0,0.0,0.0,0.0,0.0,0.0,0.0,0.0,0.0,0.0,0.0,0.0,0.0,0.0,0.0,0.0,0.0,0.0,0.0,0.0,0.0,0.0,0.0,0.0,0.0,0.0,0.0,0.0,0.0,0.0,0.0,0.0,0.0,0.0,0.0,0.0,0.0,-1.2002,-1.3048,-1.4414,-1.6228,-1.6009,-1.5716,-1.5374,-1.3579,-1.216,0.0,0.0,0.0,0.0,0.0,0.0,0.0,0.0,0.0,0.0,0.0,0.0,0.0,0.0,0.0,0.0,0.0,0.0,0.0,0.0,0.0,0.0,0.0,0.0,0.0,0.0,0.0,0.0,0.0,0.0,0.0,0.0,0.0,0.0,0.0,0.0,0.0,0.0,0.0,0.0,0.0,-1.5657,-1.6798,-1.537,-1.4168,0.0,0.0,-1.5694,-1.5545,-1.6287,0.0,0.0,0.0,0.0,0.0,0.0,0.0,0.0,0.0,0.0,0.0,0.0,0.0,0.0,0.0,0.0,0.0,0.0,0.0,0.0,0.0,0.0,0.0,0.0,0.0,0.0,0.0,0.0,0.0,0.0,0.0,0.0,0.0,0.0,0.0,0.0,0.0,0.0,0.0,0.0,0.0,0.0,0.0,0.0,0.0,0.0,0.0,0.0,0.0,0.0,0.0,0.0,0.0,0.0,0.0,-0.9773,-1.1965,-1.3704,-1.5094,-1.606,-1.5804,-1.5535,-1.5389,-1.3331,-1.1882,0.0,0.0,0.0,0.0,0.0,0.0,0.0,0.0,0.0,0.0,0.0,0.0,0.0,0.0,0.0,0.0,0.0,0.0,0.0,0.0,0.0,0.0,0.0,0.0,0.0,0.0,0.0,0.0,0.0,0.0,0.0,0.0,0.0,0.0,0.0,0.0,0.0,0.0,0.0,0.0,0.0,0.0,-1.781,-1.7091,0.0,0.0,0.0,-1.7039,-1.6337,0.0,0.0,0.0,0.0,0.0,0.0,0.0,0.0,0.0,0.0,0.0,0.0,0.0,0.0,0.0,0.0,0.0,0.0,0.0,0.0,0.0,0.0,0.0,0.0,0.0,0.0,0.0,0.0,0.0,0.0,0.0,0.0,0.0,0.0,0.0,0.0,0.0,0.0,0.0,0.0,0.0,0.0,0.0,0.0,0.0,0.0,0.0,0.0,0.0,0.0,0.0,0.0,0.0,0.0,0.0,0.0,0.0,-1.1874,-1.4188,-1.5549,-1.5856,-1.5599,-1.5389,-1.536,-1.3499,0.0,0.0,0.0,0.0,0.0,0.0,0.0,0.0,0.0,0.0,0.0,0.0,0.0,0.0,0.0,0.0,0.0,0.0,0.0,0.0,0.0,0.0,0.0,0.0,0.0,0.0,0.0,-0.5521,0.0,0.0,0.0,0.0,0.0,0.0,0.0,0.0,0.0,0.0,0.0,0.0,0.0,0.0,-1.8596,-1.856,-1.8573,-1.8894,0.0,0.0,-1.8141,-1.7797,-1.9322,-1.9143,0.0,0.0,0.0,0.0,0.0,0.0,0.0,0.0,0.0,0.0,0.0,0.0,0.0,0.0,0.0,0.0,0.0,0.0,0.0,0.0,0.0,0.0,0.0,0.0,0.0,0.0,0.0,0.0,0.0,0.0,0.0,0.0,0.0,0.0,0.0,0.0,0.0,0.0,0.0,0.0,0.0,0.0,0.0,0.0,0.0,0.0,0.0,0.0,0.0,0.0,0.0,0.0,0.0,0.0,0.0,-1.1974,-1.4229,-1.5584,-1.5899,-1.5599,-1.5389,-1.5416,-1.4406,-1.2833,0.0,0.0,0.0,0.0,0.0,0.0,0.0,0.0,0.0,0.0,0.0,0.0,0.0,0.0,0.0,0.0,0.0,0.0,0.0,0.0,0.0,0.0,0.0,0.0,0.0,0.0,0.0,0.0,0.0,0.0,0.0,0.0,0.0,0.0,0.0,0.0,0.0,0.0,0.0,0.0,0.0,-1.9497,-1.9046,-1.9384,-2.0263,0.0,0.0,-1.9433,-2.0928,-2.2101,-2.1547,-1.7714,0.0,0.0,0.0,0.0,0.0,0.0,0.0,0.0,0.0,0.0,0.0,0.0,0.0,0.0,0.0,0.0,0.0,0.0,0.0,0.0,0.0,0.0,0.0,0.0,0.0,0.0,0.0,0.0,0.0,0.0,0.0,0.0,0.0,0.0,0.0,0.0,0.0,0.0,0.0,0.0,0.0,0.0,0.0,0.0,0.0,0.0,0.0,0.0,0.0,0.0,0.0,0.0,0.0,-1.0398,-1.1996,-1.4236,-1.5542,-1.5891,-1.5789,-1.5688,-1.5688,-1.4787,-1.3345,0.0,0.0,0.0,0.0,0.0,0.0,0.0,0.0,0.0,0.0,0.0,0.0,0.0,0.0,0.0,0.0,0.0,0.0,0.0,0.0,0.0,0.0,0.0,0.0,0.0,0.0,0.0,0.0,-1.0479,-1.0376,-0.9025,0.0,0.0,0.0,0.0,0.0,0.0,0.0,0.0,0.0,0.0,-2.01,-2.0914,-2.1217,0.0,0.0,-2.2067,-2.139,-2.1056,-2.2196,-2.1678,-1.7526,-1.6497,0.0,0.0,0.0,0.0,0.0,0.0,0.0,0.0,0.0,0.0,0.0,0.0,0.0,0.0,0.0,0.0,0.0,0.0,0.0,0.0,0.0,0.0,0.0,0.0,0.0,0.0,0.0,0.0,0.0,0.0,0.0,0.0,0.0,0.0,0.0,0.0,0.0,0.0,0.0,0.0,0.0,0.0,0.0,0.0,0.0,0.0,0.0,0.0,0.0,0.0,0.0,0.0,-1.0478,-1.1996,-1.4331,-1.5738,-1.6045,-1.6052,-1.6052,-1.603,-1.5299,-1.4033,0.0,0.0,0.0,0.0,0.0,0.0,0.0,0.0,0.0,0.0,0.0,0.0,0.0,0.0,0.0,0.0,0.0,0.0,0.0,0.0,0.0,0.0,0.0,0.0,0.0,0.0,0.0,0.0,-1.1112,-1.0888,-0.9429,0.0,0.0,0.0,0.0,0.0,0.0,0.0,0.0,0.0,0.0,-2.079,-2.1468,-2.1983,-2.2406,-2.2807,-2.2293,-2.1653,-2.1043,-2.1606,-2.1001,-1.7766,0.0,0.0,0.0,0.0,0.0,0.0,0.0,0.0,0.0,0.0,0.0,0.0,0.0,0.0,0.0,0.0,0.0,0.0,0.0,0.0,0.0,0.0,0.0,0.0,0.0,0.0,0.0,0.0,0.0,0.0,-0.4641,0.0,0.0,0.0,0.0,0.0,0.0,0.0,0.0,0.0,0.0,0.0,0.0,0.0,0.0,0.0,0.0,0.0,0.0,0.0,0.0,0.0,0.0,-1.0733,-1.2018,-1.455,-1.6052,-1.6397,-1.6404,-1.6404,-1.6397,-1.6045,-1.5109,-1.3462,0.0,0.0,0.0,0.0,0.0,0.0,0.0,0.0,0.0,0.0,0.0,0.0,0.0,0.0,0.0,0.0,0.0,0.0,0.0,0.0,0.0,0.0,0.0,0.0,0.0,0.0,-0.6493,-0.812,-0.9685,0.0,0.0,0.0,0.0,0.0,0.0,0.0,0.0,0.0,0.0,-1.917,-2.1669,-2.015,-2.1267,-2.2334,-2.2385,-2.0562,-1.9685,-2.123,-2.0589,-1.9635,0.0,0.0,0.0,0.0,0.0,0.0,0.0,0.0,0.0,0.0,0.0,0.0,0.0,0.0,0.0,0.0,0.0,0.0,0.0,0.0,0.0,0.0,0.0,0.0,0.0,0.0,0.0,-0.5435,-0.5217,0.0,0.0,0.0,0.0,0.0,0.0,0.0,0.0,0.0,0.0,0.0,-1.1573,-1.1689,0.0,0.0,0.0,0.0,0.0,0.0,0.0,0.0,0.0,0.0,0.0,0.0,-1.0953,-1.2687,-1.4816,-1.617,-1.6719,-1.6734,-1.6734,-1.6734,-1.6426,-1.5255,-1.3228,0.0,0.0,0.0,0.0,0.0,0.0,0.0,0.0,0.0,0.0,0.0,0.0,0.0,0.0,0.0,0.0,0.0,0.0,0.0,0.0,0.0,0.0,0.0,0.0,0.0,-0.9395,0.0,0.0,0.0,0.0,0.0,0.0,0.0,0.0,0.0,0.0,0.0,-1.617,-1.7463,-1.9736,-2.1142,-2.0941,-2.1719,-2.2698,0.0,0.0,0.0,0.0,0.0,0.0,0.0,0.0,0.0,0.0,0.0,0.0,0.0,0.0,-2.0867,-1.6829,-1.6565,-1.7093,-1.7544,0.0,0.0,0.0,0.0,0.0,0.0,0.0,0.0,0.0,0.0,0.0,0.0,0.0,0.0,-0.7986,0.0,-0.7628,0.0,0.0,0.0,0.0,0.0,0.0,0.0,0.0,-1.2423,-1.3316,-1.4011,-1.4018,-1.4018,0.0,-1.3066,-1.137,0.0,0.0,0.0,0.0,0.0,0.0,0.0,0.0,-1.1478,-1.3023,-1.5145,-1.6491,-1.6989,-1.7018,-1.7018,-1.7011,-1.6639,-1.5526,-1.3703,-1.2138,-1.0792,0.0,0.0,0.0,0.0,0.0,0.0,0.0,0.0,0.0,0.0,0.0,0.0,0.0,0.0,0.0,0.0,0.0,0.0,0.0,0.0,0.0,0.0,0.0,-1.0202,0.0,0.0,0.0,0.0,0.0,0.0,0.0,0.0,0.0,-1.4761,-1.6429,-1.8118,-1.9396,-2.0878,-2.1509,-2.0489,0.0,0.0,0.0,0.0,0.0,0.0,0.0,-1.9359,-1.8619,-1.8995,-1.9874,-2.1305,-2.3458,-2.4823,-2.4346,0.0,0.0,-2.0551,-2.0112,-2.0648,-2.1066,-2.1358,-2.1662,-2.21,-2.2725,-2.3221,0.0,0.0,0.0,0.0,0.0,0.0,0.0,0.0,-1.1098,-1.1289,0.0,-1.047,0.0,0.0,0.0,0.0,0.0,-1.177,0.0,0.0,-1.6038,-1.6821,-1.5973,-1.5987,-1.5979,-1.5935,-1.5021,-1.4231,-1.3506,-1.1406,0.0,0.0,0.0,0.0,0.0,0.0,-1.2346,-1.317,-1.5577,-1.7049,-1.7264,-1.7279,-1.7318,-1.7289,-1.6696,-1.5921,-1.4951,-1.4018,-1.2928,-1.1687,-0.9845,0.0,0.0,0.0,0.0,0.0,0.0,0.0,0.0,0.0,0.0,0.0,0.0,0.0,0.0,0.0,0.0,0.0,0.0,0.0,0.0,-0.9353,0.0,0.0,0.0,0.0,0.0,0.0,0.0,0.0,0.0,0.0,-1.6584,-1.8372,-1.9999,-2.0541,0.0,0.0,0.0,0.0,-2.1343,-1.892,-1.8417,-1.8643,-1.9233,-2.0137,-2.1131,-2.2108,0.0,0.0,-2.4833,-2.4921,-2.5326,-2.5921,-2.7505,-2.7966,-2.5794,-2.485,-2.4542,-2.4676,-2.4563,-2.4317,-2.4465,-2.5128,-2.5321,-1.0707,0.0,0.0,0.0,0.0,-1.2209,-1.2838,-1.3367,-1.3448,-1.341,-1.334,-1.2968,0.0,0.0,0.0,0.0,0.0,0.0,-1.4313,-1.5597,-1.6353,-1.6982,-1.7618,-1.7618,-1.7618,-1.7596,-1.7099,-1.6755,-1.6543,-1.5687,-1.3375,-0.9753,0.0,0.0,0.0,0.0,-1.2886,-1.4659,-1.614,-1.7011,-1.7279,-1.7286,-1.7216,-1.7042,-1.6631,-1.614,-1.5608,-1.4885,-1.404,-1.2972,-1.175,0.0,0.0,0.0,0.0,0.0,0.0,0.0,0.0,0.0,0.0,0.0,0.0,0.0,0.0,0.0,0.0,0.0,0.0,0.0,-1.0107,-1.1721,-1.222,0.0,0.0,0.0,0.0,0.0,0.0,0.0,0.0,0.0,-2.0421,-2.0085,-1.9723,0.0,0.0,-1.9623,-1.887,-2.0137,-2.1418,-2.2209,-2.1995,0.0,0.0,-2.2957,-2.2535,-2.2819,-2.4632,-2.6021,-2.6021,-2.7748,-2.9084,-2.8881,-2.9669,-3.0174,-2.9729,-2.9884,-3.0036,-3.0163,-3.0114,-3.0059,-3.0114,-3.0231,-3.0248,-1.2289,-1.154,-1.217,-1.3025,-1.4025,-1.4698,-1.5352,-1.6042,-1.6039,-1.6089,-1.6075,-1.5666,-1.5162,-1.4531,-1.407,0.0,0.0,0.0,-1.5839,-1.7372,-1.7326,-1.7808,-1.8657,-1.8686,-1.8686,-1.8672,-1.8357,-1.8203,-1.8189,-1.7486,-1.5613,-1.265,0.0,0.0,-1.1765,-1.2833,-1.401,-1.536,-1.6491,-1.7135,-1.7318,-1.7286,-1.7121,-1.6719,-1.6514,-1.6206,-1.5695,-1.5301,-1.4761,-1.4054,-1.3105,-1.1701,0.0,0.0,0.0,0.0,0.0,0.0,0.0,0.0,0.0,0.0,0.0,-0.7714,0.0,0.0,0.0,0.0,-1.0342,-1.1287,-1.2554,-1.3273,0.0,0.0,0.0,0.0,0.0,0.0,0.0,-1.7506,-1.9617,-2.1465,-2.2456,-2.1757,-2.1139,-2.1277,-2.1418,-2.1292,-2.07,0.0,-2.2979,-2.3879,-2.3703,-2.386,-2.5084,-2.5008,-2.4996,-2.5674,-2.6854,-2.7745,-2.7869,-2.9349,-3.0403,-3.0466,-3.0983,-3.1613,-3.1969,-3.2697,-3.3046,-3.2597,-3.273,-3.289,-3.289,-3.3093,-3.3267,-1.3095,-1.4074,-1.4554,-1.547,-1.6636,-1.6713,-1.7434,-1.8557,-1.8489,-1.8741,-1.9112,-1.8318,-1.764,-1.7046,-1.5596,0.0,-1.6719,-1.6719,-1.7479,-1.8899,-1.8877,-1.9023,-1.936,-1.9279,-1.9272,-1.9272,-1.8972,-1.8833,-1.8767,-1.7688,-1.6888,-1.6485,-1.5862,-1.4885,-1.3748,-1.4779,-1.5403,-1.5513,-1.6622,-1.7228,-1.7326,-1.7286,-1.7033,-1.6477,-1.6426,-1.6089,-1.5504,-1.5396,-1.525,-1.4929,-1.4077,-1.3022,-1.1701,0.0,0.0,0.0,0.0,0.0,0.0,0.0,0.0,0.0,0.0,0.0,0.0,0.0,0.0,0.0,-1.2974,0.0,-1.5459,-1.4347,0.0,0.0,0.0,-1.5148,-1.6086,-1.8868,-2.0645,-2.0452,0.0,0.0,-2.3328,-2.3378,-2.3816,-2.4976,-2.5762,-2.5485,-2.3509,-2.4569,-2.5322,-2.4506,-2.4443,-2.4695,-2.5515,-2.6578,-2.7821,-2.9126,-2.9779,-2.9666,-2.9654,-2.9716,-3.0101,-3.0619,-3.1415,-3.2083,-3.2847,-3.347,-3.3869,-3.2757,-3.3119,-3.3576,-3.359,-3.3949,-3.425,-1.475,-1.5836,-1.5779,-1.5823,-1.5993,-1.684,-1.7047,-1.7049,-1.8475,-1.8787,-1.8288,-1.8748,-1.8989,-1.9112,-1.892,-1.9023,-1.9263,-1.9316,-1.952,-1.9864,-1.9645,-1.9625,-1.9691,-1.9448,-1.9272,-1.9272,-1.9199,-1.9162,-1.9147,-1.8855,-1.8152,-1.7143,-1.6945,-1.6111,-1.463,-1.4871,-1.5498,-1.6551,-1.6572,-1.6835,-1.7264,-1.7286,-1.7135,-1.6793,-1.6543,-1.6235,-1.5811,-1.552,-1.5352,-1.5258,-1.4626,-1.3638,-1.2343,-1.0367,0.0,0.0,0.0,0.0,0.0,0.0,0.0,0.0,0.0,-0.9811,-0.8011,0.0,-1.1631,0.0,-1.4828,-1.6697,-1.6907,-1.6782,0.0,0.0,-1.703,-1.7613,-1.8553,-2.052,-2.1745,-2.16,-2.2876,-2.4186,-2.5264,-2.5766,-2.6507,-2.7709,-2.5578,-2.4029,-2.4311,-2.546,-2.6361,-2.6553,-2.7494,-2.8448,-2.8486,-2.8913,-2.9289,-2.9716,-2.9779,-2.9779,-2.9779,-2.9779,-2.9869,-3.0037,-3.0228,-3.0646,-3.1378,-3.211,-3.2757,-3.3014,-3.3647,-3.4196,-3.4196,-3.4312,-3.438,-1.4165,-1.4852,-1.4674,-1.4403,-1.416,-1.6008,-1.649,-1.6178,-1.7286,-1.7392,-1.6924,-1.7975,-1.8993,-1.9778,-1.9802,-1.9902,-2.0019,-2.0026,-2.0073,-2.0176,-2.0055,-1.9974,-1.9959,-1.9645,-1.9544,-1.9536,-1.9345,-1.9272,-1.9272,-1.9272,-1.8913,-1.8211,-1.8196,-1.753,-1.6199,-1.5476,-1.5511,-1.6206,-1.6316,-1.6748,-1.7501,-1.7406,-1.6901,-1.6038,-1.5833,-1.5313,-1.4435,-1.4231,-1.4097,-1.409,-1.3784,-1.3214,-1.2295,-1.0736,-0.9543,0.0,0.0,0.0,0.0,0.0,0.0,0.0,0.0,0.0,0.0,0.0,-1.3551,-1.3952,-1.646,-1.7953,-1.7709,-1.7856,-1.8118,-1.8446,-1.9099,-1.9839,-2.0617,-2.261,-2.385,-2.372,-2.4813,-2.6063,-2.725,-2.7508,-2.7928,-2.8872,-2.7122,-2.6061,-2.6894,-2.7582,-2.8096,-2.8398,-2.9189,-2.9779,-2.9779,-2.9779,-2.9779,-2.9779,-2.9779,-2.9779,-2.9779,-2.9779,-2.9779,-2.983,-3.0062,-3.0419,-3.0871,-3.1563,-3.2254,-3.2648,-3.3332,-3.3928,-3.4312,-3.438,-3.438,-1.277,-1.277,-1.277,-1.2628,-1.2573,-1.4913,-1.5694,-1.5186,-1.5633,-1.5785,-1.5884,-1.7125,-1.8496,-1.9787,-1.9529,-1.9576,-1.9921,-1.9928,-2.0087,-2.03,-2.0263,-2.0241,-2.0289,-1.9974,-1.9859,-1.9801,-1.9529,-1.9368,-1.9279,-1.9272,-1.9265,-1.9096,-1.914,-1.8599,-1.7611,-1.6243,-1.5491,-1.5462,-1.6148,-1.6857,-1.7596,-1.7191,-1.6272,-1.4863,-1.4739,-1.4039,-1.2631,-1.2541,-1.2526,-1.2485,-1.2448,-1.2353,-1.2171,-1.1101,-1.0536,0.0,-0.9506,0.0,0.0,0.0,0.0,0.0,0.0,0.0,0.0,-1.4929,-1.5684,-1.6588,-1.793,-1.8676,-1.8525,-1.8611,-1.9137,-2.0252,-2.1113,-2.1824,-2.2549,-2.4504,-2.5773,-2.5724,-2.6615,-2.7626,-2.8406,-2.8378,-2.8382,-2.8748,-2.8856,-2.8853,-2.9485,-2.9513,-2.9513,-2.9714,-2.974,-2.974,-2.9779,-2.9779,-2.9779,-2.9779,-2.9779,-2.9779,-2.9779,-2.9779,-2.9779,-2.9856,-3.0266,-3.0696,-3.0758,-3.1378,-3.1892,-3.1928,-3.2541,-3.3297,-3.3997,-3.4298,-3.438,-1.277,-1.277,-1.277,-1.3421,-1.4419,-1.4904,-1.3914,-1.2117,-1.4784,-1.6226,-1.6776,-1.855,-1.9496,-1.9777,-2.0009,-2.0259,-2.0544,-2.0544,-2.0722,-2.102,-2.0757,-2.0633,-2.0611,-2.0296,-2.0011,-1.983,-1.9696,-1.9588,-1.9272,-1.9272,-1.8869,-1.8108,-1.8094,-1.7604,-1.6674,0.0,0.0,0.0,-1.6696,-1.6982,-1.6675,-1.5826,-1.4966,-1.4187,-1.3901,0.0,-1.2943,-1.2665,-1.2526,-1.2477,-1.2237,0.0,0.0,0.0,0.0,0.0,0.0,0.0,0.0,0.0,0.0,0.0,-1.615,-1.6093,-1.5791,-1.677,-1.79,-1.9072,-1.9492,-2.0088,-2.1055,-2.1192,-2.1645,-2.2666,-2.2996,-2.3385,-2.4222,-2.4618,-2.4885,-2.5206,-2.5296,-2.5694,-2.6614,-2.7198,-2.7733,-2.8028,-2.8645,-2.9104,-2.9221,-2.926,-2.9248,-2.926,-2.9404,-2.956,-2.974,-2.9779,-2.9779,-2.9779,-2.9779,-2.9779,-2.9779,-2.9779,-2.9779,-2.9792,-2.9946,-3.0037,-3.0024,-3.0595,-3.1106,-3.1132,-3.1783,-3.2541,-3.3262,-3.3928,-3.438,-1.277,0.0,-1.277,-1.3068,0.0,-1.4011,-1.3078,-1.1342,-1.4819,-1.6716,-1.7429,-1.8274,-1.8991,-1.9564,-1.9301,-1.9313,-1.9626,-1.9271,-1.9531,-2.0306,-2.0106,-2.0279,-2.0714,-2.041,-2.0091,-1.9787,-1.9782,-1.9654,-1.9286,-1.9272,-1.9074,-1.854,-1.854,-1.8291,-1.7871,-1.7801,-1.7494,-1.6857,-1.7118,-1.7406,-1.7523,-1.6777,-1.5906,-1.4977,0.0,0.0,0.0,0.0,0.0,0.0,0.0,0.0,0.0,0.0,0.0,-1.3791,-1.4487,-1.5332,-1.6307,-1.7145,-1.8081,-1.9189,-1.9678,-1.9365,-1.811,-1.917,-2.0283,-2.1103,-2.1387,-2.1875,-2.2715,-2.3018,-2.3345,-2.3845,-2.3772,-2.3841,-2.4195,-2.4196,-2.4325,-2.4751,-2.4927,-2.5199,-2.5883,-2.6348,-2.6894,-2.7406,-2.7862,-2.8355,-2.8736,-2.8973,-2.9131,-2.9236,-2.9302,-2.9509,-2.9753,-2.9779,-2.9792,-2.9779,-2.9779,-2.9779,-2.9779,-2.9779,-2.9779,-2.9779,-2.9779,-2.9779,-2.983,-3.0139,-3.0343,-3.0406,-3.0983,-3.1563,-3.206,-3.2981,-3.3811,-1.277,-1.277,-1.277,-1.2709,-1.2603,-1.3474,-1.3251,-1.2428,0.0,0.0,0.0,-1.7895,-1.8478,-1.9392,-1.8624,-1.8441,-1.8714,-1.8144,-1.8506,-1.9556,-1.9469,-1.9875,-2.058,-2.0423,-2.0089,-1.983,-1.9733,-1.9575,-1.9307,-1.9249,-1.9279,-1.9272,-1.9272,-1.9272,-1.9272,-1.9272,-1.8884,-1.8094,-1.764,-1.7772,-1.8482,-1.7845,-1.6923,-1.5767,-1.5423,-1.4728,-1.3631,-1.3265,-1.3089,-1.3082,-1.284,-1.274,-1.2908,-1.3341,-1.3845,-1.4491,-1.5766,-1.7195,-1.8722,-1.9782,-2.0869,-2.2031,-2.2422,-2.1982,-2.0478,-2.1445,-2.2285,-2.2705,-2.311,-2.3482,-2.3867,-2.4209,-2.4443,-2.4512,-2.416,-2.3935,-2.3994,-2.3857,-2.3964,-2.4336,-2.4556,-2.4859,-2.5211,-2.5453,-2.583,-2.6558,-2.701,-2.751,-2.8299,-2.8788,-2.9013,-2.9197,-2.9223,-2.9353,-2.9585,-2.9624,-2.9675,-2.9689,-2.9689,-2.974,-2.9779,-2.9779,-2.9779,-2.9779,-2.9779,-2.9779,-2.9779,-2.9818,-2.9779,-2.9779,-3.0266,-3.072,-3.0833,-3.1806,-3.2826,-1.277,-1.277,-1.277,-1.3439,-1.4521,-1.4651,-1.5238,-1.6118,-1.5928,-1.6558,-1.7874,-1.8978,-1.9555,-1.972,-1.9352,-1.9344,-1.9617,-1.9544,-1.9728,-2.0188,-2.0195,-2.0201,-2.0321,-2.035,-2.0103,-1.9794,-1.9548,-1.9408,-1.927,-1.905,-1.9078,-1.9279,-1.9272,-1.9272,-1.9272,-1.9272,-1.9206,-1.9052,-1.8196,-1.7677,-1.7523,-1.6645,-1.579,-1.5075,-1.4816,-1.4399,-1.3931,-1.3631,-1.3426,-1.3426,-1.3382,-1.3733,-1.4538,-1.5279,-1.6166,-1.7143,-1.8789,-1.9866,-2.0145,-2.1383,-2.2331,-2.29,-2.2974,-2.274,-2.2236,-2.2646,-2.3135,-2.3555,-2.3682,-2.3867,-2.4268,-2.4404,-2.4609,-2.4883,-2.459,-2.4473,-2.4746,-2.4219,-2.3859,-2.394,-2.3575,-2.3481,-2.3747,-2.4303,-2.4828,-2.5168,-2.6454,-2.7557,-2.8354,-2.855,-2.8657,-2.8843,-2.887,-2.8973,-2.9293,-2.9221,-2.9337,-2.9431,-2.9482,-2.9548,-2.974,-2.9779,-2.9804,-2.9804,-2.9842,-2.9829,-2.9817,-2.9779,-2.9817,-2.9817,-2.996,-3.0024,-3.0062,-3.0797,-3.1723,-1.277,-1.277,-1.277,-1.3161,-1.3744,-1.3744,-1.459,-1.5784,-1.5451,-1.5943,-1.7175,-1.8392,-1.8848,-1.8658,-1.8864,-1.8854,-1.8791,-1.8469,-1.8673,-1.9292,-1.9299,-1.9569,-2.0019,-2.004,-1.983,-1.9526,-1.9612,-1.9408,-1.908,-1.8964,-1.8868,-1.8862,-1.9018,-1.9071,-1.9071,-1.9227,-1.9272,-1.9264,-1.8833,-1.8533,-1.8379,-1.7786,-1.7326,-1.6987,-1.6718,-1.6396,-1.6074,-1.5745,-1.5496,-1.5328,-1.5153,-1.5262,-1.5687,-1.6247,-1.7023,-1.7993,-1.944,-2.0526,-2.1067,-2.2417,-2.3281,-2.3477,-2.3701,-2.3715,-2.352,-2.3506,-2.3672,-2.4092,-2.4326,-2.456,-2.4766,-2.499,-2.5117,-2.5059,-2.493,-2.4658,-2.4414,-2.4287,-2.4053,-2.3848,-2.3828,-2.3783,-2.3793,-2.4177,-2.4713,-2.5233,-2.6777,-2.827,-2.9176,-2.934,-2.9325,-2.9262,-2.9241,-2.9455,-2.9824,-2.9693,-2.9598,-2.968,-2.9526,-2.9443,-2.956,-2.9702,-2.9917,-3.0168,-3.0231,-3.0244,-3.0231,-3.0244,-3.0131,-2.9817,-2.9779,-2.9779,-2.9908,-3.0599,-3.1854,-1.277,-1.277,-1.277,-1.277,-1.277,-1.277,-1.3416,-1.439,-1.4385,-1.4883,-1.5793,-1.7145,-1.7635,-1.7462,-1.8058,-1.817,-1.788,-1.7734,-1.802,-1.8619,-1.8666,-1.9033,-1.9645,-1.97,-1.9577,-1.936,-1.9511,-1.9362,-1.893,-1.8872,-1.8677,-1.8457,-1.8757,-1.8876,-1.8869,-1.9175,-1.9272,-1.9272,-1.9272,-1.9272,-1.9264,-1.9023,-1.8869,-1.8774,-1.8533,-1.8262,-1.794,-1.7677,-1.7399,-1.713,-1.6873,-1.6667,-1.6601,-1.6866,-1.7318,-1.8098,-1.9521,-2.0949,-2.2204,-2.3316,-2.3935,-2.3935,-2.4228,-2.4453,-2.4521,-2.4268,-2.4209,-2.4541,-2.4844,-2.5125,-2.5225,-2.5508,-2.5596,-2.5264,-2.5165,-2.4861,-2.4238,-2.4287,-2.4307,-2.4033,-2.4228,-2.4394,-2.4424,-2.4424,-2.4788,-2.5747,-2.7261,-2.8623,-2.9555,-2.9917,-3.0001,-2.9944,-2.9779,-2.9869,-3.0448,-3.0191,-2.9988,-3.0004,-2.9887,-2.9873,-2.9891,-3.0063,-3.0254,-3.0641,-3.0728,-3.0676,-3.0623,-3.0583,-3.0446,-3.0146,-3.0124,-3.0115,-3.0068,-3.0687,-3.1795,-1.277,-1.277,-1.277,-1.277,-1.277,-1.277,-1.2902,-1.3034,-1.303,-1.3025,-1.3495,-1.5617,-1.652,-1.6585,-1.7385,-1.7634,-1.7618,-1.8679,-1.9182,-1.9249,-1.9303,-1.9343,-1.9475,-1.9482,-1.941,-1.9336,-1.9172,-1.8996,-1.8871,-1.8645,-1.8478,-1.8457,-1.8705,-1.8876,-1.8921,-1.9175,-1.9272,-1.9272,-1.9272,-1.9272,-1.9272,-1.925,-1.9096,-1.8796,-1.876,-1.8591,-1.8269,-1.8233,-1.8057,-1.7757,-1.7684,-1.7538,-1.7289,-1.7274,-1.7336,-1.7537,-1.957,-2.1783,-2.3861,-2.43,-2.4365,-2.4355,-2.4414,-2.4629,-2.4961,-2.5018,-2.4998,-2.5067,-2.5096,-2.5264,-2.5605,-2.5664,-2.5645,-2.5566,-2.5303,-2.5077,-2.492,-2.4629,-2.4348,-2.4329,-2.4463,-2.4424,-2.4521,-2.4521,-2.4851,-2.5807,-2.6856,-2.7877,-2.8795,-2.9635,-3.0247,-3.0476,-3.0392,-3.014,-3.0296,-3.0157,-3.0181,-3.036,-3.0518,-3.0536,-3.0666,-3.0895,-3.1232,-3.0975,-3.1062,-3.098,-3.0803,-3.0708,-3.0696,-3.0556,-3.0629,-3.0842,-3.0616,-3.0725,-3.129,-1.277,-1.277,-1.277,-1.277,-1.277,-1.277,-1.277,-1.277,-1.277,-1.277,-1.289,-1.3848,-1.4666,-1.5279,-1.6349,-1.6718,-1.6601,-1.7762,-1.8286,-1.835,-1.9062,-1.9424,-1.9424,-1.9424,-1.9424,-1.9417,-1.9245,-1.9089,-1.8879,-1.8441,-1.8191,-1.817,-1.833,-1.8443,-1.8593,-1.8914,-1.9123,-1.9272,-1.9272,-1.9272,-1.9272,-1.9272,-1.9265,-1.9089,-1.9081,-1.8928,-1.8628,-1.8591,-1.8438,-1.813,-1.8101,-1.805,-1.7911,-1.7904,-1.8186,-1.881,-2.0818,-2.2432,-2.3411,-2.4265,-2.4805,-2.4795,-2.5049,-2.5283,-2.5439,-2.5459,-2.5459,-2.5459,-2.5469,-2.5557,-2.5654,-2.5684,-2.5586,-2.542,-2.5391,-2.5273,-2.4727,-2.5,-2.5117,-2.4883,-2.5039,-2.5138,-2.5148,-2.5148,-2.5603,-2.6418,-2.7037,-2.7592,-2.8532,-2.9506,-3.0185,-3.047,-3.0771,-3.1036,-3.1007,-3.0766,-3.0645,-3.0634,-3.0585,-3.0611,-3.0731,-3.0877,-3.1022,-3.1284,-3.1346,-3.1316,-3.1232,-3.1153,-3.1117,-3.0945,-3.0753,-3.0844,-3.0879,-3.1144,-3.1439,-1.277,-1.277,-1.277,-1.277,-1.277,-1.277,-1.277,-1.277,-1.277,-1.277,-1.277,-1.277,-1.3221,-1.4097,-1.5279,-1.5644,-1.5489,-1.6507,-1.6985,-1.7114,-1.7941,-1.8538,-1.8829,-1.8887,-1.9068,-1.9366,-1.9424,-1.9172,-1.8791,-1.8303,-1.7955,-1.7903,-1.7967,-1.8069,-1.8265,-1.8593,-1.8862,-1.9011,-1.9123,-1.9175,-1.9175,-1.9279,-1.9272,-1.9272,-1.9272,-1.9162,-1.8942,-1.8921,-1.8774,-1.8452,-1.843,-1.8394,-1.8306,-1.8299,-1.8772,-1.993,-2.1275,-2.2336,-2.2682,-2.3742,-2.4497,-2.4823,-2.5111,-2.5382,-2.5635,-2.5684,-2.5684,-2.5674,-2.5684,-2.5674,-2.5684,-2.5684,-2.5538,-2.5312,-2.5566,-2.5391,-2.4904,-2.54,-2.5586,-2.5342,-2.5488,-2.5684,-2.5674,-2.5693,-2.5945,-2.6539,-2.6968,-2.7369,-2.8215,-2.9109,-2.9818,-3.0125,-3.0857,-3.1315,-3.1581,-3.1392,-3.1151,-3.1122,-3.0997,-3.098,-3.087,-3.1039,-3.1106,-3.1675,-3.1645,-3.1559,-3.1473,-3.1479,-3.1516,-3.1228,-3.1057,-3.108,-3.1178,-3.1596,-3.1664,-1.277,-1.277,-1.277,-1.277,-1.277,-1.277,-1.277,-1.277,-1.277,-1.277,-1.277,-1.277,-1.2828,-1.2997,-1.4102,-1.4369,-1.4203,-1.5287,-1.5818,-1.5704,-1.5871,-1.6455,-1.7566,-1.763,-1.8169,-1.9127,-1.9185,-1.9041,-1.8577,-1.8169,-1.7842,-1.7695,-1.7886,-1.8016,-1.8069,-1.8325,-1.8429,-1.8534,-1.875,-1.8921,-1.8921,-1.9175,-1.9272,-1.9279,-1.9272,-1.9316,-1.9235,-1.9242,-1.9096,-1.8782,-1.8767,-1.8635,-1.8364,-1.8328,-1.8957,-2.0148,-2.0478,-2.1163,-2.2288,-2.2657,-2.3141,-2.3943,-2.4159,-2.4609,-2.544,-2.5528,-2.5577,-2.5684,-2.5684,-2.5684,-2.5732,-2.5713,-2.5674,-2.5635,-2.5674,-2.5664,-2.5625,-2.5703,-2.5684,-2.5684,-2.5762,-2.581,-2.5732,-2.5684,-2.5762,-2.6024,-2.66,-2.7189,-2.7332,-2.8121,-2.9004,-2.9749,-3.0215,-3.0588,-3.1427,-3.1597,-3.1597,-3.1536,-3.1503,-3.1775,-3.1972,-3.2108,-3.204,-3.1972,-3.1879,-3.178,-3.1733,-3.1689,-3.176,-3.1659,-3.1654,-3.1686,-3.1534,-3.1709,-3.1767,-1.277,-1.277,-1.277,-1.277,-1.277,-1.277,-1.277,-1.277,-1.277,-1.277,-1.277,-1.277,-1.277,-1.2836,-1.3221,-1.3182,-1.302,-1.4038,-1.4529,-1.4456,-1.5213,-1.5865,-1.622,-1.6279,-1.6926,-1.7994,-1.8227,-1.8487,-1.8968,-1.8577,-1.8277,-1.811,-1.7875,-1.7799,-1.7964,-1.8115,-1.822,-1.837,-1.8534,-1.8586,-1.8593,-1.8862,-1.9026,-1.9026,-1.9227,-1.9272,-1.9272,-1.9272,-1.922,-1.9103,-1.9103,-1.9045,-1.8942,-1.8928,-1.9118,-1.9683,-2.0347,-2.0953,-2.1464,-2.2139,-2.2643,-2.3035,-2.3085,-2.3543,-2.4402,-2.4707,-2.4962,-2.5479,-2.5684,-2.5781,-2.6045,-2.5918,-2.5684,-2.5713,-2.5986,-2.6152,-2.6152,-2.6162,-2.625,-2.6475,-2.6553,-2.6465,-2.6211,-2.6152,-2.6035,-2.5791,-2.6014,-2.6245,-2.6418,-2.7105,-2.7934,-2.8402,-2.9372,-3.0306,-3.0576,-3.1327,-3.1693,-3.1705,-3.1713,-3.1733,-3.1881,-3.1881,-3.1845,-3.1845,-3.1837,-3.1849,-3.1693,-3.1693,-3.1805,-3.1805,-3.1849,-3.1865,-3.1826,-3.1896,-3.1834,-1.277,-1.277,-1.277,-1.277,-1.277,-1.277,-1.277,-1.277,-1.277,-1.277,-1.277,-1.277,-1.277,-1.277,-1.277,-1.2682,-1.2453,-1.3132,-1.3303,-1.323,-1.4002,-1.4565,-1.4917,-1.4976,-1.5688,-1.6803,-1.7337,-1.795,-1.8596,-1.8648,-1.8584,-1.845,-1.7976,-1.7842,-1.7941,-1.7913,-1.7957,-1.8108,-1.8213,-1.8279,-1.8325,-1.86,-1.8757,-1.8757,-1.8907,-1.9116,-1.9272,-1.9227,-1.9227,-1.9272,-1.9272,-1.9272,-1.9272,-1.9272,-1.9272,-1.9376,-1.9975,-2.0388,-2.0431,-2.1081,-2.1591,-2.1988,-2.1988,-2.2442,-2.3434,-2.3583,-2.4152,-2.5074,-2.5446,-2.5668,-2.6316,-2.6328,-2.6103,-2.6132,-2.6416,-2.6582,-2.6582,-2.6592,-2.6719,-2.6894,-2.6953,-2.6846,-2.667,-2.6602,-2.6387,-2.6006,-2.5947,-2.5869,-2.5869,-2.6235,-2.6914,-2.7237,-2.8308,-2.9143,-2.9692,-3.0441,-3.1339,-3.1528,-3.1705,-3.1705,-3.1705,-3.1705,-3.1705,-3.1705,-3.1705,-3.1705,-3.1705,-3.1705,-3.1705,-3.1705,-3.1717,-3.1757,-3.1821,-3.1957,-3.1864,-1.277,-1.277,-1.277,-1.277,-1.277,-1.277,-1.277,-1.277,-1.277,-1.277,-1.277,-1.277,-1.277,-1.277,-1.277,-1.2735,-1.2624,-1.2555,-1.2366,-1.2184,-1.2084,-1.2724,-1.367,-1.3729,-1.4381,-1.5628,-1.6803,-1.727,-1.7129,-1.8096,-1.8582,-1.838,-1.8162,-1.805,-1.8043,-1.7836,-1.7661,-1.7728,-1.7959,-1.8051,-1.8023,-1.8341,-1.8506,-1.8464,-1.8464,-1.8719,-1.9227,-1.9026,-1.9026,-1.9227,-1.9272,-1.9272,-1.9272,-1.9272,-1.9272,-1.9272,-1.9331,-1.9324,-1.9376,-1.9472,-2.0078,-2.0696,-2.0901,-2.1377,-2.2291,-2.2561,-2.318,-2.439,-2.4891,-2.5413,-2.6599,-2.6922,-2.6934,-2.6992,-2.6963,-2.7012,-2.7021,-2.7031,-2.7021,-2.708,-2.7119,-2.7051,-2.7031,-2.7021,-2.6846,-2.6514,-2.6338,-2.6201,-2.5898,-2.5927,-2.6187,-2.6829,-2.7521,-2.8111,-2.8808,-2.951,-3.0543,-3.135,-3.1572,-3.1705,-3.1705,-3.1705,-3.1705,-3.1705,-3.1705,-3.1705,-3.1705,-3.1705,-3.1705,-3.1705,-3.1705,-3.1705,-3.1761,-3.1849,-3.1937,-1.277,-1.277,-1.277,-1.277,-1.277,-1.277,-1.277,-1.277,-1.277,-1.277,-1.277,-1.277,-1.277,-1.277,-1.277,-1.2738,-1.2726,-1.245,-1.2207,-1.2032,-1.1857,-1.2014,-1.2367,-1.2427,-1.308,-1.4321,-1.5569,-1.6121,-1.626,-1.7095,-1.7521,-1.7528,-1.804,-1.8308,-1.8282,-1.8063,-1.7903,-1.7903,-1.7956,-1.8017,-1.8037,-1.8475,-1.8644,-1.8512,-1.8485,-1.8554,-1.8653,-1.881,-1.8928,-1.9026,-1.9175,-1.9272,-1.9272,-1.9272,-1.9272,-1.9272,-1.9272,-1.9272,-1.9272,-1.9272,-1.9428,-1.9769,-2.0031,-2.0545,-2.1296,-2.1783,-2.244,-2.3573,-2.4436,-2.5445,-2.6181,-2.7035,-2.7302,-2.7051,-2.7275,-2.7441,-2.7461,-2.7685,-2.7734,-2.7559,-2.7715,-2.7764,-2.7539,-2.7461,-2.7295,-2.6885,-2.6611,-2.6348,-2.6182,-2.5918,-2.5742,-2.6139,-2.6638,-2.7142,-2.7699,-2.8448,-2.9418,-3.0407,-3.0913,-3.1572,-3.1661,-3.1705,-3.1705,-3.1705,-3.1705,-3.1705,-3.1705,-3.1705,-3.1705,-3.1705,-3.1705,-3.1705,-3.1705,-3.1761,-3.1849,-1.277,-1.277,-1.277,-1.277,-1.277,-1.277,-1.277,-1.277,-1.277,-1.277,-1.277,-1.277,-1.277,-1.277,-1.277,-1.277,-1.273,-1.2467,-1.2243,-1.2101,-1.1874,-1.178,-1.1837,-1.1837,-1.213,-1.308,-1.4321,-1.4857,-1.4966,-1.5946,-1.6449,-1.664,-1.7465,-1.7903,-1.7989,-1.8137,-1.821,-1.8155,-1.8217,-1.821,-1.825,-1.8555,-1.8611,-1.8367,-1.8313,-1.8257,-1.8135,-1.8384,-1.86,-1.8705,-1.8907,-1.9011,-1.9123,-1.9123,-1.9175,-1.9272,-1.9272,-1.9272,-1.9272,-1.9272,-1.939,-1.9514,-1.9705,-2.0059,-2.0581,-2.1064,-2.1608,-2.2761,-2.3576,-2.473,-2.5943,-2.6758,-2.7218,-2.7477,-2.7568,-2.7728,-2.7777,-2.8047,-2.8174,-2.8008,-2.8115,-2.8115,-2.7978,-2.7881,-2.7725,-2.7314,-2.7031,-2.6691,-2.6484,-2.6162,-2.5986,-2.5869,-2.6091,-2.6456,-2.6648,-2.7379,-2.8308,-2.9235,-3.0079,-3.0958,-3.1516,-3.1661,-3.1705,-3.1705,-3.1705,-3.1705,-3.1705,-3.1705,-3.1705,-3.1705,-3.1705,-3.1705,-3.1705,-3.1705,-3.1805,-1.277,-1.277,-1.277,-1.277,-1.277,-1.277,-1.277,-1.277,-1.277,-1.277,-1.277,-1.277,-1.277,-1.277,-1.277,-1.277,-1.271,-1.2503,-1.2324,-1.2207,-1.1975,-1.1805,-1.1841,-1.1837,-1.1893,-1.213,-1.308,-1.3545,-1.367,-1.4831,-1.551,-1.5574,-1.6379,-1.6902,-1.7089,-1.7909,-1.8226,-1.8226,-1.8399,-1.8517,-1.8524,-1.8571,-1.8444,-1.817,-1.8156,-1.8023,-1.7882,-1.8061,-1.8197,-1.8384,-1.851,-1.8643,-1.8824,-1.8876,-1.9083,-1.9242,-1.9272,-1.9308,-1.9308,-1.9352,-1.9477,-1.9755,-1.9925,-1.9916,-2.0244,-2.0508,-2.0993,-2.2096,-2.2638,-2.364,-2.5519,-2.6245,-2.6769,-2.7854,-2.7795,-2.7783,-2.7806,-2.8076,-2.8223,-2.8262,-2.8291,-2.8281,-2.8232,-2.8232,-2.8057,-2.7855,-2.766,-2.7249,-2.6816,-2.6514,-2.623,-2.6143,-2.6094,-2.6063,-2.6315,-2.6466,-2.7342,-2.8168,-2.9004,-2.9795,-3.0869,-3.1149,-3.1617,-3.1617,-3.1705,-3.1705,-3.1705,-3.1705,-3.1705,-3.1705,-3.1705,-3.1705,-3.1705,-3.1705,-3.1717,-1.277,-1.277,-1.277,-1.277,-1.277,-1.277,-1.277,-1.277,-1.277,-1.277,-1.277,-1.277,-1.277,-1.277,-1.277,-1.277,-1.2775,-1.2596,-1.2418,-1.2284,-1.2081,-1.189,-1.1797,-1.1837,-1.1837,-1.1897,-1.2195,-1.2311,-1.2367,-1.361,-1.4143,-1.4262,-1.5381,-1.5937,-1.6085,-1.6908,-1.7364,-1.7534,-1.8403,-1.8755,-1.8844,-1.9018,-1.8991,-1.8668,-1.8621,-1.8524,-1.8283,-1.8311,-1.8347,-1.8426,-1.8653,-1.8706,-1.8618,-1.8932,-1.9134,-1.9112,-1.9219,-1.9456,-1.9639,-1.9691,-1.9784,-2.0084,-2.0296,-2.0398,-2.0197,-2.0684,-2.0991,-2.1447,-2.2116,-2.3087,-2.395,-2.4735,-2.5619,-2.6437,-2.7279,-2.7917,-2.8086,-2.8203,-2.8301,-2.8301,-2.8301,-2.8301,-2.8301,-2.8281,-2.8242,-2.8086,-2.7871,-2.7607,-2.7226,-2.6953,-2.6699,-2.6396,-2.6251,-2.6006,-2.5918,-2.6014,-2.6418,-2.7189,-2.7793,-2.8262,-2.9326,-3.0125,-3.0869,-3.1439,-3.1661,-3.1705,-3.1705,-3.1705,-3.1705,-3.1705,-3.1705,-3.1705,-3.1705,-3.1705,-3.1705,-1.277,-1.277,-1.277,-1.277,-1.277,-1.277,-1.277,-1.277,-1.277,-1.277,-1.277,-1.277,-1.277,-1.277,-1.277,-1.277,-1.2812,-1.2649,-1.2511,-1.2393,-1.2146,-1.1939,-1.1809,-1.1837,-1.1837,-1.1837,-1.1837,-1.1837,-1.1893,-1.2603,-1.284,-1.3135,-1.4207,-1.4803,-1.4842,-1.5856,-1.6698,-1.7225,-1.7988,-1.8518,-1.9074,-1.9272,-1.9178,-1.8985,-1.8861,-1.8784,-1.8537,-1.849,-1.8475,-1.8502,-1.8611,-1.8679,-1.8642,-1.909,-1.928,-1.9263,-1.9529,-1.9784,-1.9908,-1.9967,-2.0113,-2.0384,-2.0647,-2.0691,-2.0713,-2.102,-2.1094,-2.1112,-2.1832,-2.2402,-2.3087,-2.4014,-2.4798,-2.5395,-2.6272,-2.7156,-2.7897,-2.8184,-2.8281,-2.8301,-2.8301,-2.8301,-2.8301,-2.8301,-2.8301,-2.8252,-2.8105,-2.7871,-2.7679,-2.7402,-2.708,-2.667,-2.6396,-2.6201,-2.5888,-2.5888,-2.5898,-2.6572,-2.6829,-2.7152,-2.8168,-2.92,-3.0125,-3.0869,-3.1339,-3.1617,-3.1472,-3.1484,-3.1705,-3.1705,-3.1705,-3.1705,-3.1705,-3.1705,-3.1705,-1.277,-1.277,-1.277,-1.277,-1.277,-1.277,-1.277,-1.277,-1.277,-1.277,-1.277,-1.277,-1.277,-1.277,-1.277,-1.277,-1.2762,-1.269,-1.2665,-1.245,-1.2211,-1.1951,-1.1845,-1.1788,-1.1837,-1.1837,-1.1837,-1.1837,-1.1837,-1.1897,-1.1837,-1.2191,-1.308,-1.343,-1.3729,-1.4723,-1.5919,-1.6656,-1.7055,-1.7646,-1.8422,-1.8745,-1.877,-1.8664,-1.8968,-1.8911,-1.8724,-1.8637,-1.8653,-1.8591,-1.8557,-1.8657,-1.8857,-1.9188,-1.9408,-1.9585,-1.9823,-2.007,-2.0165,-2.0186,-2.0317,-2.0538,-2.061,-2.0769,-2.0908,-2.0952,-2.1017,-2.1031,-2.1146,-2.1695,-2.2587,-2.3735,-2.4322,-2.451,-2.4663,-2.5657,-2.6918,-2.7791,-2.813,-2.8301,-2.8301,-2.8301,-2.8301,-2.8301,-2.8301,-2.8301,-2.8193,-2.8086,-2.7992,-2.7793,-2.7295,-2.6689,-2.6494,-2.6357,-2.6084,-2.582,-2.5791,-2.6005,-2.6014,-2.6418,-2.7474,-2.8448,-2.9383,-3.0034,-3.0306,-3.0588,-3.0824,-3.1015,-3.1193,-3.1383,-3.1149,-3.1383,-3.1661,-3.1705,-3.1705,-1.277,-1.277,-1.277,-1.277,-1.277,-1.277,-1.277,-1.277,-1.277,-1.277,-1.277,-1.277,-1.277,-1.277,-1.277,-1.277,-1.277,-1.2775,-1.2706,-1.2515,-1.2194,-1.2032,-1.1947,-1.1861,-1.178,-1.1837,-1.1837,-1.1837,-1.1837,-1.1837,-1.1837,-1.1893,-1.2134,-1.2251,-1.2487,-1.3495,-1.4202,-1.4679,-1.5505,-1.6161,-1.6691,-1.7519,-1.7898,-1.794,-1.8712,-1.9181,-1.9199,-1.9178,-1.9236,-1.9182,-1.8951,-1.8807,-1.8798,-1.911,-1.934,-1.9368,-1.9644,-1.9936,-1.9989,-2.0298,-2.0525,-2.0437,-2.0594,-2.0659,-2.0472,-2.0507,-2.0615,-2.073,-2.0838,-2.1074,-2.1702,-2.27,-2.3247,-2.3472,-2.4014,-2.4693,-2.5401,-2.6291,-2.7178,-2.796,-2.8184,-2.8291,-2.8291,-2.8301,-2.8301,-2.8301,-2.8271,-2.8242,-2.8174,-2.8105,-2.7607,-2.6973,-2.6953,-2.6807,-2.6152,-2.5898,-2.5771,-2.5732,-2.5693,-2.5732,-2.6791,-2.7389,-2.8179,-2.8727,-2.9085,-2.9464,-2.9988,-2.9749,-2.9795,-3.0125,-3.0588,-3.0869,-3.1149,-3.1383,-3.1705,-1.277,-1.277,-1.277,-1.277,-1.277,-1.277,-1.277,-1.277,-1.277,-1.277,-1.277,-1.277,-1.277,-1.277,-1.277,-1.277,-1.277,-1.2766,-1.2739,-1.256,-1.2349,-1.2247,-1.2125,-1.1983,-1.1866,-1.1797,-1.1837,-1.1837,-1.1837,-1.1837,-1.1837,-1.1837,-1.1837,-1.1893,-1.1837,-1.2487,-1.3135,-1.3789,-1.4321,-1.4976,-1.5688,-1.622,-1.7044,-1.7396,-1.8169,-1.8706,-1.9287,-1.941,-1.9417,-1.9332,-1.9212,-1.9065,-1.9008,-1.931,-1.941,-1.9441,-1.9738,-2.0019,-2.0168,-2.0324,-2.0444,-2.0314,-2.0436,-2.0443,-2.0328,-2.027,-2.0321,-2.0493,-2.0551,-2.0673,-2.0967,-2.1588,-2.2093,-2.2263,-2.27,-2.3247,-2.3902,-2.4956,-2.6127,-2.707,-2.7349,-2.7789,-2.8014,-2.813,-2.8301,-2.8301,-2.8301,-2.8271,-2.8271,-2.8164,-2.792,-2.7539,-2.7549,-2.7226,-2.6396,-2.5996,-2.585,-2.5742,-2.5693,-2.5684,-2.61,-2.6514,-2.6887,-2.7474,-2.8168,-2.8716,-2.9096,-2.8773,-2.8634,-2.9143,-2.9658,-3.0125,-3.0498,-3.0734,-3.1193,-1.277,-1.277,-1.277,-1.277,-1.277,-1.277,-1.277,-1.277,-1.277,-1.277,-1.277,-1.277,-1.277,-1.277,-1.277,-1.277,-1.277,-1.2762,-1.2747,-1.2637,-1.2544,-1.2446,-1.2312,-1.2125,-1.1951,-1.1817,-1.1784,-1.1841,-1.1837,-1.1837,-1.1837,-1.1837,-1.1837,-1.1837,-1.1837,-1.1833,-1.2307,-1.314,-1.3315,-1.3729,-1.4684,-1.5095,-1.5865,-1.6868,-1.7161,-1.7578,-1.8292,-1.8713,-1.901,-1.912,-1.9301,-1.9424,-1.9482,-1.9597,-1.9758,-1.9737,-1.997,-2.0021,-2.0028,-2.0185,-2.0314,-2.022,-2.022,-2.0162,-2.0155,-2.0104,-2.0097,-2.0213,-2.027,-2.0436,-2.0723,-2.1067,-2.1203,-2.1261,-2.1261,-2.171,-2.2587,-2.3631,-2.4578,-2.5963,-2.6626,-2.7187,-2.7682,-2.8023,-2.8184,-2.8291,-2.8291,-2.8301,-2.8301,-2.8232,-2.7998,-2.7871,-2.7822,-2.7519,-2.6738,-2.6357,-2.6182,-2.581,-2.5742,-2.5732,-2.5723,-2.5965,-2.638,-2.6781,-2.7379,-2.7804,-2.7945,-2.7673,-2.7767,-2.8262,-2.8634,-2.8958,-2.9475,-3.0034,-3.0633,-1.277,-1.277,-1.277,-1.277,-1.277,-1.277,-1.277,-1.277,-1.277,-1.277,-1.277,-1.277,-1.277,-1.277,-1.277,-1.277,-1.277,-1.2766,-1.275,-1.2747,-1.2657,-1.2548,-1.2483,-1.2239,-1.1986,-1.1955,-1.187,-1.1797,-1.1837,-1.1837,-1.1837,-1.1837,-1.1837,-1.1837,-1.1837,-1.1837,-1.1893,-1.2311,-1.2367,-1.2548,-1.2904,-1.3614,-1.4619,-1.5741,-1.5919,-1.6161,-1.6514,-1.7285,-1.7812,-1.7935,-1.8829,-1.9243,-1.9307,-1.9366,-1.9482,-1.9533,-1.97,-1.9815,-1.97,-1.9989,-1.9996,-1.9771,-1.9764,-1.9758,-1.9649,-1.9597,-1.9707,-1.9931,-2.0155,-2.0385,-2.0666,-2.0723,-2.0902,-2.1089,-2.1146,-2.1261,-2.1539,-2.1979,-2.2741,-2.4283,-2.5406,-2.6463,-2.6853,-2.7403,-2.7745,-2.796,-2.8184,-2.8237,-2.8301,-2.8232,-2.8096,-2.8027,-2.7998,-2.7598,-2.707,-2.6836,-2.6592,-2.6074,-2.5859,-2.584,-2.581,-2.5713,-2.5965,-2.648,-2.644,-2.6466,-2.6466,-2.6524,-2.6791,-2.7295,-2.7568,-2.7793,-2.8495,-2.9189,-2.9943,-1.277,-1.277,-1.277,-1.277,-1.277,-1.277,-1.277,-1.277,-1.277,-1.277,-1.277,-1.277,-1.277,-1.277,-1.277,-1.277,-1.277,-1.277,-1.277,-1.2742,-1.2747,-1.2706,-1.2674,-1.2414,-1.2272,-1.2154,-1.2004,-1.1845,-1.1788,-1.1837,-1.1837,-1.1837,-1.1837,-1.1837,-1.1837,-1.1837,-1.1837,-1.1837,-1.1837,-1.1837,-1.1837,-1.2543,-1.3375,-1.4262,-1.4679,-1.4976,-1.5693,-1.6042,-1.6514,-1.675,-1.7701,-1.8292,-1.859,-1.901,-1.9366,-1.943,-1.954,-1.9533,-1.9424,-1.9713,-1.9655,-1.9482,-1.954,-1.954,-1.9424,-1.9424,-1.9482,-1.9649,-1.9873,-2.0155,-2.0443,-2.0493,-2.0666,-2.0845,-2.0852,-2.0737,-2.0737,-2.0744,-2.1566,-2.2669,-2.3567,-2.4633,-2.568,-2.6291,-2.7079,-2.7574,-2.7906,-2.8067,-2.813,-2.8242,-2.8164,-2.8125,-2.8066,-2.7754,-2.7353,-2.7148,-2.6816,-2.6318,-2.6025,-2.6055,-2.5918,-2.5762,-2.5937,-2.6241,-2.5996,-2.5781,-2.5791,-2.612,-2.6197,-2.6322,-2.6504,-2.6877,-2.7615,-2.8344,-2.9096,-1.277,-1.277,-1.277,-1.277,-1.277,-1.277,-1.277,-1.277,-1.277,-1.277,-1.277,-1.277,-1.277,-1.277,-1.277,-1.277,-1.277,-1.277,-1.277,-1.2766,-1.2758,-1.2762,-1.2779,-1.2617,-1.2406,-1.2251,-1.2032,-1.1914,-1.1801,-1.1837,-1.1837,-1.1837,-1.1837,-1.1837,-1.1837,-1.1837,-1.1837,-1.1837,-1.1837,-1.1837,-1.1837,-1.1897,-1.2251,-1.3195,-1.331,-1.3789,-1.4451,-1.5041,-1.5213,-1.5569,-1.6338,-1.722,-1.763,-1.8467,-1.9127,-1.9372,-1.9424,-1.9424,-1.9424,-1.943,-1.9482,-1.9424,-1.9424,-1.9424,-1.9424,-1.9424,-1.9424,-1.9424,-1.9591,-1.9931,-2.0277,-2.027,-2.0378,-2.0608,-2.05,-2.0328,-2.0385,-2.0385,-2.0443,-2.1281,-2.1907,-2.2797,-2.3902,-2.5122,-2.5845,-2.64,-2.6726,-2.7413,-2.7574,-2.8184,-2.8242,-2.8193,-2.8086,-2.7871,-2.7598,-2.7383,-2.6963,-2.6426,-2.6289,-2.6269,-2.6064,-2.585,-2.6055,-2.6269,-2.6162,-2.6006,-2.584,-2.5732,-2.5878,-2.5955,-2.5771,-2.6004,-2.6744,-2.7379,-2.8075,-1.277,-1.277,-1.277,-1.277,-1.277,-1.277,-1.277,-1.277,-1.277,-1.277,-1.277,-1.277,-1.277,-1.277,-1.277,-1.277,-1.277,-1.277,-1.277,-1.277,-1.277,-1.277,-1.2722,-1.2483,-1.2418,-1.2316,-1.2024,-1.1821,-1.1797,-1.1792,-1.1837,-1.1837,-1.1837,-1.1837,-1.1837,-1.1837,-1.1837,-1.1837,-1.1837,-1.1837,-1.1837,-1.1837,-1.1953,-1.2074,-1.2195,-1.2311,-1.2788,-1.3435,-1.3904,-1.4083,-1.5154,-1.6338,-1.7279,-1.7572,-1.8409,-1.901,-1.9424,-1.9424,-1.9424,-1.9424,-1.9424,-1.9424,-1.9424,-1.9424,-1.9424,-1.9424,-1.9424,-1.9424,-1.9482,-1.9713,-2.0046,-1.9989,-2.0206,-2.0321,-2.0328,-2.022,-2.022,-2.0046,-2.0104,-2.0162,-2.0895,-2.1395,-2.2232,-2.3455,-2.4616,-2.5067,-2.5617,-2.6291,-2.6916,-2.7466,-2.8237,-2.8242,-2.8213,-2.8018,-2.7832,-2.7617,-2.7256,-2.665,-2.6455,-2.6435,-2.6182,-2.6016,-2.6211,-2.6348,-2.626,-2.6338,-2.6416,-2.625,-2.5849,-2.5713,-2.5762,-2.5732,-2.5771,-2.6456,-2.7142,-1.2235,-1.277,-1.277,-1.277,-1.277,-1.277,-1.277,-1.277,-1.277,-1.277,-1.277,-1.277,-1.277,-1.277,-1.277,-1.277,-1.277,-1.277,-1.277,-1.277,-1.277,-1.277,-1.2742,-1.2682,-1.258,-1.241,-1.2288,-1.2121,-1.1983,-1.1821,-1.1837,-1.1837,-1.1837,-1.1837,-1.1837,-1.1837,-1.1837,-1.1837,-1.1837,-1.1837,-1.1837,-1.1837,-1.1837,-1.1837,-1.1837,-1.1837,-1.1953,-1.2191,-1.2603,-1.284,-1.3849,-1.509,-1.6273,-1.7103,-1.8052,-1.9249,-1.9424,-1.9424,-1.9424,-1.9424,-1.9424,-1.9424,-1.9424,-1.9424,-1.9424,-1.9424,-1.9424,-1.9424,-1.9424,-1.9649,-1.988,-1.9707,-1.9873,-1.9982,-2.0046,-1.9931,-1.988,-1.9822,-1.9707,-1.9764,-1.988,-2.0443,-2.106,-2.2119,-2.3119,-2.3511,-2.4283,-2.5223,-2.5899,-2.6463,-2.7349,-2.8281,-2.8262,-2.8203,-2.8037,-2.7851,-2.7637,-2.7119,-2.6603,-2.6475,-2.626,-2.6201,-2.6396,-2.6484,-2.6455,-2.6611,-2.6875,-2.6494,-2.5879,-2.583,-2.5859,-2.5771,-2.5684,-2.5771,-2.6504,-1.1299,-1.2037,-1.2572,-1.277,-1.277,-1.277,-1.277,-1.277,-1.277,-1.277,-1.277,-1.277,-1.277,-1.277,-1.277,-1.277,-1.277,-1.277,-1.277,-1.277,-1.277,-1.277,-1.2738,-1.2771,-1.267,-1.2628,-1.2438,-1.2268,-1.2056,-1.1914,-1.1837,-1.1841,-1.1837,-1.1837,-1.1837,-1.1837,-1.1837,-1.1837,-1.1837,-1.1837,-1.1837,-1.1837,-1.1837,-1.1837,-1.1837,-1.1837,-1.1837,-1.1837,-1.1893,-1.207,-1.2664,-1.3789,-1.5035,-1.58,-1.7103,-1.8233,-1.8706,-1.9004,-1.9243,-1.9424,-1.9424,-1.9424,-1.9424,-1.9424,-1.9424,-1.9424,-1.9424,-1.9424,-1.9424,-1.9533,-1.9642,-1.9597,-1.9649,-1.97,-1.9642,-1.9475,-1.9424,-1.9482,-1.954,-1.9597,-1.9597,-1.954,-2.0213,-2.1052,-2.1672,-2.2006,-2.2894,-2.4053,-2.4893,-2.5571,-2.6463,-2.7511,-2.8121,-2.8111,-2.814,-2.7974,-2.7832,-2.7578,-2.7012,-2.6582,-2.6406,-2.6406,-2.6562,-2.6611,-2.666,-2.7021,-2.7373,-2.6641,-2.5977,-2.6025,-2.6025,-2.5781,-2.5684,-2.5693,-2.5839,-0.9775,-0.9975,-1.1901,-1.27,-1.277,-1.277,-1.277,-1.277,-1.277,-1.277,-1.277,-1.277,-1.277,-1.277,-1.277,-1.277,-1.277,-1.277,-1.277,-1.277,-1.277,-1.277,-1.2738,-1.2718,-1.2617,-1.2568,-1.2507,-1.2312,-1.2023,-1.2052,-1.1922,-1.1797,-1.1837,-1.1837,-1.1837,-1.1837,-1.1837,-1.1837,-1.1837,-1.1837,-1.1837,-1.1837,-1.1837,-1.1837,-1.1837,-1.1837,-1.1837,-1.1837,-1.1837,-1.1837,-1.2074,-1.2784,-1.4023,-1.4436,-1.5682,-1.7103,-1.7636,-1.7994,-1.8532,-1.9191,-1.9424,-1.9424,-1.9424,-1.9424,-1.9424,-1.9424,-1.9424,-1.9424,-1.9424,-1.954,-1.9591,-1.9597,-1.9533,-1.9591,-1.9533,-1.9482,-1.9424,-1.9424,-1.9424,-1.9424,-1.9424,-1.9424,-1.9424,-2.0321,-2.0601,-2.0938,-2.1672,-2.2838,-2.4061,-2.4846,-2.5626,-2.6572,-2.7574,-2.796,-2.8121,-2.7995,-2.7868,-2.7746,-2.7347,-2.6931,-2.6571,-2.6639,-2.6748,-2.6885,-2.7012,-2.7441,-2.7656,-2.6943,-2.6416,-2.6279,-2.6123,-2.5801,-2.5742,-2.5801,-2.5791,-0.7305,-0.7438,-0.8961,-1.0426,-1.1897,-1.2503,-1.277,-1.277,-1.277,-1.277,-1.277,-1.277,-1.277,-1.277,-1.277,-1.277,-1.277,-1.277,-1.277,-1.277,-1.277,-1.277,-1.2795,-1.271,-1.2731,-1.2706,-1.2633,-1.2462,-1.2231,-1.2203,-1.2004,-1.187,-1.1797,-1.1837,-1.1837,-1.1784,-1.1788,-1.1784,-1.178,-1.1841,-1.1837,-1.1837,-1.1837,-1.1837,-1.1837,-1.1837,-1.1837,-1.1837,-1.1837,-1.1837,-1.1837,-1.2548,-1.3315,-1.355,-1.456,-1.6042,-1.6273,-1.6691,-1.7408,-1.8415,-1.9366,-1.9424,-1.9424,-1.9366,-1.9243,-1.9366,-1.9424,-1.9424,-1.9424,-1.9482,-1.9482,-1.9482,-1.9424,-1.9482,-1.9482,-1.9424,-1.9424,-1.9424,-1.9424,-1.9424,-1.9424,-1.9424,-1.9424,-1.9533,-1.9758,-1.9924,-2.0716,-2.1623,-2.2789,-2.3791,-2.4458,-2.5186,-2.6127,-2.6626,-2.6789,-2.7257,-2.7785,-2.7665,-2.7516,-2.7172,-2.6756,-2.6824,-2.6953,-2.7119,-2.7275,-2.7539,-2.7529,-2.7148,-2.6816,-2.6562,-2.6182,-2.5742,-2.5771,-2.5927,-2.6025,-0.5436,-0.5568,-0.6564,-0.8227,-1.0094,-1.0895,-1.1226,-1.1296,-1.1633,-1.2169,-1.2507,-1.2507,-1.2507,-1.2507,-1.2507,-1.2441,-1.2507,-1.2572,-1.2507,-1.2507,-1.2572,-1.2638,-1.2638,-1.263,-1.2614,-1.277,-1.2746,-1.2653,-1.2393,-1.2389,-1.2178,-1.1967,-1.1849,-1.1841,-1.1788,-1.1833,-1.1849,-1.1849,-1.1849,-1.1853,-1.1857,-1.1801,-1.1837,-1.1837,-1.1837,-1.1837,-1.1837,-1.1837,-1.1837,-1.1837,-1.1893,-1.2251,-1.2784,-1.3315,-1.3849,-1.456,-1.5095,-1.5154,-1.5983,-1.6932,-1.824,-1.7941,-1.8,-1.8292,-1.8706,-1.8887,-1.8765,-1.9424,-1.9424,-1.9366,-1.9366,-1.9424,-1.9424,-1.9482,-1.9482,-1.9424,-1.9424,-1.9424,-1.9424,-1.9424,-1.9424,-1.9424,-1.9424,-1.9482,-1.9591,-1.97,-2.0097,-2.078,-2.1452,-2.2289,-2.2902,-2.3623,-2.445,-2.4837,-2.5113,-2.559,-2.6082,-2.6779,-2.6754,-2.7117,-2.6969,-2.7056,-2.7165,-2.7363,-2.75,-2.766,-2.7513,-2.7178,-2.6963,-2.6758,-2.6338,-2.5908,-2.6113,-2.6299,-2.6494,-0.4301,-0.4434,-0.5436,-0.6498,-0.7491,-0.7624,-0.7823,-0.8358,-0.9293,-1.0432,-1.1442,-1.1578,-1.171,-1.1776,-1.1776,-1.1978,-1.2045,-1.2177,-1.2177,-1.2045,-1.2243,-1.2309,-1.2375,-1.2375,-1.2572,-1.2704,-1.275,-1.2731,-1.2604,-1.2519,-1.2316,-1.2077,-1.1943,-1.1906,-1.1805,-1.1939,-1.2012,-1.2024,-1.1962,-1.2024,-1.1967,-1.1866,-1.1825,-1.1837,-1.1837,-1.1837,-1.1837,-1.1837,-1.1837,-1.1837,-1.1837,-1.1953,-1.2074,-1.213,-1.2664,-1.355,-1.3729,-1.4262,-1.5332,-1.5569,-1.5806,-1.622,-1.6573,-1.6691,-1.7337,-1.763,-1.8046,-1.8713,-1.8894,-1.9068,-1.9243,-1.9307,-1.9185,-1.9185,-1.9127,-1.9424,-1.9424,-1.9424,-1.9424,-1.9424,-1.9424,-1.9424,-1.9424,-1.9424,-1.9533,-1.9649,-1.9758,-2.0104,-2.0551,-2.0888,-2.1445,-2.2006,-2.2782,-2.3287,-2.3615,-2.3886,-2.4433,-2.527,-2.6037,-2.6521,-2.7058,-2.7338,-2.749,-2.7623,-2.7738,-2.7806,-2.7529,-2.7266,-2.6904,-2.6543,-2.6416,-2.6201,-2.6406,-2.6611,-2.6797,-0.2893,-0.296,-0.3294,-0.3629,-0.4296,-0.656,-0.7491,-0.7557,-0.8025,-0.8493,-0.9094,-0.9829,-1.0366,-1.0568,-1.124,-1.1578,-1.1644,-1.1846,-1.1846,-1.1714,-1.1776,-1.2111,-1.2177,-1.2239,-1.2441,-1.2704,-1.2758,-1.2747,-1.2624,-1.2584,-1.2365,-1.2105,-1.1983,-1.1906,-1.1939,-1.2028,-1.2069,-1.2186,-1.2203,-1.2158,-1.204,-1.1963,-1.1878,-1.1845,-1.1837,-1.1837,-1.1837,-1.1837,-1.1837,-1.1837,-1.1837,-1.1837,-1.1837,-1.1837,-1.2014,-1.2487,-1.2487,-1.2548,-1.3024,-1.3204,-1.3973,-1.4803,-1.5451,-1.5569,-1.622,-1.622,-1.6932,-1.7584,-1.7525,-1.7642,-1.787,-1.8052,-1.811,-1.8292,-1.8525,-1.9185,-1.9424,-1.9424,-1.9424,-1.9424,-1.9424,-1.9424,-1.9424,-1.9424,-1.9482,-1.9533,-1.9591,-1.9591,-1.9931,-1.988,-2.0155,-2.05,-2.1117,-2.1672,-2.2168,-2.2492,-2.2942,-2.3727,-2.5003,-2.61,-2.6658,-2.7226,-2.7796,-2.7945,-2.793,-2.7851,-2.7588,-2.7256,-2.665,-2.6269,-2.6191,-2.6289,-2.6484,-2.6758,-2.706,-0.2222,-0.2222,-0.2222,-0.2222,-0.2557,-0.4695,-0.5895,-0.6295,-0.6429,-0.6629,-0.7293,-0.8161,-0.8496,-0.8764,-0.9368,-0.9902,-0.9968,-1.0038,-0.9971,-1.0104,-1.0641,-1.0836,-1.1237,-1.1843,-1.2375,-1.2638,-1.2758,-1.2763,-1.2682,-1.2666,-1.2467,-1.2199,-1.2016,-1.2065,-1.2109,-1.2154,-1.2223,-1.2324,-1.2337,-1.2243,-1.2121,-1.2008,-1.1878,-1.1805,-1.1837,-1.1837,-1.1837,-1.1837,-1.1837,-1.1837,-1.1837,-1.1837,-1.1837,-1.1837,-1.1837,-1.1837,-1.1837,-1.1837,-1.1957,-1.2014,-1.2904,-1.3794,-1.4272,-1.4505,-1.4803,-1.4917,-1.5688,-1.6101,-1.5806,-1.6161,-1.6626,-1.6803,-1.7044,-1.7279,-1.787,-1.859,-1.9307,-1.9307,-1.9366,-1.9366,-1.9424,-1.9424,-1.9424,-1.9424,-1.9424,-1.9424,-1.9424,-1.9424,-1.9424,-1.9424,-1.9424,-1.9707,-1.9938,-2.0493,-2.0888,-2.111,-2.1672,-2.2305,-2.3567,-2.4948,-2.61,-2.6624,-2.7463,-2.8228,-2.8144,-2.7959,-2.7656,-2.7246,-2.6768,-2.6338,-2.6005,-2.623,-2.6523,-2.6807,-2.709,-0.2222,-0.2222,-0.2222,-0.2222,-0.2222,-0.2557,-0.316,-0.4234,-0.4301,-0.4967,-0.6166,-0.6233,-0.6498,-0.6433,-0.6566,-0.6898,-0.7098,-0.7298,-0.7231,-0.7367,-0.8501,-0.9033,-0.9833,-1.0638,-1.1035,-1.1967,-1.2363,-1.2153,-1.2557,-1.2604,-1.2423,-1.231,-1.2118,-1.2134,-1.2158,-1.2261,-1.2393,-1.245,-1.2422,-1.2308,-1.2174,-1.1979,-1.1861,-1.1853,-1.1837,-1.1837,-1.1837,-1.1837,-1.1837,-1.1837,-1.1837,-1.1837,-1.1837,-1.1837,-1.1837,-1.1837,-1.1837,-1.1837,-1.1837,-1.1837,-1.1837,-1.2487,-1.2251,-1.2668,-1.32,-1.367,-1.4321,-1.4917,-1.4981,-1.5213,-1.551,-1.5747,-1.5919,-1.645,-1.7097,-1.7929,-1.8887,-1.9127,-1.9249,-1.9307,-1.9366,-1.9424,-1.9424,-1.9424,-1.9424,-1.9424,-1.9424,-1.9424,-1.9424,-1.9424,-1.9424,-1.9424,-1.9597,-1.9482,-1.9815,-2.0213,-2.0436,-2.1117,-2.2135,-2.3463,-2.4689,-2.6127,-2.7187,-2.7897,-2.8145,-2.8027,-2.7539,-2.7256,-2.7031,-2.6602,-2.6074,-2.6337,-2.6748,-2.6719,-2.6953,-0.2222,-0.2222,-0.2222,-0.2222,-0.2222,-0.2222,-0.2423,-0.2759,-0.2827,-0.3094,-0.3427,-0.45,-0.49,-0.4967,-0.59,-0.6233,-0.6364,-0.6498,-0.6564,-0.6698,-0.6833,-0.7298,-0.7831,-0.8432,-0.8759,-0.9492,-1.0224,-1.0955,-1.1128,-1.1541,-1.2057,-1.2106,-1.1625,-1.1764,-1.1999,-1.2291,-1.2387,-1.2451,-1.2335,-1.2328,-1.2174,-1.1983,-1.187,-1.1805,-1.1837,-1.1837,-1.1837,-1.1837,-1.1837,-1.1837,-1.1837,-1.1837,-1.1837,-1.1837,-1.1837,-1.1837,-1.1837,-1.1837,-1.1837,-1.1837,-1.1837,-1.1837,-1.1837,-1.1893,-1.2251,-1.2608,-1.308,-1.3614,-1.3734,-1.3794,-1.4088,-1.4386,-1.4679,-1.5208,-1.5854,-1.6744,-1.7636,-1.8052,-1.8233,-1.901,-1.9127,-1.9424,-1.9424,-1.9424,-1.9424,-1.9424,-1.9424,-1.9424,-1.9424,-1.9424,-1.9424,-1.9424,-1.9424,-1.9424,-1.9424,-1.9764,-1.9758,-1.9989,-2.106,-2.224,-2.3735,-2.5232,-2.6735,-2.7552,-2.781,-2.761,-2.7246,-2.7051,-2.6963,-2.6641,-2.62,-2.6571,-2.6834,-2.6738,-2.6719,-0.2222,-0.2222,-0.2222,-0.2222,-0.2222,-0.2222,-0.2222,-0.2222,-0.2222,-0.2222,-0.2289,-0.3094,-0.3497,-0.3563,-0.423,-0.4564,-0.4564,-0.4497,-0.4497,-0.4564,-0.5367,-0.5765,-0.6097,-0.6698,-0.7424,-0.789,-0.8358,-0.9091,-0.9399,-0.9755,-1.0215,-1.0797,-1.0537,-1.0575,-1.079,-1.1106,-1.1327,-1.1626,-1.1888,-1.2146,-1.2121,-1.1967,-1.1861,-1.1805,-1.1837,-1.1837,-1.1837,-1.1837,-1.1837,-1.1837,-1.1837,-1.1837,-1.1837,-1.1837,-1.1837,-1.1837,-1.1837,-1.1837,-1.1837,-1.1837,-1.1837,-1.1837,-1.1837,-1.1837,-1.1837,-1.2074,-1.2367,-1.2724,-1.2311,-1.2134,-1.2608,-1.302,-1.337,-1.3725,-1.4555,-1.5386,-1.6037,-1.6626,-1.7461,-1.8415,-1.8887,-1.9307,-1.9424,-1.9424,-1.9424,-1.9424,-1.9424,-1.9424,-1.9424,-1.9424,-1.9424,-1.9424,-1.9424,-1.9424,-1.9424,-1.9424,-1.9482,-1.9649,-2.0155,-2.1388,-2.283,-2.3861,-2.5006,-2.6225,-2.7391,-2.7139,-2.6801,-2.6922,-2.6836,-2.6553,-2.6357,-2.6434,-2.6572,-2.6406,-2.6455,-0.2222,-0.2222,-0.2222,-0.2222,-0.2222,-0.2222,-0.2222,-0.2222,-0.2222,-0.2222,-0.2222,-0.2222,-0.2357,-0.2558,-0.2826,-0.2759,-0.2892,-0.2892,-0.2959,-0.2356,-0.363,-0.4298,-0.4832,-0.5765,-0.5763,-0.6627,-0.7291,-0.7493,-0.7624,-0.8061,-0.861,-0.9128,-0.8328,-0.838,-0.9133,-0.9515,-0.9842,-1.0246,-1.1043,-1.16,-1.1888,-1.187,-1.1837,-1.1837,-1.1837,-1.1837,-1.1837,-1.1837,-1.1837,-1.1837,-1.1837,-1.1837,-1.1837,-1.1837,-1.1837,-1.1837,-1.1837,-1.1837,-1.1837,-1.1837,-1.1837,-1.1837,-1.1837,-1.1837,-1.1837,-1.1837,-1.2074,-1.213,-1.1893,-1.1897,-1.2251,-1.2367,-1.2603,-1.29,-1.3435,-1.4321,-1.503,-1.58,-1.675,-1.7701,-1.835,-1.8771,-1.9424,-1.9424,-1.9424,-1.9424,-1.9424,-1.9424,-1.9424,-1.9424,-1.9424,-1.9424,-1.9424,-1.9424,-1.9424,-1.9424,-1.9424,-1.9591,-1.9873,-2.0594,-2.204,-2.2726,-2.3119,-2.4499,-2.596,-2.6499,-2.6464,-2.6375,-2.6384,-2.6699,-2.6514,-2.6367,-2.6269,-2.6152,-2.6152,-0.2222,-0.2222,-0.2222,-0.2222,-0.2222,-0.2222,-0.2222,-0.2222,-0.2222,-0.2222,-0.2222,-0.2222,-0.2222,-0.2222,-0.2222,-0.2222,-0.2222,-0.2222,-0.2222,-0.2222,-0.2759,-0.3027,-0.2892,-0.3629,-0.3762,-0.3896,-0.4696,-0.6028,-0.6625,-0.6949,-0.7053,-0.743,-0.6799,-0.6956,-0.7458,-0.7827,-0.8193,-0.8666,-0.9508,-1.0583,-1.1252,-1.1643,-1.1837,-1.1776,-1.1776,-1.1776,-1.1776,-1.1837,-1.1837,-1.1837,-1.1837,-1.1837,-1.1837,-1.1837,-1.1837,-1.1837,-1.1837,-1.1837,-1.1837,-1.1837,-1.1837,-1.1837,-1.1837,-1.1837,-1.1837,-1.1837,-1.1837,-1.1837,-1.1837,-1.1837,-1.1837,-1.1833,-1.1893,-1.213,-1.2367,-1.3255,-1.4083,-1.503,-1.6042,-1.6809,-1.7578,-1.8292,-1.8946,-1.9307,-1.9424,-1.9424,-1.9424,-1.9424,-1.9424,-1.9424,-1.9424,-1.9424,-1.9424,-1.9424,-1.9424,-1.9424,-1.9424,-1.9482,-1.97,-2.0479,-2.1365,-2.2171,-2.2911,-2.3392,-2.433,-2.488,-2.5286,-2.5252,-2.5423,-2.6078,-2.6332,-2.6029,-2.6102,-2.6094,-2.6006,-0.2222,-0.2222,-0.2222,-0.2222,-0.2222,-0.2222,-0.2222,-0.2222,-0.2222,-0.2222,-0.2222,-0.2222,-0.2222,-0.2222,-0.2222,-0.2222,-0.2222,-0.2222,-0.2222,-0.2222,-0.2222,-0.2289,-0.2222,-0.2222,-0.2423,-0.2625,-0.3094,-0.423,-0.5228,-0.5026,-0.4806,-0.5496,-0.5409,-0.5167,-0.563,-0.603,-0.6465,-0.6969,-0.7741,-0.8725,-0.9997,-1.0547,-1.1341,-1.1522,-1.1587,-1.1587,-1.1776,-1.1837,-1.1837,-1.1837,-1.1837,-1.1837,-1.1837,-1.1837,-1.1837,-1.1837,-1.1837,-1.1837,-1.1837,-1.1837,-1.1837,-1.1837,-1.1837,-1.1837,-1.1837,-1.1837,-1.1837,-1.1837,-1.1837,-1.1837,-1.1837,-1.1833,-1.1833,-1.2014,-1.2014,-1.2487,-1.3135,-1.3904,-1.4555,-1.509,-1.5919,-1.6756,-1.7408,-1.811,-1.8233,-1.8583,-1.8706,-1.9249,-1.9307,-1.9424,-1.9424,-1.9424,-1.9424,-1.9424,-1.9424,-1.9424,-1.9424,-1.9475,-1.9533,-1.9866,-2.0537,-2.1805,-2.2751,-2.2656,-2.28,-2.3375,-2.3661,-2.378,-2.4476,-2.5213,-2.5468,-2.5584,-2.5727,-2.5828,-2.579,-0.2211,-0.2149,-0.2221,-0.2222,-0.2222,-0.2222,-0.2222,-0.2222,-0.2222,-0.2222,-0.2222,-0.2222,-0.2222,-0.2222,-0.2222,-0.2222,-0.2222,-0.2222,-0.2222,-0.2222,-0.2222,-0.2222,-0.2222,-0.2222,-0.2222,-0.2222,-0.249,-0.249,-0.2825,-0.2891,-0.3288,-0.3614,-0.332,-0.2762,-0.3712,-0.4172,-0.4482,-0.5147,-0.586,-0.6544,-0.7742,-0.9012,-1.0051,-1.066,-1.1027,-1.1216,-1.1466,-1.1651,-1.1651,-1.1772,-1.1772,-1.1837,-1.1837,-1.1837,-1.1837,-1.1837,-1.1837,-1.1837,-1.1837,-1.1837,-1.1837,-1.1837,-1.1837,-1.1837,-1.1837,-1.1841,-1.1841,-1.1845,-1.1845,-1.1801,-1.1801,-1.1821,-1.1821,-1.1801,-1.1801,-1.1841,-1.2367,-1.29,-1.325,-1.3725,-1.45,-1.5337,-1.6048,-1.675,-1.7161,-1.7513,-1.8052,-1.8706,-1.9127,-1.9307,-1.9424,-1.9424,-1.9424,-1.9424,-1.9424,-1.9424,-1.9424,-1.9424,-1.9475,-1.9424,-1.9707,-2.0702,-2.1284,-2.107,-2.1359,-2.1858,-2.2144,-2.2272,-2.3143,-2.411,-2.4427,-2.4601,-2.4814,-2.4961,-2.532,-0.2095,-0.212,-0.2144,-0.2222,-0.2222,-0.2222,-0.2222,-0.2222,-0.2222,-0.2222,-0.2222,-0.2222,-0.2222,-0.2222,-0.2222,-0.2222,-0.2222,-0.2222,-0.2222,-0.2222,-0.2222,-0.2222,-0.2222,-0.2222,-0.2222,-0.2222,-0.2222,-0.2222,-0.2222,-0.2221,-0.2276,-0.2587,-0.2515,-0.2295,-0.2397,-0.2817,-0.3184,-0.3793,-0.4274,-0.493,-0.5921,-0.7133,-0.8097,-0.8763,-0.9252,-0.9987,-1.0604,-1.0974,-1.1152,-1.1398,-1.1647,-1.1772,-1.1837,-1.1837,-1.1837,-1.1837,-1.1837,-1.1837,-1.1837,-1.1837,-1.1837,-1.1837,-1.1837,-1.1837,-1.1845,-1.1801,-1.1805,-1.1813,-1.1829,-1.1878,-1.1902,-1.1967,-1.1983,-1.1922,-1.1898,-1.1825,-1.2082,-1.2311,-1.2548,-1.3075,-1.3725,-1.45,-1.5219,-1.5688,-1.5865,-1.6338,-1.7044,-1.7636,-1.7994,-1.859,-1.9249,-1.9249,-1.9243,-1.9424,-1.9424,-1.9424,-1.9424,-1.9424,-1.9424,-1.9424,-1.9424,-1.9482,-1.977,-2.0096,-2.0012,-2.0243,-2.05,-2.0944,-2.1653,-2.2494,-2.31,-2.3475,-2.3723,-2.4067,-2.4393]}]]